Time,TemperatureF,DewpointF,PressureIn,WindDirection,WindDirectionDegrees,WindSpeedMPH,WindSpeedGustMPH,Humidity,HourlyPrecipIn,Conditions,Clouds,dailyrainin,SolarRadiationWatts/m^2,SoftwareType,DateUTC
2013-03-24 00:00:00,39.6,20.5,29.69,NNE,20,0.0,0.0,46,0.00,,,0.00,0.00,VWS V14.01,2013-03-24 04:00:00,
2013-03-24 00:01:00,39.6,20.5,29.69,NNE,20,0.0,0.0,46,0.00,,,0.00,0.00,VWS V14.01,2013-03-24 04:01:00,
2013-03-24 00:02:00,39.5,21.0,29.68,NNE,17,0.0,0.0,47,0.00,,,0.00,0.00,VWS V14.01,2013-03-24 04:02:00,
2013-03-24 00:03:00,39.6,20.5,29.69,NNE,20,0.0,0.0,46,0.00,,,0.00,0.00,VWS V14.01,2013-03-24 04:03:00,
2013-03-24 00:04:00,39.6,21.0,29.69,NNE,20,0.0,0.0,47,0.00,,,0.00,0.00,VWS V14.01,2013-03-24 04:04:00,
2013-03-24 00:05:00,39.3,20.8,29.68,NNE,13,0.0,0.0,47,0.00,,,0.00,0.00,VWS V14.01,2013-03-24 04:05:00,
2013-03-24 00:06:00,39.3,20.8,29.68,NNE,13,0.0,0.0,47,0.00,,,0.00,0.00,VWS V14.01,2013-03-24 04:06:00,
2013-03-24 00:07:00,39.2,21.2,29.68,North,11,0.0,0.0,48,0.00,,,0.00,0.00,VWS V14.01,2013-03-24 04:07:00,
2013-03-24 00:08:00,39.2,21.2,29.68,North,0,0.0,0.0,48,0.00,,,0.00,0.00,VWS V14.01,2013-03-24 04:08:00,
2013-03-24 00:09:00,39.5,21.0,29.68,NNE,14,0.0,0.0,47,0.00,,,0.00,0.00,VWS V14.01,2013-03-24 04:09:00,
2013-03-24 00:10:00,39.1,21.1,29.68,North,0,0.0,0.0,48,0.00,,,0.00,0.00,VWS V14.01,2013-03-24 04:10:00,
2013-03-24 00:11:00,38.9,20.9,29.68,North,0,0.0,0.0,48,0.00,,,0.00,0.00,VWS V14.01,2013-03-24 04:11:00,
2013-03-24 00:12:00,38.9,20.9,29.68,North,0,0.0,0.0,48,0.00,,,0.00,0.00,VWS V14.01,2013-03-24 04:12:00,
2013-03-24 00:13:00,38.9,20.9,29.68,North,0,0.0,0.0,48,0.00,,,0.00,0.00,VWS V14.01,2013-03-24 04:13:00,
2013-03-24 00:14:00,38.8,20.8,29.68,North,0,0.0,0.0,48,0.00,,,0.00,0.00,VWS V14.01,2013-03-24 04:14:00,
2013-03-24 00:15:00,39.1,21.1,29.68,North,0,0.0,0.0,48,0.00,,,0.00,0.00,VWS V14.01,2013-03-24 04:15:00,
2013-03-24 00:16:00,38.8,20.8,29.69,North,10,0.0,0.0,48,0.00,,,0.00,0.00,VWS V14.01,2013-03-24 04:16:00,
2013-03-24 00:17:00,38.8,20.8,29.69,North,3,0.0,0.0,48,0.00,,,0.00,0.00,VWS V14.01,2013-03-24 04:17:00,
2013-03-24 00:18:00,38.8,20.8,29.69,North,3,0.0,0.0,48,0.00,,,0.00,0.00,VWS V14.01,2013-03-24 04:18:00,
2013-03-24 00:19:00,38.8,20.8,29.69,North,3,0.0,0.0,48,0.00,,,0.00,0.00,VWS V14.01,2013-03-24 04:19:00,
2013-03-24 00:20:00,38.8,20.8,29.69,North,356,0.0,0.0,48,0.00,,,0.00,0.00,VWS V14.01,2013-03-24 04:20:00,
2013-03-24 00:21:00,38.8,20.8,29.69,North,3,0.0,0.0,48,0.00,,,0.00,0.00,VWS V14.01,2013-03-24 04:21:00,
2013-03-24 00:22:00,38.8,20.8,29.69,North,3,0.0,0.0,48,0.00,,,0.00,0.00,VWS V14.01,2013-03-24 04:22:00,
2013-03-24 00:23:00,38.8,20.8,29.69,North,7,0.0,0.0,48,0.00,,,0.00,0.00,VWS V14.01,2013-03-24 04:23:00,
2013-03-24 00:24:00,38.8,20.8,29.69,North,3,0.0,0.0,48,0.00,,,0.00,0.00,VWS V14.01,2013-03-24 04:24:00,
2013-03-24 00:25:00,38.8,20.8,29.69,North,7,0.0,0.0,48,0.00,,,0.00,0.00,VWS V14.01,2013-03-24 04:25:00,
2013-03-24 00:26:00,38.8,20.8,29.69,North,3,0.0,0.0,48,0.00,,,0.00,0.00,VWS V14.01,2013-03-24 04:26:00,
2013-03-24 00:27:00,38.9,20.9,29.69,North,0,0.0,0.0,48,0.00,,,0.00,0.00,VWS V14.01,2013-03-24 04:27:00,
2013-03-24 00:28:00,38.9,20.9,29.69,North,6,0.0,0.0,48,0.00,,,0.00,0.00,VWS V14.01,2013-03-24 04:28:00,
2013-03-24 00:29:00,38.9,20.9,29.69,North,0,0.0,0.0,48,0.00,,,0.00,0.00,VWS V14.01,2013-03-24 04:29:00,
2013-03-24 00:30:00,39.1,21.1,29.68,North,0,0.0,0.0,48,0.00,,,0.00,0.00,VWS V14.01,2013-03-24 04:30:00,
2013-03-24 00:31:00,38.9,20.9,29.69,North,3,0.0,0.0,48,0.00,,,0.00,0.00,VWS V14.01,2013-03-24 04:31:00,
2013-03-24 00:32:00,39.2,20.7,29.68,North,1,0.0,0.0,47,0.00,,,0.00,0.00,VWS V14.01,2013-03-24 04:32:00,
2013-03-24 00:33:00,39.2,20.7,29.68,North,0,0.0,0.0,47,0.00,,,0.00,0.00,VWS V14.01,2013-03-24 04:33:00,
2013-03-24 00:34:00,39.3,20.8,29.68,North,10,0.0,0.0,47,0.00,,,0.00,0.00,VWS V14.01,2013-03-24 04:34:00,
2013-03-24 00:35:00,39.3,20.8,29.68,North,10,0.0,0.0,47,0.00,,,0.00,0.00,VWS V14.01,2013-03-24 04:35:00,
2013-03-24 00:36:00,39.2,20.7,29.68,North,3,0.0,0.0,47,0.00,,,0.00,0.00,VWS V14.01,2013-03-24 04:36:00,
2013-03-24 00:37:00,39.5,20.5,29.68,North,4,0.0,0.0,46,0.00,,,0.00,0.00,VWS V14.01,2013-03-24 04:37:00,
2013-03-24 00:38:00,39.5,20.5,29.68,North,1,0.0,0.0,46,0.00,,,0.00,0.00,VWS V14.01,2013-03-24 04:38:00,
2013-03-24 00:39:00,39.5,20.5,29.68,North,7,0.0,0.0,46,0.00,,,0.00,0.00,VWS V14.01,2013-03-24 04:39:00,
2013-03-24 00:40:00,39.6,20.5,29.68,North,4,0.0,0.0,46,0.00,,,0.00,0.00,VWS V14.01,2013-03-24 04:40:00,
2013-03-24 00:41:00,39.6,20.5,29.68,North,4,0.0,0.0,46,0.00,,,0.00,0.00,VWS V14.01,2013-03-24 04:41:00,
2013-03-24 00:42:00,39.5,20.5,29.68,North,4,0.0,0.0,46,0.00,,,0.00,0.00,VWS V14.01,2013-03-24 04:42:00,
2013-03-24 00:43:00,39.6,20.5,29.68,North,11,0.0,0.0,46,0.00,,,0.00,0.00,VWS V14.01,2013-03-24 04:43:00,
2013-03-24 00:44:00,39.6,20.5,29.68,North,6,0.0,0.0,46,0.00,,,0.00,0.00,VWS V14.01,2013-03-24 04:44:00,
2013-03-24 00:45:00,39.6,20.5,29.68,North,6,0.0,0.0,46,0.00,,,0.00,0.00,VWS V14.01,2013-03-24 04:45:00,
2013-03-24 00:46:00,39.6,20.5,29.68,North,7,0.0,0.0,46,0.00,,,0.00,0.00,VWS V14.01,2013-03-24 04:46:00,
2013-03-24 00:47:00,39.6,20.5,29.68,North,8,0.0,0.0,46,0.00,,,0.00,0.00,VWS V14.01,2013-03-24 04:47:00,
2013-03-24 00:48:00,39.6,20.5,29.68,NNE,25,0.0,0.0,46,0.00,,,0.00,0.00,VWS V14.01,2013-03-24 04:48:00,
2013-03-24 00:49:00,39.6,20.5,29.68,NNE,13,0.0,0.0,46,0.00,,,0.00,0.00,VWS V14.01,2013-03-24 04:49:00,
2013-03-24 00:50:00,39.6,20.5,29.68,NNE,17,0.0,0.0,46,0.00,,,0.00,0.00,VWS V14.01,2013-03-24 04:50:00,
2013-03-24 00:51:00,39.6,20.5,29.68,North,7,0.0,0.0,46,0.00,,,0.00,0.00,VWS V14.01,2013-03-24 04:51:00,
2013-03-24 00:52:00,39.6,20.5,29.68,NNE,14,0.0,0.0,46,0.00,,,0.00,0.00,VWS V14.01,2013-03-24 04:52:00,
2013-03-24 00:53:00,39.6,20.5,29.68,NNE,25,0.0,0.0,46,0.00,,,0.00,0.00,VWS V14.01,2013-03-24 04:53:00,
2013-03-24 00:54:00,39.6,20.5,29.68,North,0,0.0,0.0,46,0.00,,,0.00,0.00,VWS V14.01,2013-03-24 04:54:00,
2013-03-24 00:55:00,39.6,20.5,29.68,NNE,20,0.0,0.0,46,0.00,,,0.00,0.00,VWS V14.01,2013-03-24 04:55:00,
2013-03-24 00:56:00,39.6,20.5,29.68,NNE,13,0.0,0.0,46,0.00,,,0.00,0.00,VWS V14.01,2013-03-24 04:56:00,
2013-03-24 00:57:00,39.5,21.0,29.68,North,0,0.0,0.0,47,0.00,,,0.00,0.00,VWS V14.01,2013-03-24 04:57:00,
2013-03-24 00:58:00,39.5,21.0,29.68,North,4,0.0,0.0,47,0.00,,,0.00,0.00,VWS V14.01,2013-03-24 04:58:00,
2013-03-24 00:59:00,39.6,20.5,29.68,North,0,0.0,0.0,46,0.00,,,0.00,0.00,VWS V14.01,2013-03-24 04:59:00,
2013-03-24 01:00:00,39.5,21.0,29.66,North,0,0.0,0.0,47,0.00,,,0.00,0.00,VWS V14.01,2013-03-24 05:00:00,
2013-03-24 01:01:00,39.5,20.5,29.66,North,1,0.0,0.0,46,0.00,,,0.00,0.00,VWS V14.01,2013-03-24 05:01:00,
2013-03-24 01:02:00,39.5,20.5,29.66,NNW,346,0.0,0.0,46,0.00,,,0.00,0.00,VWS V14.01,2013-03-24 05:02:00,
2013-03-24 01:03:00,39.5,20.5,29.66,North,0,0.0,0.0,46,0.00,,,0.00,0.00,VWS V14.01,2013-03-24 05:03:00,
2013-03-24 01:04:00,39.5,20.5,29.66,North,0,0.0,0.0,46,0.00,,,0.00,0.00,VWS V14.01,2013-03-24 05:04:00,
2013-03-24 01:05:00,39.5,21.0,29.66,North,0,0.0,0.0,47,0.00,,,0.00,0.00,VWS V14.01,2013-03-24 05:05:00,
2013-03-24 01:06:00,39.5,21.0,29.66,NNE,20,0.0,0.0,47,0.00,,,0.00,0.00,VWS V14.01,2013-03-24 05:06:00,
2013-03-24 01:07:00,39.5,21.0,29.66,NNE,24,0.0,0.0,47,0.00,,,0.00,0.00,VWS V14.01,2013-03-24 05:07:00,
2013-03-24 01:08:00,39.5,20.5,29.66,NE,38,0.0,0.0,46,0.00,,,0.00,0.00,VWS V14.01,2013-03-24 05:08:00,
2013-03-24 01:09:00,39.5,20.5,29.66,NE,54,0.0,0.0,46,0.00,,,0.00,0.00,VWS V14.01,2013-03-24 05:09:00,
2013-03-24 01:10:00,39.5,21.0,29.66,North,0,0.0,0.0,47,0.00,,,0.00,0.00,VWS V14.01,2013-03-24 05:10:00,
2013-03-24 01:11:00,39.5,20.5,29.66,NNE,32,0.0,0.0,46,0.00,,,0.00,0.00,VWS V14.01,2013-03-24 05:11:00,
2013-03-24 01:12:00,39.5,20.5,29.66,NNE,17,0.0,0.0,46,0.00,,,0.00,0.00,VWS V14.01,2013-03-24 05:12:00,
2013-03-24 01:13:00,39.5,20.5,29.66,NNE,13,0.0,0.0,46,0.00,,,0.00,0.00,VWS V14.01,2013-03-24 05:13:00,
2013-03-24 01:14:00,39.5,20.5,29.66,NNE,17,0.0,0.0,46,0.00,,,0.00,0.00,VWS V14.01,2013-03-24 05:14:00,
2013-03-24 01:15:00,39.6,20.5,29.66,NNE,17,0.0,0.0,46,0.00,,,0.00,0.00,VWS V14.01,2013-03-24 05:15:00,
2013-03-24 01:16:00,39.5,20.5,29.66,NNE,32,0.0,0.0,46,0.00,,,0.00,0.00,VWS V14.01,2013-03-24 05:16:00,
2013-03-24 01:17:00,39.6,20.5,29.66,NNE,23,0.0,0.0,46,0.00,,,0.00,0.00,VWS V14.01,2013-03-24 05:17:00,
2013-03-24 01:18:00,39.5,20.5,29.66,NNE,25,0.0,0.0,46,0.00,,,0.00,0.00,VWS V14.01,2013-03-24 05:18:00,
2013-03-24 01:19:00,39.5,20.5,29.66,NE,44,0.0,0.0,46,0.00,,,0.00,0.00,VWS V14.01,2013-03-24 05:19:00,
2013-03-24 01:20:00,39.5,20.5,29.66,NNE,31,0.0,0.0,46,0.00,,,0.00,0.00,VWS V14.01,2013-03-24 05:20:00,
2013-03-24 01:21:00,39.3,20.3,29.66,NE,34,0.0,0.0,46,0.00,,,0.00,0.00,VWS V14.01,2013-03-24 05:21:00,
2013-03-24 01:22:00,39.6,20.5,29.66,NNE,23,0.0,0.0,46,0.00,,,0.00,0.00,VWS V14.01,2013-03-24 05:22:00,
2013-03-24 01:23:00,39.3,20.3,29.66,NE,56,0.0,0.0,46,0.00,,,0.00,0.00,VWS V14.01,2013-03-24 05:23:00,
2013-03-24 01:24:00,39.3,20.3,29.66,NNE,25,0.0,0.0,46,0.00,,,0.00,0.00,VWS V14.01,2013-03-24 05:24:00,
2013-03-24 01:25:00,39.3,20.3,29.66,NNE,18,0.0,0.0,46,0.00,,,0.00,0.00,VWS V14.01,2013-03-24 05:25:00,
2013-03-24 01:26:00,39.3,20.3,29.66,North,0,0.0,0.0,46,0.00,,,0.00,0.00,VWS V14.01,2013-03-24 05:26:00,
2013-03-24 01:27:00,39.3,20.3,29.66,NNE,28,0.0,0.0,46,0.00,,,0.00,0.00,VWS V14.01,2013-03-24 05:27:00,
2013-03-24 01:28:00,39.2,20.2,29.66,NNE,23,0.0,0.0,46,0.00,,,0.00,0.00,VWS V14.01,2013-03-24 05:28:00,
2013-03-24 01:29:00,39.2,20.2,29.66,North,11,0.0,0.0,46,0.00,,,0.00,0.00,VWS V14.01,2013-03-24 05:29:00,
2013-03-24 01:30:00,39.2,20.7,29.65,North,8,0.0,0.0,47,0.00,,,0.00,0.00,VWS V14.01,2013-03-24 05:30:00,
2013-03-24 01:31:00,39.2,20.7,29.65,NE,37,0.0,0.0,47,0.00,,,0.00,0.00,VWS V14.01,2013-03-24 05:31:00,
2013-03-24 01:32:00,39.2,20.2,29.66,NNE,28,0.0,0.0,46,0.00,,,0.00,0.00,VWS V14.01,2013-03-24 05:32:00,
2013-03-24 01:33:00,39.1,20.6,29.65,NNE,16,0.0,0.0,47,0.00,,,0.00,0.00,VWS V14.01,2013-03-24 05:33:00,
2013-03-24 01:34:00,39.1,20.6,29.65,NNE,27,0.0,0.0,47,0.00,,,0.00,0.00,VWS V14.01,2013-03-24 05:34:00,
2013-03-24 01:35:00,39.1,20.6,29.65,NNE,25,0.0,0.0,47,0.00,,,0.00,0.00,VWS V14.01,2013-03-24 05:35:00,
2013-03-24 01:36:00,39.1,20.6,29.65,North,4,0.0,0.0,47,0.00,,,0.00,0.00,VWS V14.01,2013-03-24 05:36:00,
2013-03-24 01:37:00,39.1,20.6,29.65,North,10,0.0,0.0,47,0.00,,,0.00,0.00,VWS V14.01,2013-03-24 05:37:00,
2013-03-24 01:38:00,39.1,20.6,29.65,NNE,25,0.0,0.0,47,0.00,,,0.00,0.00,VWS V14.01,2013-03-24 05:38:00,
2013-03-24 01:39:00,38.9,20.4,29.65,NNE,24,0.0,0.0,47,0.00,,,0.00,0.00,VWS V14.01,2013-03-24 05:39:00,
2013-03-24 01:40:00,38.9,20.4,29.65,NE,38,0.0,0.0,47,0.00,,,0.00,0.00,VWS V14.01,2013-03-24 05:40:00,
2013-03-24 01:41:00,38.9,20.4,29.65,NNE,20,0.0,0.0,47,0.00,,,0.00,0.00,VWS V14.01,2013-03-24 05:41:00,
2013-03-24 01:42:00,38.9,20.4,29.65,NNE,25,0.0,0.0,47,0.00,,,0.00,0.00,VWS V14.01,2013-03-24 05:42:00,
2013-03-24 01:43:00,39.1,20.6,29.65,NNE,25,0.0,0.0,47,0.00,,,0.00,0.00,VWS V14.01,2013-03-24 05:43:00,
2013-03-24 01:44:00,38.9,20.4,29.65,NNE,17,0.0,0.0,47,0.00,,,0.00,0.00,VWS V14.01,2013-03-24 05:44:00,
2013-03-24 01:45:00,38.9,20.4,29.65,NNE,17,0.0,0.0,47,0.00,,,0.00,0.00,VWS V14.01,2013-03-24 05:45:00,
2013-03-24 01:46:00,38.9,20.4,29.65,NNE,18,0.0,0.0,47,0.00,,,0.00,0.00,VWS V14.01,2013-03-24 05:46:00,
2013-03-24 01:47:00,38.9,20.4,29.65,North,8,0.0,0.0,47,0.00,,,0.00,0.00,VWS V14.01,2013-03-24 05:47:00,
2013-03-24 01:48:00,38.9,20.4,29.65,NE,34,0.0,0.0,47,0.00,,,0.00,0.00,VWS V14.01,2013-03-24 05:48:00,
2013-03-24 01:49:00,38.8,20.3,29.65,North,1,0.0,0.0,47,0.00,,,0.00,0.00,VWS V14.01,2013-03-24 05:49:00,
2013-03-24 01:50:00,38.8,20.3,29.65,North,0,0.0,0.0,47,0.00,,,0.00,0.00,VWS V14.01,2013-03-24 05:50:00,
2013-03-24 01:51:00,38.8,20.3,29.65,North,0,0.0,0.0,47,0.00,,,0.00,0.00,VWS V14.01,2013-03-24 05:51:00,
2013-03-24 01:52:00,38.8,20.3,29.65,North,8,0.0,0.0,47,0.00,,,0.00,0.00,VWS V14.01,2013-03-24 05:52:00,
2013-03-24 01:53:00,38.8,20.3,29.65,North,10,0.0,0.0,47,0.00,,,0.00,0.00,VWS V14.01,2013-03-24 05:53:00,
2013-03-24 01:54:00,38.8,20.3,29.65,North,0,0.0,0.0,47,0.00,,,0.00,0.00,VWS V14.01,2013-03-24 05:54:00,
2013-03-24 01:55:00,38.8,20.3,29.65,North,3,0.0,0.0,47,0.00,,,0.00,0.00,VWS V14.01,2013-03-24 05:55:00,
2013-03-24 01:56:00,38.8,20.3,29.65,North,0,0.0,0.0,47,0.00,,,0.00,0.00,VWS V14.01,2013-03-24 05:56:00,
2013-03-24 01:57:00,38.8,20.3,29.65,NNE,16,0.0,0.0,47,0.00,,,0.00,0.00,VWS V14.01,2013-03-24 05:57:00,
2013-03-24 01:58:00,38.8,20.3,29.65,North,1,0.0,0.0,47,0.00,,,0.00,0.00,VWS V14.01,2013-03-24 05:58:00,
2013-03-24 01:59:00,38.8,20.3,29.65,North,0,0.0,0.0,47,0.00,,,0.00,0.00,VWS V14.01,2013-03-24 05:59:00,
2013-03-24 02:00:00,38.8,20.3,29.66,North,0,0.0,0.0,47,0.00,,,0.00,0.00,VWS V14.01,2013-03-24 06:00:00,
2013-03-24 02:01:00,38.6,20.1,29.66,North,0,0.0,0.0,47,0.00,,,0.00,0.00,VWS V14.01,2013-03-24 06:01:00,
2013-03-24 02:02:00,38.6,20.1,29.66,North,0,0.0,0.0,47,0.00,,,0.00,0.00,VWS V14.01,2013-03-24 06:02:00,
2013-03-24 02:03:00,38.6,20.1,29.66,North,0,0.0,0.0,47,0.00,,,0.00,0.00,VWS V14.01,2013-03-24 06:03:00,
2013-03-24 02:04:00,38.8,20.3,29.65,North,0,0.0,0.0,47,0.00,,,0.00,0.00,VWS V14.01,2013-03-24 06:04:00,
2013-03-24 02:05:00,38.6,20.1,29.66,North,11,0.0,0.0,47,0.00,,,0.00,0.00,VWS V14.01,2013-03-24 06:05:00,
2013-03-24 02:06:00,38.6,20.1,29.66,North,359,0.0,0.0,47,0.00,,,0.00,0.00,VWS V14.01,2013-03-24 06:06:00,
2013-03-24 02:07:00,38.6,20.1,29.66,North,3,0.0,0.0,47,0.00,,,0.00,0.00,VWS V14.01,2013-03-24 06:07:00,
2013-03-24 02:08:00,38.8,20.3,29.66,North,0,0.0,0.0,47,0.00,,,0.00,0.00,VWS V14.01,2013-03-24 06:08:00,
2013-03-24 02:09:00,38.8,20.3,29.66,North,0,0.0,0.0,47,0.00,,,0.00,0.00,VWS V14.01,2013-03-24 06:09:00,
2013-03-24 02:10:00,38.6,20.1,29.66,North,11,0.0,0.0,47,0.00,,,0.00,0.00,VWS V14.01,2013-03-24 06:10:00,
2013-03-24 02:11:00,38.8,20.3,29.66,North,0,0.0,0.0,47,0.00,,,0.00,0.00,VWS V14.01,2013-03-24 06:11:00,
2013-03-24 02:12:00,38.8,20.3,29.66,North,11,0.0,0.0,47,0.00,,,0.00,0.00,VWS V14.01,2013-03-24 06:12:00,
2013-03-24 02:13:00,38.8,20.3,29.66,North,0,0.0,0.0,47,0.00,,,0.00,0.00,VWS V14.01,2013-03-24 06:13:00,
2013-03-24 02:14:00,38.8,20.3,29.66,North,359,0.0,0.0,47,0.00,,,0.00,0.00,VWS V14.01,2013-03-24 06:14:00,
2013-03-24 02:15:00,38.6,20.6,29.67,North,0,0.0,0.0,48,0.00,,,0.00,0.00,VWS V14.01,2013-03-24 06:15:00,
2013-03-24 02:16:00,38.8,20.3,29.66,North,0,0.0,0.0,47,0.00,,,0.00,0.00,VWS V14.01,2013-03-24 06:16:00,
2013-03-24 02:17:00,38.5,20.5,29.67,North,0,0.0,0.0,48,0.00,,,0.00,0.00,VWS V14.01,2013-03-24 06:17:00,
2013-03-24 02:18:00,38.5,20.5,29.67,North,1,0.0,0.0,48,0.00,,,0.00,0.00,VWS V14.01,2013-03-24 06:18:00,
2013-03-24 02:19:00,38.5,20.5,29.67,North,3,0.0,0.0,48,0.00,,,0.00,0.00,VWS V14.01,2013-03-24 06:19:00,
2013-03-24 02:20:00,38.5,20.5,29.67,North,0,0.0,0.0,48,0.00,,,0.00,0.00,VWS V14.01,2013-03-24 06:20:00,
2013-03-24 02:21:00,38.6,20.6,29.67,North,0,0.0,0.0,48,0.00,,,0.00,0.00,VWS V14.01,2013-03-24 06:21:00,
2013-03-24 02:22:00,38.5,20.0,29.67,North,6,0.0,0.0,47,0.00,,,0.00,0.00,VWS V14.01,2013-03-24 06:22:00,
2013-03-24 02:23:00,38.5,20.0,29.67,North,10,0.0,0.0,47,0.00,,,0.00,0.00,VWS V14.01,2013-03-24 06:23:00,
2013-03-24 02:24:00,38.5,20.0,29.67,North,6,0.0,0.0,47,0.00,,,0.00,0.00,VWS V14.01,2013-03-24 06:24:00,
2013-03-24 02:25:00,38.6,20.1,29.67,North,0,0.0,0.0,47,0.00,,,0.00,0.00,VWS V14.01,2013-03-24 06:25:00,
2013-03-24 02:26:00,38.6,20.6,29.67,North,0,0.0,0.0,48,0.00,,,0.00,0.00,VWS V14.01,2013-03-24 06:26:00,
2013-03-24 02:27:00,38.5,20.0,29.67,North,6,0.0,0.0,47,0.00,,,0.00,0.00,VWS V14.01,2013-03-24 06:27:00,
2013-03-24 02:28:00,38.5,20.5,29.67,NNE,18,0.0,0.0,48,0.00,,,0.00,0.00,VWS V14.01,2013-03-24 06:28:00,
2013-03-24 02:29:00,38.5,20.5,29.67,North,4,0.0,0.0,48,0.00,,,0.00,0.00,VWS V14.01,2013-03-24 06:29:00,
2013-03-24 02:30:00,38.5,20.5,29.67,North,4,0.0,0.0,48,0.00,,,0.00,0.00,VWS V14.01,2013-03-24 06:30:00,
2013-03-24 02:31:00,38.5,20.5,29.67,North,4,0.0,0.0,48,0.00,,,0.00,0.00,VWS V14.01,2013-03-24 06:31:00,
2013-03-24 02:32:00,38.5,20.5,29.67,North,0,0.0,0.0,48,0.00,,,0.00,0.00,VWS V14.01,2013-03-24 06:32:00,
2013-03-24 02:33:00,38.5,20.5,29.67,North,0,0.0,0.0,48,0.00,,,0.00,0.00,VWS V14.01,2013-03-24 06:33:00,
2013-03-24 02:34:00,38.5,20.5,29.67,North,350,0.0,0.0,48,0.00,,,0.00,0.00,VWS V14.01,2013-03-24 06:34:00,
2013-03-24 02:35:00,38.5,20.5,29.67,North,354,0.0,0.0,48,0.00,,,0.00,0.00,VWS V14.01,2013-03-24 06:35:00,
2013-03-24 02:36:00,38.5,20.5,29.67,North,356,0.0,0.0,48,0.00,,,0.00,0.00,VWS V14.01,2013-03-24 06:36:00,
2013-03-24 02:37:00,38.5,20.5,29.67,North,0,0.0,0.0,48,0.00,,,0.00,0.00,VWS V14.01,2013-03-24 06:37:00,
2013-03-24 02:38:00,38.5,21.0,29.67,North,0,0.0,0.0,49,0.00,,,0.00,0.00,VWS V14.01,2013-03-24 06:38:00,
2013-03-24 02:39:00,38.5,21.0,29.67,North,356,0.0,0.0,49,0.00,,,0.00,0.00,VWS V14.01,2013-03-24 06:39:00,
2013-03-24 02:40:00,38.5,21.0,29.67,North,356,0.0,0.0,49,0.00,,,0.00,0.00,VWS V14.01,2013-03-24 06:40:00,
2013-03-24 02:41:00,38.5,21.0,29.67,North,350,0.0,0.0,49,0.00,,,0.00,0.00,VWS V14.01,2013-03-24 06:41:00,
2013-03-24 02:42:00,38.3,20.8,29.67,North,357,0.0,0.0,49,0.00,,,0.00,0.00,VWS V14.01,2013-03-24 06:42:00,
2013-03-24 02:43:00,38.5,21.0,29.67,North,0,0.0,0.0,49,0.00,,,0.00,0.00,VWS V14.01,2013-03-24 06:43:00,
2013-03-24 02:44:00,38.3,21.3,29.67,North,350,0.0,0.0,50,0.00,,,0.00,0.00,VWS V14.01,2013-03-24 06:44:00,
2013-03-24 02:45:00,38.3,21.3,29.67,North,0,0.0,0.0,50,0.00,,,0.00,0.00,VWS V14.01,2013-03-24 06:45:00,
2013-03-24 02:46:00,38.2,21.2,29.67,NNW,346,0.0,0.0,50,0.00,,,0.00,0.00,VWS V14.01,2013-03-24 06:46:00,
2013-03-24 02:47:00,38.2,21.2,29.67,North,354,0.0,0.0,50,0.00,,,0.00,0.00,VWS V14.01,2013-03-24 06:47:00,
2013-03-24 02:48:00,38.3,20.8,29.67,North,0,0.0,0.0,49,0.00,,,0.00,0.00,VWS V14.01,2013-03-24 06:48:00,
2013-03-24 02:49:00,38.0,21.0,29.67,North,353,0.0,0.0,50,0.00,,,0.00,0.00,VWS V14.01,2013-03-24 06:49:00,
2013-03-24 02:50:00,37.9,20.9,29.67,North,0,0.0,0.0,50,0.00,,,0.00,0.00,VWS V14.01,2013-03-24 06:50:00,
2013-03-24 02:51:00,37.9,20.9,29.67,North,0,0.0,0.0,50,0.00,,,0.00,0.00,VWS V14.01,2013-03-24 06:51:00,
2013-03-24 02:52:00,37.9,20.9,29.67,North,0,0.0,0.0,50,0.00,,,0.00,0.00,VWS V14.01,2013-03-24 06:52:00,
2013-03-24 02:53:00,37.9,20.9,29.67,North,357,0.0,0.0,50,0.00,,,0.00,0.00,VWS V14.01,2013-03-24 06:53:00,
2013-03-24 02:54:00,38.0,21.0,29.67,North,353,0.0,0.0,50,0.00,,,0.00,0.00,VWS V14.01,2013-03-24 06:54:00,
2013-03-24 02:55:00,37.8,20.8,29.67,North,356,0.0,0.0,50,0.00,,,0.00,0.00,VWS V14.01,2013-03-24 06:55:00,
2013-03-24 02:56:00,37.8,20.8,29.67,North,0,0.0,0.0,50,0.00,,,0.00,0.00,VWS V14.01,2013-03-24 06:56:00,
2013-03-24 02:57:00,37.6,20.7,29.67,ENE,59,0.0,0.0,50,0.00,,,0.00,0.00,VWS V14.01,2013-03-24 06:57:00,
2013-03-24 02:58:00,37.6,21.1,29.67,ENE,59,0.0,0.0,51,0.00,,,0.00,0.00,VWS V14.01,2013-03-24 06:58:00,
2013-03-24 02:59:00,37.6,21.1,29.68,ENE,59,0.0,0.0,51,0.00,,,0.00,0.00,VWS V14.01,2013-03-24 06:59:00,
2013-03-24 03:00:00,37.8,20.8,29.67,North,356,0.0,0.0,50,0.00,,,0.00,0.00,VWS V14.01,2013-03-24 07:00:00,
2013-03-24 03:01:00,37.5,21.0,29.68,ESE,116,0.0,0.0,51,0.00,,,0.00,0.00,VWS V14.01,2013-03-24 07:01:00,
2013-03-24 03:02:00,37.5,21.5,29.68,ESE,119,0.0,0.0,52,0.00,,,0.00,0.00,VWS V14.01,2013-03-24 07:02:00,
2013-03-24 03:03:00,37.5,21.5,29.68,SSE,150,0.0,0.0,52,0.00,,,0.00,0.00,VWS V14.01,2013-03-24 07:03:00,
2013-03-24 03:04:00,37.5,21.5,29.68,SSE,154,0.0,0.0,52,0.00,,,0.00,0.00,VWS V14.01,2013-03-24 07:04:00,
2013-03-24 03:05:00,37.6,21.1,29.68,ENE,59,0.0,0.0,51,0.00,,,0.00,0.00,VWS V14.01,2013-03-24 07:05:00,
2013-03-24 03:06:00,37.3,21.3,29.68,SE,145,0.0,0.0,52,0.00,,,0.00,0.00,VWS V14.01,2013-03-24 07:06:00,
2013-03-24 03:07:00,37.3,21.3,29.68,SE,136,0.0,0.0,52,0.00,,,0.00,0.00,VWS V14.01,2013-03-24 07:07:00,
2013-03-24 03:08:00,37.3,21.3,29.68,SE,138,0.0,0.0,52,0.00,,,0.00,0.00,VWS V14.01,2013-03-24 07:08:00,
2013-03-24 03:09:00,37.5,21.5,29.68,SE,138,0.0,0.0,52,0.00,,,0.00,0.00,VWS V14.01,2013-03-24 07:09:00,
2013-03-24 03:10:00,37.5,21.5,29.68,SE,134,0.0,0.0,52,0.00,,,0.00,0.00,VWS V14.01,2013-03-24 07:10:00,
2013-03-24 03:11:00,37.3,21.3,29.68,SE,145,0.0,0.0,52,0.00,,,0.00,0.00,VWS V14.01,2013-03-24 07:11:00,
2013-03-24 03:12:00,37.5,21.5,29.68,SE,136,0.0,0.0,52,0.00,,,0.00,0.00,VWS V14.01,2013-03-24 07:12:00,
2013-03-24 03:13:00,37.5,21.5,29.68,SE,136,0.0,0.0,52,0.00,,,0.00,0.00,VWS V14.01,2013-03-24 07:13:00,
2013-03-24 03:14:00,37.5,21.5,29.68,SE,136,0.0,0.0,52,0.00,,,0.00,0.00,VWS V14.01,2013-03-24 07:14:00,
2013-03-24 03:15:00,37.5,21.5,29.69,SE,136,0.0,0.0,52,0.00,,,0.00,0.00,VWS V14.01,2013-03-24 07:15:00,
2013-03-24 03:16:00,37.5,21.5,29.69,SE,136,0.0,0.0,52,0.00,,,0.00,0.00,VWS V14.01,2013-03-24 07:16:00,
2013-03-24 03:17:00,37.5,21.5,29.68,SE,136,0.0,0.0,52,0.00,,,0.00,0.00,VWS V14.01,2013-03-24 07:17:00,
2013-03-24 03:18:00,37.5,21.5,29.69,SE,136,0.0,0.0,52,0.00,,,0.00,0.00,VWS V14.01,2013-03-24 07:18:00,
2013-03-24 03:19:00,37.5,21.5,29.69,SE,136,0.0,0.0,52,0.00,,,0.00,0.00,VWS V14.01,2013-03-24 07:19:00,
2013-03-24 03:20:00,37.5,21.5,29.69,SE,137,0.0,0.0,52,0.00,,,0.00,0.00,VWS V14.01,2013-03-24 07:20:00,
2013-03-24 03:21:00,37.5,21.5,29.69,SE,136,0.0,0.0,52,0.00,,,0.00,0.00,VWS V14.01,2013-03-24 07:21:00,
2013-03-24 03:22:00,37.5,21.5,29.69,SE,136,0.0,0.0,52,0.00,,,0.00,0.00,VWS V14.01,2013-03-24 07:22:00,
2013-03-24 03:23:00,37.5,21.9,29.69,SE,136,0.0,0.0,53,0.00,,,0.00,0.00,VWS V14.01,2013-03-24 07:23:00,
2013-03-24 03:24:00,37.5,21.9,29.69,SE,136,0.0,0.0,53,0.00,,,0.00,0.00,VWS V14.01,2013-03-24 07:24:00,
2013-03-24 03:25:00,37.5,21.9,29.69,SE,136,0.0,0.0,53,0.00,,,0.00,0.00,VWS V14.01,2013-03-24 07:25:00,
2013-03-24 03:26:00,37.5,21.9,29.69,SE,137,0.0,0.0,53,0.00,,,0.00,0.00,VWS V14.01,2013-03-24 07:26:00,
2013-03-24 03:27:00,37.5,21.9,29.69,SE,136,0.0,0.0,53,0.00,,,0.00,0.00,VWS V14.01,2013-03-24 07:27:00,
2013-03-24 03:28:00,37.5,21.9,29.69,SE,136,0.0,0.0,53,0.00,,,0.00,0.00,VWS V14.01,2013-03-24 07:28:00,
2013-03-24 03:29:00,37.5,21.9,29.69,SE,136,0.0,0.0,53,0.00,,,0.00,0.00,VWS V14.01,2013-03-24 07:29:00,
2013-03-24 03:30:00,37.5,21.9,29.70,SE,137,0.0,0.0,53,0.00,,,0.00,0.00,VWS V14.01,2013-03-24 07:30:00,
2013-03-24 03:31:00,37.5,21.9,29.70,SE,136,0.0,0.0,53,0.00,,,0.00,0.00,VWS V14.01,2013-03-24 07:31:00,
2013-03-24 03:32:00,37.5,21.9,29.70,SE,136,0.0,0.0,53,0.00,,,0.00,0.00,VWS V14.01,2013-03-24 07:32:00,
2013-03-24 03:33:00,37.5,21.9,29.69,SE,136,0.0,0.0,53,0.00,,,0.00,0.00,VWS V14.01,2013-03-24 07:33:00,
2013-03-24 03:34:00,37.5,21.9,29.70,SE,136,0.0,0.0,53,0.00,,,0.00,0.00,VWS V14.01,2013-03-24 07:34:00,
2013-03-24 03:35:00,37.5,21.9,29.70,SE,136,0.0,0.0,53,0.00,,,0.00,0.00,VWS V14.01,2013-03-24 07:35:00,
2013-03-24 03:36:00,37.5,21.9,29.70,SE,136,0.0,0.0,53,0.00,,,0.00,0.00,VWS V14.01,2013-03-24 07:36:00,
2013-03-24 03:37:00,37.5,21.9,29.70,SE,136,0.0,0.0,53,0.00,,,0.00,0.00,VWS V14.01,2013-03-24 07:37:00,
2013-03-24 03:38:00,37.5,21.9,29.70,SE,136,0.0,0.0,53,0.00,,,0.00,0.00,VWS V14.01,2013-03-24 07:38:00,
2013-03-24 03:39:00,37.5,21.9,29.70,SE,136,0.0,0.0,53,0.00,,,0.00,0.00,VWS V14.01,2013-03-24 07:39:00,
2013-03-24 03:40:00,37.5,21.9,29.70,SE,136,0.0,0.0,53,0.00,,,0.00,0.00,VWS V14.01,2013-03-24 07:40:00,
2013-03-24 03:41:00,37.5,21.9,29.70,SE,136,0.0,0.0,53,0.00,,,0.00,0.00,VWS V14.01,2013-03-24 07:41:00,
2013-03-24 03:42:00,37.5,22.4,29.70,SE,137,0.0,0.0,54,0.00,,,0.00,0.00,VWS V14.01,2013-03-24 07:42:00,
2013-03-24 03:43:00,37.5,21.9,29.70,SE,136,0.0,0.0,53,0.00,,,0.00,0.00,VWS V14.01,2013-03-24 07:43:00,
2013-03-24 03:44:00,37.5,22.8,29.70,SE,136,0.0,0.0,55,0.00,,,0.00,0.00,VWS V14.01,2013-03-24 07:44:00,
2013-03-24 03:45:00,37.3,22.6,29.69,SE,136,0.0,0.0,55,0.00,,,0.00,0.00,VWS V14.01,2013-03-24 07:45:00,
2013-03-24 03:46:00,37.3,23.1,29.69,SE,136,0.0,0.0,56,0.00,,,0.00,0.00,VWS V14.01,2013-03-24 07:46:00,
2013-03-24 03:47:00,37.2,23.0,29.69,SE,137,0.0,0.0,56,0.00,,,0.00,0.00,VWS V14.01,2013-03-24 07:47:00,
2013-03-24 03:48:00,37.5,22.4,29.70,SE,136,0.0,0.0,54,0.00,,,0.00,0.00,VWS V14.01,2013-03-24 07:48:00,
2013-03-24 03:49:00,37.0,22.8,29.69,SE,136,0.0,0.0,56,0.00,,,0.00,0.00,VWS V14.01,2013-03-24 07:49:00,
2013-03-24 03:50:00,37.0,22.8,29.69,SE,136,0.0,0.0,56,0.00,,,0.00,0.00,VWS V14.01,2013-03-24 07:50:00,
2013-03-24 03:51:00,37.0,22.8,29.69,SE,136,0.0,0.0,56,0.00,,,0.00,0.00,VWS V14.01,2013-03-24 07:51:00,
2013-03-24 03:52:00,36.9,22.7,29.69,SE,136,0.0,0.0,56,0.00,,,0.00,0.00,VWS V14.01,2013-03-24 07:52:00,
2013-03-24 03:53:00,36.9,22.7,29.69,SE,136,0.0,0.0,56,0.00,,,0.00,0.00,VWS V14.01,2013-03-24 07:53:00,
2013-03-24 03:54:00,37.0,22.8,29.69,SE,136,0.0,0.0,56,0.00,,,0.00,0.00,VWS V14.01,2013-03-24 07:54:00,
2013-03-24 03:55:00,36.8,22.6,29.69,SE,136,0.0,0.0,56,0.00,,,0.00,0.00,VWS V14.01,2013-03-24 07:55:00,
2013-03-24 03:56:00,36.8,22.6,29.69,SE,136,0.0,0.0,56,0.00,,,0.00,0.00,VWS V14.01,2013-03-24 07:56:00,
2013-03-24 03:57:00,36.6,22.8,29.69,SE,136,0.0,0.0,57,0.00,,,0.00,0.00,VWS V14.01,2013-03-24 07:57:00,
2013-03-24 03:58:00,36.5,22.7,29.69,SE,136,0.0,0.0,57,0.00,,,0.00,0.00,VWS V14.01,2013-03-24 07:58:00,
2013-03-24 03:59:00,36.5,22.7,29.69,SE,137,0.0,0.0,57,0.00,,,0.00,0.00,VWS V14.01,2013-03-24 07:59:00,
2013-03-24 04:00:00,36.8,22.6,29.69,SE,136,0.0,0.0,56,0.00,,,0.00,0.00,VWS V14.01,2013-03-24 08:00:00,
2013-03-24 04:01:00,36.3,22.5,29.67,SE,136,0.0,0.0,57,0.00,,,0.00,0.00,VWS V14.01,2013-03-24 08:01:00,
2013-03-24 04:02:00,36.3,23.0,29.67,SE,136,0.0,0.0,58,0.00,,,0.00,0.00,VWS V14.01,2013-03-24 08:02:00,
2013-03-24 04:03:00,36.3,22.5,29.67,SE,136,0.0,0.0,57,0.00,,,0.00,0.00,VWS V14.01,2013-03-24 08:03:00,
2013-03-24 04:04:00,36.2,22.5,29.67,SE,136,0.0,0.0,57,0.00,,,0.00,0.00,VWS V14.01,2013-03-24 08:04:00,
2013-03-24 04:05:00,36.2,22.5,29.67,SE,136,0.0,0.0,57,0.00,,,0.00,0.00,VWS V14.01,2013-03-24 08:05:00,
2013-03-24 04:06:00,36.2,22.5,29.67,North,0,0.0,0.0,57,0.00,,,0.00,0.00,VWS V14.01,2013-03-24 08:06:00,
2013-03-24 04:07:00,36.3,23.0,29.67,SE,136,0.0,0.0,58,0.00,,,0.00,0.00,VWS V14.01,2013-03-24 08:07:00,
2013-03-24 04:08:00,36.0,22.3,29.67,North,0,0.0,0.0,57,0.00,,,0.00,0.00,VWS V14.01,2013-03-24 08:08:00,
2013-03-24 04:09:00,36.0,22.3,29.67,North,0,0.0,0.0,57,0.00,,,0.00,0.00,VWS V14.01,2013-03-24 08:09:00,
2013-03-24 04:10:00,35.9,22.6,29.67,North,0,0.0,0.0,58,0.00,,,0.00,0.00,VWS V14.01,2013-03-24 08:10:00,
2013-03-24 04:11:00,35.9,23.0,29.67,North,0,0.0,0.0,59,0.00,,,0.00,0.00,VWS V14.01,2013-03-24 08:11:00,
2013-03-24 04:12:00,36.0,22.3,29.67,North,0,0.0,0.0,57,0.00,,,0.00,0.00,VWS V14.01,2013-03-24 08:12:00,
2013-03-24 04:13:00,35.8,22.5,29.67,North,0,0.0,0.0,58,0.00,,,0.00,0.00,VWS V14.01,2013-03-24 08:13:00,
2013-03-24 04:14:00,35.8,22.5,29.67,North,6,0.0,0.0,58,0.00,,,0.00,0.00,VWS V14.01,2013-03-24 08:14:00,
2013-03-24 04:15:00,35.8,22.1,29.65,North,0,0.0,0.0,57,0.00,,,0.00,0.00,VWS V14.01,2013-03-24 08:15:00,
2013-03-24 04:16:00,35.8,22.1,29.65,NE,51,0.0,0.0,57,0.00,,,0.00,0.00,VWS V14.01,2013-03-24 08:16:00,
2013-03-24 04:17:00,35.8,22.9,29.67,North,0,0.0,0.0,59,0.00,,,0.00,0.00,VWS V14.01,2013-03-24 08:17:00,
2013-03-24 04:18:00,35.9,21.8,29.65,North,8,0.0,0.0,56,0.00,,,0.00,0.00,VWS V14.01,2013-03-24 08:18:00,
2013-03-24 04:19:00,36.0,21.4,29.65,North,0,0.0,0.0,55,0.00,,,0.00,0.00,VWS V14.01,2013-03-24 08:19:00,
2013-03-24 04:20:00,36.0,21.4,29.65,NNE,14,0.0,0.0,55,0.00,,,0.00,0.00,VWS V14.01,2013-03-24 08:20:00,
2013-03-24 04:21:00,36.2,21.2,29.65,NE,40,0.0,0.0,54,0.00,,,0.00,0.00,VWS V14.01,2013-03-24 08:21:00,
2013-03-24 04:22:00,35.9,21.8,29.65,North,8,0.0,0.0,56,0.00,,,0.00,0.00,VWS V14.01,2013-03-24 08:22:00,
2013-03-24 04:23:00,36.5,21.5,29.65,North,3,0.0,0.0,54,0.00,,,0.00,0.00,VWS V14.01,2013-03-24 08:23:00,
2013-03-24 04:24:00,36.5,21.5,29.65,NNE,27,0.0,0.0,54,0.00,,,0.00,0.00,VWS V14.01,2013-03-24 08:24:00,
2013-03-24 04:25:00,36.6,21.1,29.65,North,0,0.0,0.0,53,0.00,,,0.00,0.00,VWS V14.01,2013-03-24 08:25:00,
2013-03-24 04:26:00,36.8,21.3,29.65,North,0,0.0,0.0,53,0.00,,,0.00,0.00,VWS V14.01,2013-03-24 08:26:00,
2013-03-24 04:27:00,36.9,20.9,29.65,North,4,0.0,0.0,52,0.00,,,0.00,0.00,VWS V14.01,2013-03-24 08:27:00,
2013-03-24 04:28:00,36.5,21.5,29.65,North,3,0.0,0.0,54,0.00,,,0.00,0.00,VWS V14.01,2013-03-24 08:28:00,
2013-03-24 04:29:00,37.0,21.0,29.65,NNE,25,0.0,0.0,52,0.00,,,0.00,0.00,VWS V14.01,2013-03-24 08:29:00,
2013-03-24 04:30:00,37.2,21.2,29.64,NNE,30,0.0,0.0,52,0.00,,,0.00,0.00,VWS V14.01,2013-03-24 08:30:00,
2013-03-24 04:31:00,37.2,21.2,29.64,NNE,30,0.0,0.0,52,0.00,,,0.00,0.00,VWS V14.01,2013-03-24 08:31:00,
2013-03-24 04:32:00,37.3,20.9,29.64,NE,35,0.0,0.0,51,0.00,,,0.00,0.00,VWS V14.01,2013-03-24 08:32:00,
2013-03-24 04:33:00,37.3,20.9,29.64,North,8,0.0,0.0,51,0.00,,,0.00,0.00,VWS V14.01,2013-03-24 08:33:00,
2013-03-24 04:34:00,37.0,21.0,29.65,NNE,25,0.0,0.0,52,0.00,,,0.00,0.00,VWS V14.01,2013-03-24 08:34:00,
2013-03-24 04:35:00,37.5,21.0,29.64,NE,38,0.0,0.0,51,0.00,,,0.00,0.00,VWS V14.01,2013-03-24 08:35:00,
2013-03-24 04:36:00,37.5,20.6,29.64,NNE,32,0.0,0.0,50,0.00,,,0.00,0.00,VWS V14.01,2013-03-24 08:36:00,
2013-03-24 04:37:00,37.6,20.7,29.64,North,6,0.0,0.0,50,0.00,,,0.00,0.00,VWS V14.01,2013-03-24 08:37:00,
2013-03-24 04:38:00,37.6,20.7,29.64,North,0,0.0,0.0,50,0.00,,,0.00,0.00,VWS V14.01,2013-03-24 08:38:00,
2013-03-24 04:39:00,37.6,20.7,29.64,NNE,21,0.0,0.0,50,0.00,,,0.00,0.00,VWS V14.01,2013-03-24 08:39:00,
2013-03-24 04:40:00,37.5,21.0,29.64,NE,38,0.0,0.0,51,0.00,,,0.00,0.00,VWS V14.01,2013-03-24 08:40:00,
2013-03-24 04:41:00,37.8,20.8,29.64,NE,45,0.0,0.0,50,0.00,,,0.00,0.00,VWS V14.01,2013-03-24 08:41:00,
2013-03-24 04:42:00,37.8,20.4,29.64,North,0,0.0,0.0,49,0.00,,,0.00,0.00,VWS V14.01,2013-03-24 08:42:00,
2013-03-24 04:43:00,37.9,20.5,29.64,North,7,0.0,0.0,49,0.00,,,0.00,0.00,VWS V14.01,2013-03-24 08:43:00,
2013-03-24 04:44:00,37.9,20.5,29.64,NNE,20,0.0,0.0,49,0.00,,,0.00,0.00,VWS V14.01,2013-03-24 08:44:00,
2013-03-24 04:45:00,37.8,20.8,29.64,North,4,0.0,0.0,50,0.00,,,0.00,0.00,VWS V14.01,2013-03-24 08:45:00,
2013-03-24 04:46:00,37.9,20.5,29.62,NNE,24,0.0,0.0,49,0.00,,,0.00,0.00,VWS V14.01,2013-03-24 08:46:00,
2013-03-24 04:47:00,37.9,20.5,29.62,North,0,0.0,0.0,49,0.00,,,0.00,0.00,VWS V14.01,2013-03-24 08:47:00,
2013-03-24 04:48:00,38.0,20.5,29.62,NE,42,0.0,0.0,49,0.00,,,0.00,0.00,VWS V14.01,2013-03-24 08:48:00,
2013-03-24 04:49:00,38.0,20.5,29.62,North,10,0.0,0.0,49,0.00,,,0.00,0.00,VWS V14.01,2013-03-24 08:49:00,
2013-03-24 04:50:00,37.9,20.5,29.62,North,11,0.0,0.0,49,0.00,,,0.00,0.00,VWS V14.01,2013-03-24 08:50:00,
2013-03-24 04:51:00,38.0,20.5,29.62,NNE,24,0.0,0.0,49,0.00,,,0.00,0.00,VWS V14.01,2013-03-24 08:51:00,
2013-03-24 04:52:00,38.0,20.5,29.62,North,7,0.0,0.0,49,0.00,,,0.00,0.00,VWS V14.01,2013-03-24 08:52:00,
2013-03-24 04:53:00,38.0,20.5,29.62,North,0,0.0,0.0,49,0.00,,,0.00,0.00,VWS V14.01,2013-03-24 08:53:00,
2013-03-24 04:54:00,38.0,20.1,29.62,North,0,0.0,0.0,48,0.00,,,0.00,0.00,VWS V14.01,2013-03-24 08:54:00,
2013-03-24 04:55:00,38.0,20.1,29.62,North,8,0.0,0.0,48,0.00,,,0.00,0.00,VWS V14.01,2013-03-24 08:55:00,
2013-03-24 04:56:00,38.0,20.1,29.62,NNE,13,0.0,0.0,48,0.00,,,0.00,0.00,VWS V14.01,2013-03-24 08:56:00,
2013-03-24 04:57:00,38.0,20.1,29.62,North,0,0.0,0.0,48,0.00,,,0.00,0.00,VWS V14.01,2013-03-24 08:57:00,
2013-03-24 04:58:00,38.0,20.1,29.62,North,0,0.0,0.0,48,0.00,,,0.00,0.00,VWS V14.01,2013-03-24 08:58:00,
2013-03-24 04:59:00,38.0,20.1,29.62,North,8,0.0,0.0,48,0.00,,,0.00,0.00,VWS V14.01,2013-03-24 08:59:00,
2013-03-24 05:00:00,38.0,20.1,29.61,NNE,16,0.0,0.0,48,0.00,,,0.00,0.00,VWS V14.01,2013-03-24 09:00:00,
2013-03-24 05:01:00,38.0,20.1,29.61,NNE,25,0.0,0.0,48,0.00,,,0.00,0.00,VWS V14.01,2013-03-24 09:01:00,
2013-03-24 05:02:00,38.0,20.1,29.61,NNE,28,0.0,0.0,48,0.00,,,0.00,0.00,VWS V14.01,2013-03-24 09:02:00,
2013-03-24 05:03:00,38.0,20.1,29.62,North,0,0.0,0.0,48,0.00,,,0.00,0.00,VWS V14.01,2013-03-24 09:03:00,
2013-03-24 05:04:00,38.0,20.1,29.61,North,10,0.0,0.0,48,0.00,,,0.00,0.00,VWS V14.01,2013-03-24 09:04:00,
2013-03-24 05:05:00,38.0,20.1,29.61,North,4,0.0,0.0,48,0.00,,,0.00,0.00,VWS V14.01,2013-03-24 09:05:00,
2013-03-24 05:06:00,38.0,20.1,29.61,North,353,0.0,0.0,48,0.00,,,0.00,0.00,VWS V14.01,2013-03-24 09:06:00,
2013-03-24 05:07:00,38.0,20.1,29.61,North,0,0.0,0.0,48,0.00,,,0.00,0.00,VWS V14.01,2013-03-24 09:07:00,
2013-03-24 05:08:00,38.0,20.1,29.61,NNE,17,0.0,0.0,48,0.00,,,0.00,0.00,VWS V14.01,2013-03-24 09:08:00,
2013-03-24 05:09:00,38.0,20.1,29.61,North,10,0.0,0.0,48,0.00,,,0.00,0.00,VWS V14.01,2013-03-24 09:09:00,
2013-03-24 05:10:00,38.0,19.6,29.61,North,359,0.0,0.0,47,0.00,,,0.00,0.00,VWS V14.01,2013-03-24 09:10:00,
2013-03-24 05:11:00,38.0,19.6,29.61,NNE,17,0.0,0.0,47,0.00,,,0.00,0.00,VWS V14.01,2013-03-24 09:11:00,
2013-03-24 05:12:00,38.0,19.6,29.61,North,11,0.0,0.0,47,0.00,,,0.00,0.00,VWS V14.01,2013-03-24 09:12:00,
2013-03-24 05:13:00,38.0,19.6,29.61,NNE,21,0.0,0.0,47,0.00,,,0.00,0.00,VWS V14.01,2013-03-24 09:13:00,
2013-03-24 05:14:00,38.0,19.6,29.61,NNE,13,0.0,0.0,47,0.00,,,0.00,0.00,VWS V14.01,2013-03-24 09:14:00,
2013-03-24 05:15:00,38.0,19.6,29.61,North,359,0.0,0.0,47,0.00,,,0.00,0.00,VWS V14.01,2013-03-24 09:15:00,
2013-03-24 05:16:00,38.0,19.6,29.60,NNE,23,0.0,0.0,47,0.00,,,0.00,0.00,VWS V14.01,2013-03-24 09:16:00,
2013-03-24 05:17:00,38.0,20.1,29.60,ENE,64,0.0,0.0,48,0.00,,,0.00,0.00,VWS V14.01,2013-03-24 09:17:00,
2013-03-24 05:18:00,38.0,20.1,29.60,North,0,0.0,0.0,48,0.00,,,0.00,0.00,VWS V14.01,2013-03-24 09:18:00,
2013-03-24 05:19:00,38.0,20.1,29.60,North,0,0.0,0.0,48,0.00,,,0.00,0.00,VWS V14.01,2013-03-24 09:19:00,
2013-03-24 05:20:00,38.0,20.1,29.60,North,10,0.0,0.0,48,0.00,,,0.00,0.00,VWS V14.01,2013-03-24 09:20:00,
2013-03-24 05:21:00,38.0,19.6,29.60,NNE,23,0.0,0.0,47,0.00,,,0.00,0.00,VWS V14.01,2013-03-24 09:21:00,
2013-03-24 05:22:00,38.0,20.1,29.60,North,8,0.0,0.0,48,0.00,,,0.00,0.00,VWS V14.01,2013-03-24 09:22:00,
2013-03-24 05:23:00,38.0,20.1,29.60,NE,34,0.0,0.0,48,0.00,,,0.00,0.00,VWS V14.01,2013-03-24 09:23:00,
2013-03-24 05:24:00,37.9,20.0,29.60,North,0,0.0,0.0,48,0.00,,,0.00,0.00,VWS V14.01,2013-03-24 09:24:00,
2013-03-24 05:25:00,37.9,20.0,29.60,North,11,0.0,0.0,48,0.00,,,0.00,0.00,VWS V14.01,2013-03-24 09:25:00,
2013-03-24 05:26:00,37.9,20.5,29.60,North,10,0.0,0.0,49,0.00,,,0.00,0.00,VWS V14.01,2013-03-24 09:26:00,
2013-03-24 05:27:00,38.0,20.1,29.60,North,8,0.0,0.0,48,0.00,,,0.00,0.00,VWS V14.01,2013-03-24 09:27:00,
2013-03-24 05:28:00,37.9,20.5,29.60,NNE,14,0.0,0.0,49,0.00,,,0.00,0.00,VWS V14.01,2013-03-24 09:28:00,
2013-03-24 05:29:00,37.9,20.5,29.60,North,11,0.0,0.0,49,0.00,,,0.00,0.00,VWS V14.01,2013-03-24 09:29:00,
2013-03-24 05:30:00,37.8,20.4,29.60,NNE,32,0.0,0.0,49,0.00,,,0.00,0.00,VWS V14.01,2013-03-24 09:30:00,
2013-03-24 05:31:00,37.8,20.4,29.60,North,0,0.0,0.0,49,0.00,,,0.00,0.00,VWS V14.01,2013-03-24 09:31:00,
2013-03-24 05:32:00,37.8,20.4,29.60,North,0,0.0,0.0,49,0.00,,,0.00,0.00,VWS V14.01,2013-03-24 09:32:00,
2013-03-24 05:33:00,37.9,20.5,29.60,NNE,14,0.0,0.0,49,0.00,,,0.00,0.00,VWS V14.01,2013-03-24 09:33:00,
2013-03-24 05:34:00,37.8,20.4,29.60,NNE,20,0.0,0.0,49,0.00,,,0.00,0.00,VWS V14.01,2013-03-24 09:34:00,
2013-03-24 05:35:00,37.8,20.4,29.60,North,359,0.0,0.0,49,0.00,,,0.00,0.00,VWS V14.01,2013-03-24 09:35:00,
2013-03-24 05:36:00,37.8,20.4,29.60,NE,37,0.0,0.0,49,0.00,,,0.00,0.00,VWS V14.01,2013-03-24 09:36:00,
2013-03-24 05:37:00,37.8,20.4,29.60,North,6,0.0,0.0,49,0.00,,,0.00,0.00,VWS V14.01,2013-03-24 09:37:00,
2013-03-24 05:38:00,37.8,20.4,29.60,North,0,0.0,0.0,49,0.00,,,0.00,0.00,VWS V14.01,2013-03-24 09:38:00,
2013-03-24 05:39:00,37.8,20.4,29.60,North,356,0.0,0.0,49,0.00,,,0.00,0.00,VWS V14.01,2013-03-24 09:39:00,
2013-03-24 05:40:00,37.8,20.8,29.60,NNE,18,0.0,0.0,50,0.00,,,0.00,0.00,VWS V14.01,2013-03-24 09:40:00,
2013-03-24 05:41:00,37.6,20.7,29.60,North,0,0.0,0.0,50,0.00,,,0.00,0.00,VWS V14.01,2013-03-24 09:41:00,
2013-03-24 05:42:00,37.6,20.7,29.60,NE,42,0.0,0.0,50,0.00,,,0.00,0.00,VWS V14.01,2013-03-24 09:42:00,
2013-03-24 05:43:00,37.6,20.7,29.60,North,8,0.0,0.0,50,0.00,,,0.00,0.00,VWS V14.01,2013-03-24 09:43:00,
2013-03-24 05:44:00,37.8,20.4,29.60,North,356,0.0,0.0,49,0.00,,,0.00,0.00,VWS V14.01,2013-03-24 09:44:00,
2013-03-24 05:45:00,37.6,20.7,29.60,NNE,25,0.0,0.0,50,0.00,,,0.00,0.00,VWS V14.01,2013-03-24 09:45:00,
2013-03-24 05:46:00,37.6,20.7,29.60,North,3,0.0,0.0,50,0.00,,,0.00,0.00,VWS V14.01,2013-03-24 09:46:00,
2013-03-24 05:47:00,37.6,20.7,29.60,NNE,23,0.0,0.0,50,0.00,,,0.00,0.00,VWS V14.01,2013-03-24 09:47:00,
2013-03-24 05:48:00,37.6,20.7,29.60,North,6,0.0,0.0,50,0.00,,,0.00,0.00,VWS V14.01,2013-03-24 09:48:00,
2013-03-24 05:49:00,37.6,20.7,29.60,North,0,0.0,0.0,50,0.00,,,0.00,0.00,VWS V14.01,2013-03-24 09:49:00,
2013-03-24 05:50:00,37.5,20.6,29.60,North,356,0.0,0.0,50,0.00,,,0.00,0.00,VWS V14.01,2013-03-24 09:50:00,
2013-03-24 05:51:00,37.5,20.6,29.60,North,4,0.0,0.0,50,0.00,,,0.00,0.00,VWS V14.01,2013-03-24 09:51:00,
2013-03-24 05:52:00,37.5,20.6,29.60,NNE,18,0.0,0.0,50,0.00,,,0.00,0.00,VWS V14.01,2013-03-24 09:52:00,
2013-03-24 05:53:00,37.5,20.6,29.60,NNE,23,0.0,0.0,50,0.00,,,0.00,0.00,VWS V14.01,2013-03-24 09:53:00,
2013-03-24 05:54:00,37.5,20.6,29.60,North,0,0.0,0.0,50,0.00,,,0.00,0.00,VWS V14.01,2013-03-24 09:54:00,
2013-03-24 05:55:00,37.5,20.6,29.60,North,356,0.0,0.0,50,0.00,,,0.00,0.00,VWS V14.01,2013-03-24 09:55:00,
2013-03-24 05:56:00,37.5,20.6,29.60,North,4,0.0,0.0,50,0.00,,,0.00,0.00,VWS V14.01,2013-03-24 09:56:00,
2013-03-24 05:57:00,37.5,20.6,29.60,NNW,344,0.0,0.0,50,0.00,,,0.00,0.00,VWS V14.01,2013-03-24 09:57:00,
2013-03-24 05:58:00,37.5,20.6,29.60,North,11,0.0,0.0,50,0.00,,,0.00,0.00,VWS V14.01,2013-03-24 09:58:00,
2013-03-24 05:59:00,37.3,20.4,29.60,NNE,16,0.0,0.0,50,0.00,,,0.00,0.00,VWS V14.01,2013-03-24 09:59:00,
2013-03-24 06:00:00,37.5,20.6,29.60,NNE,16,0.0,0.0,50,0.00,,,0.00,0.00,VWS V14.01,2013-03-24 10:00:00,
2013-03-24 06:01:00,37.3,20.4,29.60,NNE,17,0.0,0.0,50,0.00,,,0.00,0.00,VWS V14.01,2013-03-24 10:01:00,
2013-03-24 06:02:00,37.3,20.4,29.60,NNE,13,0.0,0.0,50,0.00,,,0.00,0.00,VWS V14.01,2013-03-24 10:02:00,
2013-03-24 06:03:00,37.3,20.4,29.60,NNE,23,0.0,0.0,50,0.00,,,0.00,0.00,VWS V14.01,2013-03-24 10:03:00,
2013-03-24 06:04:00,37.3,20.9,29.60,NNE,28,0.0,0.0,51,0.00,,,0.00,0.00,VWS V14.01,2013-03-24 10:04:00,
2013-03-24 06:05:00,37.3,20.9,29.60,North,7,0.0,0.0,51,0.00,,,0.00,0.00,VWS V14.01,2013-03-24 10:05:00,
2013-03-24 06:06:00,37.3,20.4,29.60,NNE,17,0.0,0.0,50,0.00,,,0.00,0.00,VWS V14.01,2013-03-24 10:06:00,
2013-03-24 06:07:00,37.2,20.8,29.60,North,356,0.0,0.0,51,0.00,,,0.00,0.00,VWS V14.01,2013-03-24 10:07:00,
2013-03-24 06:08:00,37.2,20.8,29.60,North,0,0.0,0.0,51,0.00,,,0.00,0.00,VWS V14.01,2013-03-24 10:08:00,
2013-03-24 06:09:00,37.2,20.8,29.60,North,349,0.0,0.0,51,0.00,,,0.00,0.00,VWS V14.01,2013-03-24 10:09:00,
2013-03-24 06:10:00,37.2,20.8,29.60,NNE,23,0.0,0.0,51,0.00,,,0.00,0.00,VWS V14.01,2013-03-24 10:10:00,
2013-03-24 06:11:00,37.2,20.8,29.60,North,8,0.0,0.0,51,0.00,,,0.00,0.00,VWS V14.01,2013-03-24 10:11:00,
2013-03-24 06:12:00,37.2,20.8,29.60,North,7,0.0,0.0,51,0.00,,,0.00,0.00,VWS V14.01,2013-03-24 10:12:00,
2013-03-24 06:13:00,37.2,20.8,29.60,NNE,17,0.0,0.0,51,0.00,,,0.00,0.00,VWS V14.01,2013-03-24 10:13:00,
2013-03-24 06:14:00,37.2,20.8,29.60,North,0,0.0,0.0,51,0.00,,,0.00,0.00,VWS V14.01,2013-03-24 10:14:00,
2013-03-24 06:15:00,37.0,20.6,29.60,North,11,0.0,0.0,51,0.00,,,0.00,0.00,VWS V14.01,2013-03-24 10:15:00,
2013-03-24 06:16:00,37.0,21.0,29.60,North,0,0.0,0.0,52,0.00,,,0.00,0.00,VWS V14.01,2013-03-24 10:16:00,
2013-03-24 06:17:00,37.2,20.8,29.60,North,7,0.0,0.0,51,0.00,,,0.00,0.00,VWS V14.01,2013-03-24 10:17:00,
2013-03-24 06:18:00,37.0,21.0,29.60,NNE,17,0.0,0.0,52,0.00,,,0.00,0.00,VWS V14.01,2013-03-24 10:18:00,
2013-03-24 06:19:00,37.0,21.0,29.60,North,356,0.0,0.0,52,0.00,,,0.00,0.00,VWS V14.01,2013-03-24 10:19:00,
2013-03-24 06:20:00,37.0,21.0,29.60,NNW,342,0.0,0.0,52,0.00,,,0.00,0.00,VWS V14.01,2013-03-24 10:20:00,
2013-03-24 06:21:00,37.0,21.0,29.60,NNE,28,0.0,0.0,52,0.00,,,0.00,0.00,VWS V14.01,2013-03-24 10:21:00,
2013-03-24 06:22:00,37.0,21.0,29.60,North,356,0.0,0.0,52,0.00,,,0.00,0.00,VWS V14.01,2013-03-24 10:22:00,
2013-03-24 06:23:00,37.0,21.0,29.60,North,1,0.0,0.0,52,0.00,,,0.00,0.00,VWS V14.01,2013-03-24 10:23:00,
2013-03-24 06:24:00,37.0,21.0,29.60,NNE,20,0.0,0.0,52,0.00,,,0.00,0.00,VWS V14.01,2013-03-24 10:24:00,
2013-03-24 06:25:00,37.0,21.0,29.60,North,0,0.0,0.0,52,0.00,,,0.00,0.00,VWS V14.01,2013-03-24 10:25:00,
2013-03-24 06:26:00,37.0,21.0,29.60,NNE,27,0.0,0.0,52,0.00,,,0.00,0.00,VWS V14.01,2013-03-24 10:26:00,
2013-03-24 06:27:00,37.0,21.0,29.60,North,7,0.0,0.0,52,0.00,,,0.00,0.00,VWS V14.01,2013-03-24 10:27:00,
2013-03-24 06:28:00,37.0,21.0,29.60,North,1,0.0,0.0,52,0.00,,,0.00,0.00,VWS V14.01,2013-03-24 10:28:00,
2013-03-24 06:29:00,36.9,20.9,29.60,North,0,0.0,0.0,52,0.00,,,0.00,0.00,VWS V14.01,2013-03-24 10:29:00,
2013-03-24 06:30:00,36.9,20.9,29.61,North,0,0.0,0.0,52,0.00,,,0.00,0.00,VWS V14.01,2013-03-24 10:30:00,
2013-03-24 06:31:00,36.9,20.9,29.61,NNW,344,0.0,0.0,52,0.00,,,0.00,0.00,VWS V14.01,2013-03-24 10:31:00,
2013-03-24 06:32:00,36.9,20.9,29.61,NE,45,0.0,0.0,52,0.00,,,0.00,0.00,VWS V14.01,2013-03-24 10:32:00,
2013-03-24 06:33:00,36.9,20.9,29.60,North,0,0.0,0.0,52,0.00,,,0.00,0.00,VWS V14.01,2013-03-24 10:33:00,
2013-03-24 06:34:00,36.9,20.9,29.61,NNE,31,0.0,0.0,52,0.00,,,0.00,0.00,VWS V14.01,2013-03-24 10:34:00,
2013-03-24 06:35:00,36.9,20.9,29.61,NNE,24,0.0,0.0,52,0.00,,,0.00,0.00,VWS V14.01,2013-03-24 10:35:00,
2013-03-24 06:36:00,36.9,20.9,29.61,North,8,0.0,0.0,52,0.00,,,0.00,0.00,VWS V14.01,2013-03-24 10:36:00,
2013-03-24 06:37:00,36.9,20.9,29.61,NNE,23,0.0,0.0,52,0.00,,,0.00,0.00,VWS V14.01,2013-03-24 10:37:00,
2013-03-24 06:38:00,36.9,20.9,29.61,NNE,16,0.0,0.0,52,0.00,,,0.00,0.00,VWS V14.01,2013-03-24 10:38:00,
2013-03-24 06:39:00,36.9,21.4,29.61,NNE,14,0.0,0.0,53,0.00,,,0.00,0.00,VWS V14.01,2013-03-24 10:39:00,
2013-03-24 06:40:00,36.9,20.9,29.61,NE,47,0.0,0.0,52,0.00,,,0.00,0.00,VWS V14.01,2013-03-24 10:40:00,
2013-03-24 06:41:00,36.9,20.9,29.61,North,0,0.0,0.0,52,0.00,,,0.00,0.00,VWS V14.01,2013-03-24 10:41:00,
2013-03-24 06:42:00,36.9,20.9,29.61,North,0,0.0,0.0,52,0.00,,,0.00,0.00,VWS V14.01,2013-03-24 10:42:00,
2013-03-24 06:43:00,36.9,20.9,29.61,North,10,0.0,0.0,52,0.00,,,0.00,0.00,VWS V14.01,2013-03-24 10:43:00,
2013-03-24 06:44:00,36.9,21.4,29.61,NNE,14,0.0,0.0,53,0.00,,,0.00,0.00,VWS V14.01,2013-03-24 10:44:00,
2013-03-24 06:45:00,36.9,21.4,29.63,NNE,23,0.0,0.0,53,0.00,,,0.00,0.00,VWS V14.01,2013-03-24 10:45:00,
2013-03-24 06:46:00,36.8,20.8,29.63,NNE,18,0.0,0.0,52,0.00,,,0.00,0.00,VWS V14.01,2013-03-24 10:46:00,
2013-03-24 06:47:00,36.8,20.8,29.63,North,1,0.0,0.0,52,0.00,,,0.00,0.00,VWS V14.01,2013-03-24 10:47:00,
2013-03-24 06:48:00,36.8,21.3,29.63,NNE,30,0.0,0.0,53,0.00,,,0.00,0.00,VWS V14.01,2013-03-24 10:48:00,
2013-03-24 06:49:00,36.9,20.9,29.61,NNE,30,0.0,0.0,52,0.00,,,0.00,0.00,VWS V14.01,2013-03-24 10:49:00,
2013-03-24 06:50:00,36.8,20.8,29.63,NE,40,0.0,0.0,52,0.00,,,0.00,0.00,VWS V14.01,2013-03-24 10:50:00,
2013-03-24 06:51:00,36.8,20.8,29.63,North,0,0.0,0.0,52,0.00,,,0.00,0.00,VWS V14.01,2013-03-24 10:51:00,
2013-03-24 06:52:00,36.8,20.8,29.63,NNE,23,0.0,0.0,52,0.00,,,0.00,0.00,VWS V14.01,2013-03-24 10:52:00,
2013-03-24 06:53:00,36.8,21.3,29.63,North,352,0.0,0.0,53,0.00,,,0.00,0.00,VWS V14.01,2013-03-24 10:53:00,
2013-03-24 06:54:00,36.8,20.8,29.63,NNE,21,0.0,0.0,52,0.00,,,0.00,0.00,VWS V14.01,2013-03-24 10:54:00,
2013-03-24 06:55:00,36.8,21.3,29.63,North,8,0.0,0.0,53,0.00,,,0.00,0.00,VWS V14.01,2013-03-24 10:55:00,
2013-03-24 06:56:00,36.6,21.1,29.63,North,7,0.0,0.0,53,0.00,,,0.00,0.00,VWS V14.01,2013-03-24 10:56:00,
2013-03-24 06:57:00,36.6,21.1,29.63,North,8,0.0,0.0,53,0.00,,,0.00,0.00,VWS V14.01,2013-03-24 10:57:00,
2013-03-24 06:58:00,36.6,21.1,29.63,North,0,0.0,0.0,53,0.00,,,0.00,0.00,VWS V14.01,2013-03-24 10:58:00,
2013-03-24 06:59:00,36.6,21.1,29.63,North,7,0.0,0.0,53,0.00,,,0.00,0.00,VWS V14.01,2013-03-24 10:59:00,
2013-03-24 07:00:00,36.8,21.3,29.63,North,8,0.0,0.0,53,0.00,,,0.00,0.00,VWS V14.01,2013-03-24 11:00:00,
2013-03-24 07:01:00,36.6,21.1,29.63,North,6,0.0,0.0,53,0.00,,,0.00,0.00,VWS V14.01,2013-03-24 11:01:00,
2013-03-24 07:02:00,36.6,21.1,29.63,NNE,18,0.0,0.0,53,0.00,,,0.00,0.00,VWS V14.01,2013-03-24 11:02:00,
2013-03-24 07:03:00,36.6,21.1,29.63,North,10,0.0,0.0,53,0.00,,,0.00,0.00,VWS V14.01,2013-03-24 11:03:00,
2013-03-24 07:04:00,36.6,21.1,29.63,NNE,18,0.0,0.0,53,0.00,,,0.00,0.00,VWS V14.01,2013-03-24 11:04:00,
2013-03-24 07:05:00,36.6,21.1,29.63,NNE,20,0.0,0.0,53,0.00,,,0.00,0.00,VWS V14.01,2013-03-24 11:05:00,
2013-03-24 07:06:00,36.6,21.1,29.63,North,3,0.0,0.0,53,0.00,,,0.00,0.00,VWS V14.01,2013-03-24 11:06:00,
2013-03-24 07:07:00,36.6,21.1,29.63,NNE,20,0.0,0.0,53,0.00,,,0.00,0.00,VWS V14.01,2013-03-24 11:07:00,
2013-03-24 07:08:00,36.5,21.0,29.63,ENE,69,0.0,0.0,53,0.00,,,0.00,0.00,VWS V14.01,2013-03-24 11:08:00,
2013-03-24 07:09:00,36.5,21.0,29.63,North,10,0.0,0.0,53,0.00,,,0.00,0.00,VWS V14.01,2013-03-24 11:09:00,
2013-03-24 07:10:00,36.6,21.1,29.63,NNE,24,0.0,0.0,53,0.00,,,0.00,0.00,VWS V14.01,2013-03-24 11:10:00,
2013-03-24 07:11:00,36.5,21.5,29.63,NNE,16,0.0,0.0,54,0.00,,,0.00,0.00,VWS V14.01,2013-03-24 11:11:00,
2013-03-24 07:12:00,36.5,21.9,29.63,NNE,17,0.0,0.0,55,0.00,,,0.00,0.00,VWS V14.01,2013-03-24 11:12:00,
2013-03-24 07:13:00,36.5,21.9,29.63,NNE,14,0.0,0.0,55,0.00,,,0.00,0.00,VWS V14.01,2013-03-24 11:13:00,
2013-03-24 07:14:00,36.5,21.9,29.63,North,3,0.0,0.0,55,0.00,,,0.00,0.00,VWS V14.01,2013-03-24 11:14:00,
2013-03-24 07:15:00,36.3,21.7,29.63,NNE,30,0.0,0.0,55,0.00,,,0.00,0.00,VWS V14.01,2013-03-24 11:15:00,
2013-03-24 07:16:00,36.5,21.5,29.63,NNE,16,0.0,0.0,54,0.00,,,0.00,0.00,VWS V14.01,2013-03-24 11:16:00,
2013-03-24 07:17:00,36.3,21.7,29.63,NNE,21,0.0,0.0,55,0.00,,,0.00,0.00,VWS V14.01,2013-03-24 11:17:00,
2013-03-24 07:18:00,36.3,21.7,29.63,North,6,0.0,0.0,55,0.00,,,0.00,0.00,VWS V14.01,2013-03-24 11:18:00,
2013-03-24 07:19:00,36.2,21.6,29.63,North,7,0.0,0.0,55,0.00,,,0.00,0.00,VWS V14.01,2013-03-24 11:19:00,
2013-03-24 07:20:00,36.2,21.6,29.63,North,356,0.0,0.0,55,0.00,,,0.00,0.00,VWS V14.01,2013-03-24 11:20:00,
2013-03-24 07:21:00,36.2,22.0,29.63,NNE,28,0.0,0.0,56,0.00,,,0.00,0.00,VWS V14.01,2013-03-24 11:21:00,
2013-03-24 07:22:00,36.3,21.7,29.63,NNE,21,0.0,0.0,55,0.00,,,0.00,0.00,VWS V14.01,2013-03-24 11:22:00,
2013-03-24 07:23:00,36.2,22.0,29.63,NNE,25,0.0,0.0,56,0.00,,,0.00,0.00,VWS V14.01,2013-03-24 11:23:00,
2013-03-24 07:24:00,36.2,22.0,29.63,NNE,16,0.0,0.0,56,0.00,,,0.00,0.00,VWS V14.01,2013-03-24 11:24:00,
2013-03-24 07:25:00,36.0,21.8,29.63,NNE,31,0.0,0.0,56,0.00,,,0.00,0.00,VWS V14.01,2013-03-24 11:25:00,
2013-03-24 07:26:00,36.0,21.8,29.63,North,6,0.0,0.0,56,0.00,,,0.00,0.00,VWS V14.01,2013-03-24 11:26:00,
2013-03-24 07:27:00,36.0,22.3,29.63,NE,38,0.0,0.0,57,0.00,,,0.00,0.00,VWS V14.01,2013-03-24 11:27:00,
2013-03-24 07:28:00,36.2,22.0,29.63,NNE,25,0.0,0.0,56,0.00,,,0.00,0.00,VWS V14.01,2013-03-24 11:28:00,
2013-03-24 07:29:00,35.9,22.2,29.63,NNE,13,0.0,0.0,57,0.00,,,0.00,0.00,VWS V14.01,2013-03-24 11:29:00,
2013-03-24 07:30:00,35.9,22.6,29.61,North,4,0.0,0.0,58,0.00,,,0.00,0.00,VWS V14.01,2013-03-24 11:30:00,
2013-03-24 07:31:00,35.9,22.2,29.61,North,1,0.0,0.0,57,0.00,,,0.00,0.00,VWS V14.01,2013-03-24 11:31:00,
2013-03-24 07:32:00,35.9,22.6,29.61,North,11,0.0,0.0,58,0.00,,,0.00,0.00,VWS V14.01,2013-03-24 11:32:00,
2013-03-24 07:33:00,35.8,22.5,29.61,North,7,0.0,0.0,58,0.00,,,0.00,0.00,VWS V14.01,2013-03-24 11:33:00,
2013-03-24 07:34:00,35.9,22.2,29.63,NNE,13,0.0,0.0,57,0.00,,,0.00,0.00,VWS V14.01,2013-03-24 11:34:00,
2013-03-24 07:35:00,35.8,22.5,29.61,NNE,21,0.0,0.0,58,0.00,,,0.00,0.00,VWS V14.01,2013-03-24 11:35:00,
2013-03-24 07:36:00,35.8,22.5,29.61,NNE,13,0.0,0.0,58,0.00,,,0.00,0.00,VWS V14.01,2013-03-24 11:36:00,
2013-03-24 07:37:00,35.8,22.5,29.61,North,6,0.0,0.0,58,0.00,,,0.00,0.00,VWS V14.01,2013-03-24 11:37:00,
2013-03-24 07:38:00,35.6,22.3,29.61,North,11,0.0,0.0,58,0.00,,,0.00,0.00,VWS V14.01,2013-03-24 11:38:00,
2013-03-24 07:39:00,35.6,22.3,29.61,NNE,24,0.0,0.0,58,0.00,,,0.00,0.00,VWS V14.01,2013-03-24 11:39:00,
2013-03-24 07:40:00,35.8,22.5,29.61,NNE,21,0.0,0.0,58,0.00,,,0.00,0.00,VWS V14.01,2013-03-24 11:40:00,
2013-03-24 07:41:00,35.6,22.7,29.61,North,356,0.0,0.0,59,0.00,,,0.00,0.00,VWS V14.01,2013-03-24 11:41:00,
2013-03-24 07:42:00,35.6,22.7,29.61,North,0,0.0,0.0,59,0.00,,,0.00,0.00,VWS V14.01,2013-03-24 11:42:00,
2013-03-24 07:43:00,35.5,22.6,29.61,NNE,13,0.0,0.0,59,0.00,,,0.00,0.00,VWS V14.01,2013-03-24 11:43:00,
2013-03-24 07:44:00,35.5,22.6,29.61,NNE,27,0.0,0.0,59,0.00,,,0.00,0.00,VWS V14.01,2013-03-24 11:44:00,
2013-03-24 07:45:00,35.6,22.3,29.61,North,0,0.0,0.0,58,0.00,,,0.00,0.00,VWS V14.01,2013-03-24 11:45:00,
2013-03-24 07:46:00,35.5,23.4,29.60,North,4,0.0,0.0,61,0.00,,,0.00,0.00,VWS V14.01,2013-03-24 11:46:00,
2013-03-24 07:47:00,35.3,22.8,29.60,NNE,24,0.0,0.0,60,0.00,,,0.00,0.00,VWS V14.01,2013-03-24 11:47:00,
2013-03-24 07:48:00,35.3,23.2,29.60,NNE,14,0.0,0.0,61,0.00,,,0.00,0.00,VWS V14.01,2013-03-24 11:48:00,
2013-03-24 07:50:00,35.3,23.2,29.60,NNE,27,0.0,0.0,61,0.00,,,0.00,5.00,VWS V14.01,2013-03-24 11:50:00,
2013-03-24 07:51:00,35.5,23.4,29.60,North,4,0.0,0.0,61,0.00,,,0.00,0.00,VWS V14.01,2013-03-24 11:51:00,
2013-03-24 07:52:00,35.2,23.5,29.60,NE,48,0.0,0.0,62,0.00,,,0.00,5.00,VWS V14.01,2013-03-24 11:52:00,
2013-03-24 07:53:00,35.2,23.1,29.60,NNE,17,0.0,0.0,61,0.00,,,0.00,7.00,VWS V14.01,2013-03-24 11:53:00,
2013-03-24 07:54:00,35.2,23.1,29.60,NNE,20,0.0,0.0,61,0.00,,,0.00,7.00,VWS V14.01,2013-03-24 11:54:00,
2013-03-24 07:55:00,35.2,23.1,29.60,NNE,13,0.0,0.0,61,0.00,,,0.00,7.00,VWS V14.01,2013-03-24 11:55:00,
2013-03-24 07:56:00,35.2,23.1,29.60,NE,45,0.0,0.0,61,0.00,,,0.00,5.00,VWS V14.01,2013-03-24 11:56:00,
2013-03-24 07:57:00,35.2,23.5,29.60,NNE,13,0.0,0.0,62,0.00,,,0.00,9.00,VWS V14.01,2013-03-24 11:57:00,
2013-03-24 07:58:00,35.0,23.3,29.60,NNE,27,0.0,0.0,62,0.00,,,0.00,9.00,VWS V14.01,2013-03-24 11:58:00,
2013-03-24 07:59:00,35.0,23.7,29.60,North,3,0.0,0.0,63,0.00,,,0.00,9.00,VWS V14.01,2013-03-24 11:59:00,
2013-03-24 08:00:00,35.0,23.3,29.60,North,3,0.0,0.0,62,0.00,,,0.00,9.00,VWS V14.01,2013-03-24 12:00:00,
2013-03-24 08:01:00,35.0,23.3,29.60,NNE,16,0.0,0.0,62,0.00,,,0.00,9.00,VWS V14.01,2013-03-24 12:01:00,
2013-03-24 08:02:00,35.2,23.5,29.60,NNE,13,0.0,0.0,62,0.00,,,0.00,9.00,VWS V14.01,2013-03-24 12:02:00,
2013-03-24 08:03:00,34.9,23.6,29.60,NNE,21,0.0,0.0,63,0.00,,,0.00,11.00,VWS V14.01,2013-03-24 12:03:00,
2013-03-24 08:04:00,34.9,23.6,29.60,North,10,0.0,0.0,63,0.00,,,0.00,11.00,VWS V14.01,2013-03-24 12:04:00,
2013-03-24 08:05:00,34.9,23.6,29.60,NNE,27,0.0,0.0,63,0.00,,,0.00,11.00,VWS V14.01,2013-03-24 12:05:00,
2013-03-24 08:06:00,34.7,23.4,29.60,NNE,31,0.0,0.0,63,0.00,,,0.00,11.00,VWS V14.01,2013-03-24 12:06:00,
2013-03-24 08:07:00,35.0,23.3,29.60,NNE,24,0.0,0.0,62,0.00,,,0.00,11.00,VWS V14.01,2013-03-24 12:07:00,
2013-03-24 08:08:00,34.7,23.4,29.60,NNE,13,0.0,0.0,63,0.00,,,0.00,11.00,VWS V14.01,2013-03-24 12:08:00,
2013-03-24 08:09:00,34.7,23.4,29.60,NNW,342,0.0,0.0,63,0.00,,,0.00,11.00,VWS V14.01,2013-03-24 12:09:00,
2013-03-24 08:10:00,34.7,23.4,29.60,NE,40,0.0,0.0,63,0.00,,,0.00,11.00,VWS V14.01,2013-03-24 12:10:00,
2013-03-24 08:11:00,34.7,23.8,29.60,NNE,24,0.0,0.0,64,0.00,,,0.00,11.00,VWS V14.01,2013-03-24 12:11:00,
2013-03-24 08:12:00,34.7,23.8,29.60,NNE,30,0.0,0.0,64,0.00,,,0.00,11.00,VWS V14.01,2013-03-24 12:12:00,
2013-03-24 08:13:00,34.7,23.4,29.60,NNE,13,0.0,0.0,63,0.00,,,0.00,11.00,VWS V14.01,2013-03-24 12:13:00,
2013-03-24 08:14:00,34.7,23.8,29.60,NNE,14,0.0,0.0,64,0.00,,,0.00,11.00,VWS V14.01,2013-03-24 12:14:00,
2013-03-24 08:15:00,34.6,23.7,29.61,NNE,20,0.0,0.0,64,0.00,,,0.00,11.00,VWS V14.01,2013-03-24 12:15:00,
2013-03-24 08:16:00,34.6,24.1,29.61,NNE,20,0.0,0.0,65,0.00,,,0.00,11.00,VWS V14.01,2013-03-24 12:16:00,
2013-03-24 08:17:00,34.6,24.1,29.61,North,0,0.0,0.0,65,0.00,,,0.00,11.00,VWS V14.01,2013-03-24 12:17:00,
2013-03-24 08:18:00,34.6,24.1,29.61,North,3,0.0,0.0,65,0.00,,,0.00,12.00,VWS V14.01,2013-03-24 12:18:00,
2013-03-24 08:19:00,34.7,23.8,29.60,NNE,14,0.0,0.0,64,0.00,,,0.00,11.00,VWS V14.01,2013-03-24 12:19:00,
2013-03-24 08:20:00,34.6,24.1,29.61,North,8,0.0,0.0,65,0.00,,,0.00,12.00,VWS V14.01,2013-03-24 12:20:00,
2013-03-24 08:21:00,34.6,24.1,29.61,NNE,27,0.0,0.0,65,0.00,,,0.00,12.00,VWS V14.01,2013-03-24 12:21:00,
2013-03-24 08:22:00,34.6,24.4,29.61,NNE,13,0.0,0.0,66,0.00,,,0.00,12.00,VWS V14.01,2013-03-24 12:22:00,
2013-03-24 08:23:00,34.4,24.2,29.61,NNE,23,0.0,0.0,66,0.00,,,0.00,14.00,VWS V14.01,2013-03-24 12:23:00,
2013-03-24 08:24:00,34.6,24.1,29.61,NNE,31,0.0,0.0,65,0.00,,,0.00,12.00,VWS V14.01,2013-03-24 12:24:00,
2013-03-24 08:25:00,34.4,24.2,29.61,NNE,21,0.0,0.0,66,0.00,,,0.00,14.00,VWS V14.01,2013-03-24 12:25:00,
2013-03-24 08:26:00,34.4,24.2,29.61,North,11,0.0,0.0,66,0.00,,,0.00,14.00,VWS V14.01,2013-03-24 12:26:00,
2013-03-24 08:27:00,34.4,24.6,29.61,North,7,0.0,0.0,67,0.00,,,0.00,12.00,VWS V14.01,2013-03-24 12:27:00,
2013-03-24 08:28:00,34.4,24.2,29.61,ENE,76,0.0,0.0,66,0.00,,,0.00,12.00,VWS V14.01,2013-03-24 12:28:00,
2013-03-24 08:29:00,34.3,24.5,29.61,North,0,0.0,0.0,67,0.00,,,0.00,12.00,VWS V14.01,2013-03-24 12:29:00,
2013-03-24 08:30:00,34.4,24.2,29.61,NNE,21,0.0,0.0,66,0.00,,,0.00,14.00,VWS V14.01,2013-03-24 12:30:00,
2013-03-24 08:31:00,34.3,24.5,29.61,NNE,24,0.0,0.0,67,0.00,,,0.00,18.00,VWS V14.01,2013-03-24 12:31:00,
2013-03-24 08:32:00,34.3,24.5,29.61,NNE,30,0.0,0.0,67,0.00,,,0.00,18.00,VWS V14.01,2013-03-24 12:32:00,
2013-03-24 08:34:00,34.3,24.9,29.61,NE,42,0.0,0.0,68,0.00,,,0.00,18.00,VWS V14.01,2013-03-24 12:34:00,
2013-03-24 08:36:00,34.3,24.5,29.61,NNE,24,0.0,0.0,67,0.00,,,0.00,18.00,VWS V14.01,2013-03-24 12:36:00,
2013-03-24 08:37:00,34.1,25.0,29.61,NNE,27,0.0,0.0,69,0.00,,,0.00,23.00,VWS V14.01,2013-03-24 12:37:00,
2013-03-24 08:38:00,34.1,25.0,29.61,North,357,0.0,0.0,69,0.00,,,0.00,23.00,VWS V14.01,2013-03-24 12:38:00,
2013-03-24 08:39:00,34.1,25.0,29.61,North,11,0.0,0.0,69,0.00,,,0.00,21.00,VWS V14.01,2013-03-24 12:39:00,
2013-03-24 08:40:00,34.1,25.0,29.61,NNE,13,0.0,0.0,69,0.00,,,0.00,21.00,VWS V14.01,2013-03-24 12:40:00,
2013-03-24 08:41:00,34.1,25.0,29.61,NNE,30,0.0,0.0,69,0.00,,,0.00,23.00,VWS V14.01,2013-03-24 12:41:00,
2013-03-24 08:42:00,34.0,25.3,29.61,NNE,27,0.0,0.0,70,0.00,,,0.00,21.00,VWS V14.01,2013-03-24 12:42:00,
2013-03-24 08:43:00,34.0,25.3,29.61,NNE,32,0.0,0.0,70,0.00,,,0.00,21.00,VWS V14.01,2013-03-24 12:43:00,
2013-03-24 08:44:00,34.0,25.6,29.61,NE,40,0.0,0.0,71,0.00,,,0.00,21.00,VWS V14.01,2013-03-24 12:44:00,
2013-03-24 08:45:00,33.8,25.4,29.61,NNE,14,0.0,0.0,71,0.00,,,0.00,21.00,VWS V14.01,2013-03-24 12:45:00,
2013-03-24 08:46:00,33.8,25.4,29.61,North,11,0.0,0.0,71,0.00,,,0.00,21.00,VWS V14.01,2013-03-24 12:46:00,
2013-03-24 08:47:00,34.0,25.3,29.61,NNE,27,0.0,0.0,70,0.00,,,0.00,21.00,VWS V14.01,2013-03-24 12:47:00,
2013-03-24 08:49:00,33.7,25.6,29.61,North,0,0.0,0.0,72,0.00,,,0.00,25.00,VWS V14.01,2013-03-24 12:49:00,
2013-03-24 08:50:00,33.7,25.6,29.61,North,7,0.0,0.0,72,0.00,,,0.00,25.00,VWS V14.01,2013-03-24 12:50:00,
2013-03-24 08:51:00,33.7,25.6,29.61,NNE,18,0.0,0.0,72,0.00,,,0.00,25.00,VWS V14.01,2013-03-24 12:51:00,
2013-03-24 08:52:00,33.8,25.7,29.61,NE,41,0.0,0.0,72,0.00,,,0.00,25.00,VWS V14.01,2013-03-24 12:52:00,
2013-03-24 08:53:00,33.5,25.8,29.61,North,359,0.0,0.0,73,0.00,,,0.00,26.00,VWS V14.01,2013-03-24 12:53:00,
2013-03-24 08:54:00,33.5,25.8,29.61,North,3,0.0,0.0,73,0.00,,,0.00,26.00,VWS V14.01,2013-03-24 12:54:00,
2013-03-24 08:55:00,33.5,25.5,29.61,NNE,17,0.0,0.0,72,0.00,,,0.00,26.00,VWS V14.01,2013-03-24 12:55:00,
2013-03-24 08:56:00,33.5,25.8,29.61,North,1,0.0,0.0,73,0.00,,,0.00,26.00,VWS V14.01,2013-03-24 12:56:00,
2013-03-24 08:57:00,33.5,25.5,29.61,NNW,340,0.0,0.0,72,0.00,,,0.00,26.00,VWS V14.01,2013-03-24 12:57:00,
2013-03-24 08:58:00,33.4,25.7,29.61,NNE,31,0.0,0.0,73,0.00,,,0.00,26.00,VWS V14.01,2013-03-24 12:58:00,
2013-03-24 08:59:00,33.4,25.7,29.61,NNE,14,0.0,0.0,73,0.00,,,0.00,26.00,VWS V14.01,2013-03-24 12:59:00,
2013-03-24 09:00:00,33.4,26.0,29.61,North,11,0.0,0.0,74,0.00,,,0.00,26.00,VWS V14.01,2013-03-24 13:00:00,
2013-03-24 09:01:00,33.4,26.0,29.61,NNE,16,0.0,0.0,74,0.00,,,0.00,26.00,VWS V14.01,2013-03-24 13:01:00,
2013-03-24 09:02:00,33.4,26.0,29.61,NNE,17,0.0,0.0,74,0.00,,,0.00,26.00,VWS V14.01,2013-03-24 13:02:00,
2013-03-24 09:03:00,33.4,25.7,29.61,NNE,31,0.0,0.0,73,0.00,,,0.00,26.00,VWS V14.01,2013-03-24 13:03:00,
2013-03-24 09:04:00,33.2,25.8,29.61,North,4,0.0,0.0,74,0.00,,,0.00,26.00,VWS V14.01,2013-03-24 13:04:00,
2013-03-24 09:05:00,33.2,26.1,29.61,North,8,0.0,0.0,75,0.00,,,0.00,26.00,VWS V14.01,2013-03-24 13:05:00,
2013-03-24 09:06:00,33.1,26.0,29.61,NNE,30,0.0,0.0,75,0.00,,,0.00,26.00,VWS V14.01,2013-03-24 13:06:00,
2013-03-24 09:07:00,33.1,26.0,29.61,North,10,0.0,0.0,75,0.00,,,0.00,26.00,VWS V14.01,2013-03-24 13:07:00,
2013-03-24 09:08:00,33.2,25.8,29.61,North,10,0.0,0.0,74,0.00,,,0.00,26.00,VWS V14.01,2013-03-24 13:08:00,
2013-03-24 09:09:00,33.1,26.4,29.61,NNE,30,0.0,0.0,76,0.00,,,0.00,30.00,VWS V14.01,2013-03-24 13:09:00,
2013-03-24 09:10:00,33.1,26.4,29.61,North,0,0.0,0.0,76,0.00,,,0.00,30.00,VWS V14.01,2013-03-24 13:10:00,
2013-03-24 09:11:00,32.9,26.2,29.61,North,359,0.0,0.0,76,0.00,,,0.00,30.00,VWS V14.01,2013-03-24 13:11:00,
2013-03-24 09:12:00,32.9,26.2,29.61,NNE,17,0.0,0.0,76,0.00,,,0.00,30.00,VWS V14.01,2013-03-24 13:12:00,
2013-03-24 09:13:00,33.1,26.0,29.61,North,0,0.0,0.0,75,0.00,,,0.00,26.00,VWS V14.01,2013-03-24 13:13:00,
2013-03-24 09:14:00,32.9,26.5,29.61,NNE,18,0.0,0.0,77,0.00,,,0.00,28.00,VWS V14.01,2013-03-24 13:14:00,
2013-03-24 09:15:00,32.9,26.5,29.61,North,8,0.0,0.0,77,0.00,,,0.00,28.00,VWS V14.01,2013-03-24 13:15:00,
2013-03-24 09:16:00,32.8,26.4,29.61,North,352,0.0,0.0,77,0.00,,,0.00,28.00,VWS V14.01,2013-03-24 13:16:00,
2013-03-24 09:17:00,32.8,26.4,29.61,North,0,0.0,0.0,77,0.00,,,0.00,28.00,VWS V14.01,2013-03-24 13:17:00,
2013-03-24 09:18:00,32.8,26.4,29.61,NE,42,0.0,0.0,77,0.00,,,0.00,28.00,VWS V14.01,2013-03-24 13:18:00,
2013-03-24 09:19:00,32.9,26.5,29.61,NNE,18,0.0,0.0,77,0.00,,,0.00,28.00,VWS V14.01,2013-03-24 13:19:00,
2013-03-24 09:20:00,32.8,26.4,29.61,NNE,30,0.0,0.0,77,0.00,,,0.00,28.00,VWS V14.01,2013-03-24 13:20:00,
2013-03-24 09:21:00,32.8,26.4,29.61,NNE,27,0.0,0.0,77,0.00,,,0.00,32.00,VWS V14.01,2013-03-24 13:21:00,
2013-03-24 09:22:00,32.8,26.7,29.61,North,359,0.0,0.0,78,0.00,,,0.00,32.00,VWS V14.01,2013-03-24 13:22:00,
2013-03-24 09:23:00,32.8,26.7,29.61,North,0,0.0,0.0,78,0.00,,,0.00,32.00,VWS V14.01,2013-03-24 13:23:00,
2013-03-24 09:24:00,32.8,26.4,29.61,North,0,0.0,0.0,77,0.00,,,0.00,28.00,VWS V14.01,2013-03-24 13:24:00,
2013-03-24 09:25:00,32.7,26.9,29.61,North,6,0.0,0.0,79,0.00,,,0.00,35.00,VWS V14.01,2013-03-24 13:25:00,
2013-03-24 09:26:00,32.7,26.9,29.61,North,0,0.0,0.0,79,0.00,,,0.00,35.00,VWS V14.01,2013-03-24 13:26:00,
2013-03-24 09:27:00,32.7,26.9,29.61,North,0,0.0,0.0,79,0.00,,,0.00,35.00,VWS V14.01,2013-03-24 13:27:00,
2013-03-24 09:28:00,32.7,26.9,29.61,NNE,25,0.0,0.0,79,0.00,,,0.00,35.00,VWS V14.01,2013-03-24 13:28:00,
2013-03-24 09:29:00,32.7,26.6,29.61,NNW,339,0.0,0.0,78,0.00,,,0.00,32.00,VWS V14.01,2013-03-24 13:29:00,
2013-03-24 09:30:00,32.5,26.7,29.61,North,0,0.0,0.0,79,0.00,,,0.00,37.00,VWS V14.01,2013-03-24 13:30:00,
2013-03-24 09:31:00,32.5,26.7,29.61,North,1,0.0,0.0,79,0.00,,,0.00,37.00,VWS V14.01,2013-03-24 13:31:00,
2013-03-24 09:32:00,32.5,26.7,29.61,NNE,20,0.0,0.0,79,0.00,,,0.00,37.00,VWS V14.01,2013-03-24 13:32:00,
2013-03-24 09:33:00,32.5,26.7,29.61,North,0,0.0,0.0,79,0.00,,,0.00,40.00,VWS V14.01,2013-03-24 13:33:00,
2013-03-24 09:34:00,32.7,26.9,29.61,NE,44,0.0,0.0,79,0.00,,,0.00,37.00,VWS V14.01,2013-03-24 13:34:00,
2013-03-24 09:35:00,32.5,26.7,29.61,NNE,30,0.0,0.0,79,0.00,,,0.00,40.00,VWS V14.01,2013-03-24 13:35:00,
2013-03-24 09:36:00,32.4,26.9,29.61,North,7,0.0,0.0,80,0.00,,,0.00,40.00,VWS V14.01,2013-03-24 13:36:00,
2013-03-24 09:37:00,32.4,26.9,29.61,NNE,18,0.0,0.0,80,0.00,,,0.00,44.00,VWS V14.01,2013-03-24 13:37:00,
2013-03-24 09:38:00,32.4,26.9,29.61,NNE,20,0.0,0.0,80,0.00,,,0.00,44.00,VWS V14.01,2013-03-24 13:38:00,
2013-03-24 09:39:00,32.4,26.9,29.61,NNE,18,0.0,0.0,80,0.00,,,0.00,44.00,VWS V14.01,2013-03-24 13:39:00,
2013-03-24 09:40:00,32.5,26.7,29.61,NNE,30,0.0,0.0,79,0.00,,,0.00,40.00,VWS V14.01,2013-03-24 13:40:00,
2013-03-24 09:41:00,32.4,26.9,29.61,North,8,0.0,0.0,80,0.00,,,0.00,44.00,VWS V14.01,2013-03-24 13:41:00,
2013-03-24 09:42:00,32.4,27.2,29.61,NNE,16,0.0,0.0,81,0.00,,,0.00,40.00,VWS V14.01,2013-03-24 13:42:00,
2013-03-24 09:43:00,32.4,27.2,29.61,North,352,0.0,0.0,81,0.00,,,0.00,40.00,VWS V14.01,2013-03-24 13:43:00,
2013-03-24 09:44:00,32.4,27.2,29.61,NE,40,0.0,0.0,81,0.00,,,0.00,40.00,VWS V14.01,2013-03-24 13:44:00,
2013-03-24 09:45:00,32.4,26.9,29.61,North,0,0.0,0.0,80,0.00,,,0.00,44.00,VWS V14.01,2013-03-24 13:45:00,
2013-03-24 09:46:00,32.2,27.0,29.61,North,4,0.0,0.0,81,0.00,,,0.00,42.00,VWS V14.01,2013-03-24 13:46:00,
2013-03-24 09:47:00,32.2,27.0,29.61,North,8,0.0,0.0,81,0.00,,,0.00,42.00,VWS V14.01,2013-03-24 13:47:00,
2013-03-24 09:48:00,32.2,27.0,29.61,North,6,0.0,0.0,81,0.00,,,0.00,42.00,VWS V14.01,2013-03-24 13:48:00,
2013-03-24 09:49:00,32.2,27.0,29.61,NNE,31,0.0,0.0,81,0.00,,,0.00,42.00,VWS V14.01,2013-03-24 13:49:00,
2013-03-24 09:50:00,32.2,27.0,29.61,NNE,25,0.0,0.0,81,0.00,,,0.00,46.00,VWS V14.01,2013-03-24 13:50:00,
2013-03-24 09:51:00,32.2,27.0,29.61,North,4,0.0,0.0,81,0.00,,,0.00,42.00,VWS V14.01,2013-03-24 13:51:00,
2013-03-24 09:52:00,32.2,27.0,29.61,NE,35,0.0,0.0,81,0.00,,,0.00,46.00,VWS V14.01,2013-03-24 13:52:00,
2013-03-24 09:53:00,32.1,27.2,29.61,ENE,64,0.0,0.0,82,0.00,,,0.00,46.00,VWS V14.01,2013-03-24 13:53:00,
2013-03-24 09:54:00,32.1,27.2,29.61,NNE,14,0.0,0.0,82,0.00,,,0.00,53.00,VWS V14.01,2013-03-24 13:54:00,
2013-03-24 09:55:00,32.1,27.2,29.61,NE,45,0.0,0.0,82,0.00,,,0.00,53.00,VWS V14.01,2013-03-24 13:55:00,
2013-03-24 09:56:00,32.1,27.2,29.61,North,8,0.0,0.0,82,0.00,,,0.00,53.00,VWS V14.01,2013-03-24 13:56:00,
2013-03-24 09:57:00,32.2,27.0,29.61,NE,35,0.0,0.0,81,0.00,,,0.00,46.00,VWS V14.01,2013-03-24 13:57:00,
2013-03-24 09:58:00,31.9,27.0,29.61,North,0,0.0,0.0,82,0.00,,,0.00,63.00,VWS V14.01,2013-03-24 13:58:00,
2013-03-24 09:59:00,31.9,27.0,29.61,NNE,21,0.0,0.0,82,0.00,,,0.00,63.00,VWS V14.01,2013-03-24 13:59:00,
2013-03-24 10:00:00,31.9,27.3,29.60,NE,37,0.0,0.0,83,0.00,,,0.00,63.00,VWS V14.01,2013-03-24 14:00:00,
2013-03-24 10:01:00,31.9,27.3,29.60,North,4,0.0,0.0,83,0.00,,,0.00,72.00,VWS V14.01,2013-03-24 14:01:00,
2013-03-24 10:02:00,31.9,27.3,29.60,North,353,0.0,0.0,83,0.00,,,0.00,74.00,VWS V14.01,2013-03-24 14:02:00,
2013-03-24 10:03:00,31.9,27.0,29.61,North,0,0.0,0.0,82,0.00,,,0.00,63.00,VWS V14.01,2013-03-24 14:03:00,
2013-03-24 10:04:00,31.8,27.2,29.60,NNE,17,0.0,0.0,83,0.00,,,0.00,77.00,VWS V14.01,2013-03-24 14:04:00,
2013-03-24 10:05:00,31.8,27.2,29.60,NNE,21,0.0,0.0,83,0.00,,,0.00,77.00,VWS V14.01,2013-03-24 14:05:00,
2013-03-24 10:06:00,31.8,27.5,29.60,NNE,20,0.0,0.0,84,0.00,,,0.00,79.00,VWS V14.01,2013-03-24 14:06:00,
2013-03-24 10:07:00,31.8,27.5,29.60,North,0,0.0,0.0,84,0.00,,,0.00,83.00,VWS V14.01,2013-03-24 14:07:00,
2013-03-24 10:08:00,31.8,27.2,29.60,NE,37,0.0,0.0,83,0.00,,,0.00,76.00,VWS V14.01,2013-03-24 14:08:00,
2013-03-24 10:09:00,31.6,27.3,29.60,North,0,0.0,0.0,84,0.00,,,0.00,81.00,VWS V14.01,2013-03-24 14:09:00,
2013-03-24 10:10:00,31.5,27.2,29.60,NNE,21,0.0,0.0,84,0.00,,,0.00,77.00,VWS V14.01,2013-03-24 14:10:00,
2013-03-24 10:11:00,31.5,27.5,29.60,NNE,18,0.0,0.0,85,0.00,,,0.00,77.00,VWS V14.01,2013-03-24 14:11:00,
2013-03-24 10:12:00,31.5,27.5,29.60,North,0,0.0,0.0,85,0.00,,,0.00,83.00,VWS V14.01,2013-03-24 14:12:00,
2013-03-24 10:13:00,31.3,27.3,29.60,NNE,18,0.0,0.0,85,0.00,,,0.00,83.00,VWS V14.01,2013-03-24 14:13:00,
2013-03-24 10:14:00,31.6,27.3,29.60,North,0,0.0,0.0,84,0.00,,,0.00,81.00,VWS V14.01,2013-03-24 14:14:00,
2013-03-24 10:15:00,31.3,27.6,29.59,NE,38,0.0,0.0,86,0.00,,,0.00,90.00,VWS V14.01,2013-03-24 14:15:00,
2013-03-24 10:16:00,31.3,27.6,29.59,North,0,0.0,0.0,86,0.00,,,0.00,91.00,VWS V14.01,2013-03-24 14:16:00,
2013-03-24 10:17:00,31.2,27.5,29.59,NNW,342,0.0,0.0,86,0.00,,,0.00,88.00,VWS V14.01,2013-03-24 14:17:00,
2013-03-24 10:18:00,31.2,27.5,29.59,North,0,0.0,0.0,86,0.00,,,0.00,84.00,VWS V14.01,2013-03-24 14:18:00,
2013-03-24 10:19:00,31.3,27.3,29.60,North,0,0.0,0.0,85,0.00,,,0.00,88.00,VWS V14.01,2013-03-24 14:19:00,
2013-03-24 10:20:00,31.2,27.8,29.59,North,350,0.0,0.0,87,0.00,,,0.00,79.00,VWS V14.01,2013-03-24 14:20:00,
2013-03-24 10:21:00,31.2,27.8,29.59,North,354,0.0,0.0,87,0.00,,,0.00,77.00,VWS V14.01,2013-03-24 14:21:00,
2013-03-24 10:22:00,31.2,27.8,29.59,North,0,0.0,0.0,87,0.00,,,0.00,72.00,VWS V14.01,2013-03-24 14:22:00,
2013-03-24 10:23:00,31.2,27.8,29.59,NNE,30,0.0,0.0,87,0.00,,,0.00,72.00,VWS V14.01,2013-03-24 14:23:00,
2013-03-24 10:24:00,31.2,27.8,29.59,North,0,0.0,0.0,87,0.00,,,0.00,83.00,VWS V14.01,2013-03-24 14:24:00,
2013-03-24 10:25:00,31.0,27.9,29.59,North,0,0.0,0.0,88,0.00,,,0.00,70.00,VWS V14.01,2013-03-24 14:25:00,
2013-03-24 10:26:00,31.0,27.9,29.59,North,0,0.0,0.0,88,0.00,,,0.00,69.00,VWS V14.01,2013-03-24 14:26:00,
2013-03-24 10:27:00,31.0,27.9,29.59,NNE,20,0.0,0.0,88,0.00,,,0.00,67.00,VWS V14.01,2013-03-24 14:27:00,
2013-03-24 10:28:00,31.0,27.9,29.59,NNE,23,0.0,0.0,88,0.00,,,0.00,58.00,VWS V14.01,2013-03-24 14:28:00,
2013-03-24 10:29:00,31.0,27.6,29.59,NE,44,0.0,0.0,87,0.00,,,0.00,72.00,VWS V14.01,2013-03-24 14:29:00,
2013-03-24 10:30:00,31.0,27.9,29.58,North,10,0.0,0.0,88,0.00,,,0.00,55.00,VWS V14.01,2013-03-24 14:30:00,
2013-03-24 10:31:00,31.0,27.9,29.58,North,352,0.0,0.0,88,0.00,,,0.00,55.00,VWS V14.01,2013-03-24 14:31:00,
2013-03-24 10:32:00,31.0,27.9,29.58,North,0,0.0,0.0,88,0.00,,,0.00,55.00,VWS V14.01,2013-03-24 14:32:00,
2013-03-24 10:33:00,31.0,27.9,29.58,North,0,0.0,0.0,88,0.00,,,0.00,53.00,VWS V14.01,2013-03-24 14:33:00,
2013-03-24 10:34:00,31.0,28.1,29.58,NNE,27,0.0,0.0,89,0.00,,,0.00,53.00,VWS V14.01,2013-03-24 14:34:00,
2013-03-24 10:35:00,31.0,27.9,29.58,North,10,0.0,0.0,88,0.00,,,0.00,55.00,VWS V14.01,2013-03-24 14:35:00,
2013-03-24 10:36:00,30.9,28.0,29.58,North,0,0.0,0.0,89,0.00,,,0.00,49.00,VWS V14.01,2013-03-24 14:36:00,
2013-03-24 10:37:00,30.9,28.0,29.58,North,6,0.0,0.0,89,0.00,,,0.00,48.00,VWS V14.01,2013-03-24 14:37:00,
2013-03-24 10:38:00,30.9,28.0,29.58,North,0,0.0,0.0,89,0.00,,,0.00,49.00,VWS V14.01,2013-03-24 14:38:00,
2013-03-24 10:39:00,30.9,28.0,29.58,North,10,0.0,0.0,89,0.00,,,0.00,49.00,VWS V14.01,2013-03-24 14:39:00,
2013-03-24 10:40:00,30.9,28.0,29.58,North,1,0.0,0.0,89,0.00,,,0.00,51.00,VWS V14.01,2013-03-24 14:40:00,
2013-03-24 10:41:00,30.9,28.0,29.58,North,0,0.0,0.0,89,0.00,,,0.00,49.00,VWS V14.01,2013-03-24 14:41:00,
2013-03-24 10:42:00,30.9,28.3,29.58,North,8,0.0,0.0,90,0.00,,,0.00,49.00,VWS V14.01,2013-03-24 14:42:00,
2013-03-24 10:43:00,30.9,28.3,29.58,North,3,0.0,0.0,90,0.00,,,0.00,49.00,VWS V14.01,2013-03-24 14:43:00,
2013-03-24 10:44:00,30.9,28.3,29.58,NNE,16,0.0,0.0,90,0.00,,,0.00,49.00,VWS V14.01,2013-03-24 14:44:00,
2013-03-24 10:45:00,30.9,28.0,29.58,North,359,0.0,0.0,89,0.00,,,0.00,49.00,VWS V14.01,2013-03-24 14:45:00,
2013-03-24 10:46:00,30.9,28.3,29.59,NNE,14,0.0,0.0,90,0.00,,,0.00,49.00,VWS V14.01,2013-03-24 14:46:00,
2013-03-24 10:47:00,30.9,28.3,29.59,North,0,0.0,0.0,90,0.00,,,0.00,46.00,VWS V14.01,2013-03-24 14:47:00,
2013-03-24 10:48:00,30.9,28.3,29.59,North,7,0.0,0.0,90,0.00,,,0.00,46.00,VWS V14.01,2013-03-24 14:48:00,
2013-03-24 10:49:00,30.9,28.3,29.59,NNE,25,0.0,0.0,90,0.00,,,0.00,46.00,VWS V14.01,2013-03-24 14:49:00,
2013-03-24 10:50:00,30.9,28.3,29.59,NNE,23,0.0,0.0,90,0.00,,,0.00,53.00,VWS V14.01,2013-03-24 14:50:00,
2013-03-24 10:51:00,30.9,28.3,29.59,NNE,14,0.0,0.0,90,0.00,,,0.00,49.00,VWS V14.01,2013-03-24 14:51:00,
2013-03-24 10:52:00,30.9,28.3,29.59,NE,52,0.0,0.0,90,0.00,,,0.00,53.00,VWS V14.01,2013-03-24 14:52:00,
2013-03-24 10:53:00,30.9,28.6,29.59,ENE,58,0.0,0.0,91,0.00,,,0.00,53.00,VWS V14.01,2013-03-24 14:53:00,
2013-03-24 10:54:00,30.9,28.6,29.59,North,10,0.0,0.0,91,0.00,,,0.00,53.00,VWS V14.01,2013-03-24 14:54:00,
2013-03-24 10:55:00,30.9,28.6,29.59,North,11,0.0,0.0,91,0.00,,,0.00,49.00,VWS V14.01,2013-03-24 14:55:00,
2013-03-24 10:56:00,30.9,28.3,29.59,NNE,32,0.0,0.0,90,0.00,,,0.00,53.00,VWS V14.01,2013-03-24 14:56:00,
2013-03-24 10:57:00,30.7,28.4,29.59,North,359,0.0,0.0,91,0.00,,,0.00,49.00,VWS V14.01,2013-03-24 14:57:00,
2013-03-24 10:58:00,30.7,28.4,29.59,NNE,18,0.0,0.0,91,0.00,,,0.00,65.00,VWS V14.01,2013-03-24 14:58:00,
2013-03-24 10:59:00,30.7,28.4,29.59,North,3,0.0,0.0,91,0.00,,,0.00,74.00,VWS V14.01,2013-03-24 14:59:00,
2013-03-24 11:00:00,30.7,28.4,29.58,NNE,21,0.0,0.0,91,0.00,,,0.00,74.00,VWS V14.01,2013-03-24 15:00:00,
2013-03-24 11:01:00,30.6,28.3,29.58,NNE,16,0.0,0.0,91,0.00,,,0.00,76.00,VWS V14.01,2013-03-24 15:01:00,
2013-03-24 11:02:00,30.7,28.4,29.59,North,359,0.0,0.0,91,0.00,,,0.00,49.00,VWS V14.01,2013-03-24 15:02:00,
2013-03-24 11:03:00,30.6,28.3,29.58,North,1,0.0,0.0,91,0.00,,,0.00,81.00,VWS V14.01,2013-03-24 15:03:00,
2013-03-24 11:04:00,30.6,28.3,29.58,NE,40,0.0,0.0,91,0.00,,,0.00,88.00,VWS V14.01,2013-03-24 15:04:00,
2013-03-24 11:05:00,30.6,28.3,29.58,North,0,0.0,0.0,91,0.00,,,0.00,91.00,VWS V14.01,2013-03-24 15:05:00,
2013-03-24 11:06:00,30.6,28.6,29.58,NE,47,0.0,0.0,92,0.00,,,0.00,90.00,VWS V14.01,2013-03-24 15:06:00,
2013-03-24 11:07:00,30.6,28.3,29.58,North,0,0.0,0.0,91,0.00,,,0.00,77.00,VWS V14.01,2013-03-24 15:07:00,
2013-03-24 11:08:00,30.4,28.4,29.58,North,0,0.0,0.0,92,0.00,,,0.00,93.00,VWS V14.01,2013-03-24 15:08:00,
2013-03-24 11:09:00,30.4,28.4,29.58,NNE,21,0.0,0.0,92,0.00,,,0.00,95.00,VWS V14.01,2013-03-24 15:09:00,
2013-03-24 11:10:00,30.4,28.4,29.58,NE,41,0.0,0.0,92,0.00,,,0.00,93.00,VWS V14.01,2013-03-24 15:10:00,
2013-03-24 11:11:00,30.3,28.3,29.58,NNE,23,0.0,0.0,92,0.00,,,0.00,100.00,VWS V14.01,2013-03-24 15:11:00,
2013-03-24 11:12:00,30.6,28.6,29.58,North,0,0.0,0.0,92,0.00,,,0.00,91.00,VWS V14.01,2013-03-24 15:12:00,
2013-03-24 11:13:00,30.3,28.3,29.58,North,7,0.0,0.0,92,0.00,,,0.00,107.00,VWS V14.01,2013-03-24 15:13:00,
2013-03-24 11:14:00,30.3,28.3,29.58,NE,47,0.0,0.0,92,0.00,,,0.00,113.00,VWS V14.01,2013-03-24 15:14:00,
2013-03-24 11:15:00,30.3,28.3,29.58,NNE,25,0.0,0.0,92,0.00,,,0.00,113.00,VWS V14.01,2013-03-24 15:15:00,
2013-03-24 11:16:00,30.3,28.3,29.58,North,11,0.0,0.0,92,0.00,,,0.00,109.00,VWS V14.01,2013-03-24 15:16:00,
2013-03-24 11:17:00,30.3,28.3,29.58,NE,40,0.0,0.0,92,0.00,,,0.00,106.00,VWS V14.01,2013-03-24 15:17:00,
2013-03-24 11:18:00,30.1,28.3,29.58,North,6,0.0,0.0,93,0.00,,,0.00,102.00,VWS V14.01,2013-03-24 15:18:00,
2013-03-24 11:19:00,30.1,28.3,29.58,NNE,13,0.0,0.0,93,0.00,,,0.00,106.00,VWS V14.01,2013-03-24 15:19:00,
2013-03-24 11:20:00,30.1,28.3,29.58,North,0,0.0,0.0,93,0.00,,,0.00,107.00,VWS V14.01,2013-03-24 15:20:00,
2013-03-24 11:21:00,30.1,28.3,29.58,North,350,0.0,0.0,93,0.00,,,0.00,113.00,VWS V14.01,2013-03-24 15:21:00,
2013-03-24 11:22:00,30.3,28.5,29.58,NNW,330,0.0,0.0,93,0.00,,,0.00,106.00,VWS V14.01,2013-03-24 15:22:00,
2013-03-24 11:23:00,30.1,28.3,29.58,NNE,13,0.0,0.0,93,0.00,,,0.00,120.00,VWS V14.01,2013-03-24 15:23:00,
2013-03-24 11:24:00,30.1,28.3,29.58,NNE,24,0.0,0.0,93,0.00,,,0.00,132.00,VWS V14.01,2013-03-24 15:24:00,
2013-03-24 11:25:00,30.0,28.2,29.58,North,10,0.0,0.0,93,0.00,,,0.00,135.00,VWS V14.01,2013-03-24 15:25:00,
2013-03-24 11:26:00,30.0,28.5,29.58,North,10,0.0,0.0,94,0.00,,,0.00,144.00,VWS V14.01,2013-03-24 15:26:00,
2013-03-24 11:27:00,30.0,28.5,29.58,North,10,0.0,0.0,94,0.00,,,0.00,160.00,VWS V14.01,2013-03-24 15:27:00,
2013-03-24 11:28:00,30.1,28.3,29.58,NNE,13,0.0,0.0,93,0.00,,,0.00,120.00,VWS V14.01,2013-03-24 15:28:00,
2013-03-24 11:29:00,30.1,28.6,29.58,North,0,0.0,0.0,94,0.00,,,0.00,179.00,VWS V14.01,2013-03-24 15:29:00,
2013-03-24 11:30:00,30.1,28.6,29.57,North,6,0.0,0.0,94,0.00,,,0.00,185.00,VWS V14.01,2013-03-24 15:30:00,
2013-03-24 11:31:00,30.0,28.5,29.57,NNE,30,0.0,0.0,94,0.00,,,0.00,183.00,VWS V14.01,2013-03-24 15:31:00,
2013-03-24 11:32:00,30.0,28.5,29.57,North,0,0.0,0.0,94,0.00,,,0.00,195.00,VWS V14.01,2013-03-24 15:32:00,
2013-03-24 11:33:00,30.0,28.5,29.58,North,0,0.0,0.0,94,0.00,,,0.00,169.00,VWS V14.01,2013-03-24 15:33:00,
2013-03-24 11:34:00,30.0,28.5,29.57,NNE,17,0.0,0.0,94,0.00,,,0.00,206.00,VWS V14.01,2013-03-24 15:34:00,
2013-03-24 11:35:00,30.0,28.5,29.57,NNE,28,0.0,0.0,94,0.00,,,0.00,209.00,VWS V14.01,2013-03-24 15:35:00,
2013-03-24 11:36:00,30.0,28.5,29.57,North,0,0.0,0.0,94,0.00,,,0.00,215.00,VWS V14.01,2013-03-24 15:36:00,
2013-03-24 11:37:00,30.0,28.5,29.57,NNE,23,0.0,0.0,94,0.00,,,0.00,202.00,VWS V14.01,2013-03-24 15:37:00,
2013-03-24 11:38:00,30.0,28.5,29.57,NNE,18,0.0,0.0,94,0.00,,,0.00,206.00,VWS V14.01,2013-03-24 15:38:00,
2013-03-24 11:39:00,30.0,28.5,29.57,NNE,27,0.0,0.0,94,0.00,,,0.00,216.00,VWS V14.01,2013-03-24 15:39:00,
2013-03-24 11:40:00,30.0,28.5,29.57,North,10,0.0,0.0,94,0.00,,,0.00,213.00,VWS V14.01,2013-03-24 15:40:00,
2013-03-24 11:41:00,30.1,28.6,29.57,NE,34,0.0,0.0,94,0.00,,,0.00,206.00,VWS V14.01,2013-03-24 15:41:00,
2013-03-24 11:42:00,30.1,28.6,29.57,NNE,14,0.0,0.0,94,0.00,,,0.00,206.00,VWS V14.01,2013-03-24 15:42:00,
2013-03-24 11:43:00,30.0,28.5,29.57,North,0,0.0,0.0,94,0.00,,,0.00,202.00,VWS V14.01,2013-03-24 15:43:00,
2013-03-24 11:44:00,30.1,28.8,29.57,North,4,0.0,0.0,95,0.00,,,0.00,216.00,VWS V14.01,2013-03-24 15:44:00,
2013-03-24 11:45:00,30.1,28.8,29.55,North,3,0.0,0.0,95,0.00,,,0.00,211.00,VWS V14.01,2013-03-24 15:45:00,
2013-03-24 11:46:00,30.1,28.8,29.55,NE,49,0.0,0.0,95,0.00,,,0.00,206.00,VWS V14.01,2013-03-24 15:46:00,
2013-03-24 11:47:00,30.1,28.8,29.55,NE,44,0.0,0.0,95,0.00,,,0.00,218.00,VWS V14.01,2013-03-24 15:47:00,
2013-03-24 11:48:00,30.1,28.8,29.57,NNE,27,0.0,0.0,95,0.00,,,0.00,206.00,VWS V14.01,2013-03-24 15:48:00,
2013-03-24 11:49:00,30.1,28.8,29.55,NE,38,0.0,0.0,95,0.00,,,0.00,223.00,VWS V14.01,2013-03-24 15:49:00,
2013-03-24 11:50:00,30.1,28.8,29.55,NE,40,0.0,0.0,95,0.00,,,0.00,223.00,VWS V14.01,2013-03-24 15:50:00,
2013-03-24 11:51:00,30.1,28.8,29.55,NNE,13,0.0,0.0,95,0.00,,,0.00,213.00,VWS V14.01,2013-03-24 15:51:00,
2013-03-24 11:52:00,30.1,28.8,29.55,NNE,16,0.0,0.0,95,0.00,,,0.00,208.00,VWS V14.01,2013-03-24 15:52:00,
2013-03-24 11:53:00,30.1,28.8,29.55,NNE,18,0.0,0.0,95,0.00,,,0.00,218.00,VWS V14.01,2013-03-24 15:53:00,
2013-03-24 11:54:00,30.1,28.8,29.55,NE,38,0.0,0.0,95,0.00,,,0.00,223.00,VWS V14.01,2013-03-24 15:54:00,
2013-03-24 11:55:00,30.1,28.8,29.55,NNE,25,0.0,0.0,95,0.00,,,0.00,229.00,VWS V14.01,2013-03-24 15:55:00,
2013-03-24 11:56:00,30.1,28.8,29.55,NNE,31,0.0,0.0,95,0.00,,,0.00,227.00,VWS V14.01,2013-03-24 15:56:00,
2013-03-24 11:57:00,30.1,28.8,29.55,NNE,14,0.0,0.0,95,0.00,,,0.00,232.00,VWS V14.01,2013-03-24 15:57:00,
2013-03-24 11:58:00,30.1,28.8,29.55,NE,38,0.0,0.0,95,0.00,,,0.00,243.00,VWS V14.01,2013-03-24 15:58:00,
2013-03-24 11:59:00,30.1,28.8,29.55,North,356,0.0,0.0,95,0.00,,,0.00,245.00,VWS V14.01,2013-03-24 15:59:00,
2013-03-24 12:00:00,30.1,28.8,29.55,NNE,25,0.0,0.0,95,0.00,,,0.00,229.00,VWS V14.01,2013-03-24 16:00:00,
2013-03-24 12:01:00,30.1,28.8,29.54,North,357,0.0,0.0,95,0.00,,,0.00,232.00,VWS V14.01,2013-03-24 16:01:00,
2013-03-24 12:02:00,30.3,29.0,29.54,NE,34,0.0,0.0,95,0.00,,,0.00,248.00,VWS V14.01,2013-03-24 16:02:00,
2013-03-24 12:03:00,30.3,29.0,29.54,ENE,78,0.0,0.0,95,0.00,,,0.00,234.00,VWS V14.01,2013-03-24 16:03:00,
2013-03-24 12:04:00,30.3,29.0,29.54,NE,44,0.0,0.0,95,0.00,,,0.00,253.00,VWS V14.01,2013-03-24 16:04:00,
2013-03-24 12:05:00,30.1,28.8,29.54,North,6,0.0,0.0,95,0.00,,,0.00,239.00,VWS V14.01,2013-03-24 16:05:00,
2013-03-24 12:07:00,30.3,29.0,29.54,North,0,0.0,0.0,95,0.00,,,0.00,259.00,VWS V14.01,2013-03-24 16:07:00,
2013-03-24 12:08:00,30.3,29.0,29.54,NNE,20,0.0,0.0,95,0.00,,,0.00,253.00,VWS V14.01,2013-03-24 16:08:00,
2013-03-24 12:09:00,30.3,29.0,29.54,NNE,17,0.0,0.0,95,0.00,,,0.00,239.00,VWS V14.01,2013-03-24 16:09:00,
2013-03-24 12:10:00,30.3,29.0,29.54,NNE,23,0.0,0.0,95,0.00,,,0.00,216.00,VWS V14.01,2013-03-24 16:10:00,
2013-03-24 12:11:00,30.3,29.0,29.54,NNE,30,0.0,0.0,95,0.00,,,0.00,255.00,VWS V14.01,2013-03-24 16:11:00,
2013-03-24 12:12:00,30.4,29.1,29.54,NW,325,0.0,0.0,95,0.00,,,0.00,199.00,VWS V14.01,2013-03-24 16:12:00,
2013-03-24 12:13:00,30.4,29.1,29.54,NNE,13,0.0,0.0,95,0.00,,,0.00,206.00,VWS V14.01,2013-03-24 16:13:00,
2013-03-24 12:14:00,30.4,29.1,29.54,North,353,0.0,0.0,95,0.00,,,0.00,202.00,VWS V14.01,2013-03-24 16:14:00,
2013-03-24 12:15:00,30.4,29.1,29.54,NNE,32,0.0,0.0,95,0.00,,,0.00,197.00,VWS V14.01,2013-03-24 16:15:00,
2013-03-24 12:16:00,30.3,29.0,29.54,North,0,0.0,0.0,95,0.00,,,0.00,211.00,VWS V14.01,2013-03-24 16:16:00,
2013-03-24 12:17:00,30.4,29.1,29.54,NNE,25,0.0,0.0,95,0.00,,,0.00,187.00,VWS V14.01,2013-03-24 16:17:00,
2013-03-24 12:18:00,30.6,29.3,29.54,North,0,0.0,0.0,95,0.00,,,0.00,195.00,VWS V14.01,2013-03-24 16:18:00,
2013-03-24 12:19:00,30.6,29.3,29.54,NNE,23,0.0,0.0,95,0.00,,,0.00,192.00,VWS V14.01,2013-03-24 16:19:00,
2013-03-24 12:20:00,30.4,29.1,29.54,NE,47,0.0,0.0,95,0.00,,,0.00,185.00,VWS V14.01,2013-03-24 16:20:00,
2013-03-24 12:21:00,30.4,29.1,29.54,NNE,28,0.0,0.0,95,0.00,,,0.00,176.00,VWS V14.01,2013-03-24 16:21:00,
2013-03-24 12:22:00,30.4,29.1,29.54,NNE,25,0.0,0.0,95,0.00,,,0.00,187.00,VWS V14.01,2013-03-24 16:22:00,
2013-03-24 12:23:00,30.4,29.1,29.54,North,10,0.0,0.0,95,0.00,,,0.00,172.00,VWS V14.01,2013-03-24 16:23:00,
2013-03-24 12:24:00,30.4,29.1,29.54,NNE,16,0.0,0.0,95,0.00,,,0.00,183.00,VWS V14.01,2013-03-24 16:24:00,
2013-03-24 12:25:00,30.4,29.1,29.54,NNE,27,0.0,0.0,95,0.00,,,0.00,190.00,VWS V14.01,2013-03-24 16:25:00,
2013-03-24 12:26:00,30.4,29.1,29.54,North,0,0.0,0.0,95,0.00,,,0.00,183.00,VWS V14.01,2013-03-24 16:26:00,
2013-03-24 12:27:00,30.4,28.9,29.54,NNW,342,0.0,0.0,94,0.00,,,0.00,174.00,VWS V14.01,2013-03-24 16:27:00,
2013-03-24 12:28:00,30.4,29.1,29.54,North,10,0.0,0.0,95,0.00,,,0.00,172.00,VWS V14.01,2013-03-24 16:28:00,
2013-03-24 12:29:00,30.3,28.8,29.54,ENE,61,0.0,0.0,94,0.00,,,0.00,164.00,VWS V14.01,2013-03-24 16:29:00,
2013-03-24 12:30:00,30.3,28.8,29.53,NNE,23,0.0,0.0,94,0.00,,,0.00,178.00,VWS V14.01,2013-03-24 16:30:00,
2013-03-24 12:31:00,30.3,28.8,29.53,North,0,0.0,0.0,94,0.00,,,0.00,187.00,VWS V14.01,2013-03-24 16:31:00,
2013-03-24 12:32:00,30.3,28.8,29.53,NE,42,0.0,0.0,94,0.00,,,0.00,206.00,VWS V14.01,2013-03-24 16:32:00,
2013-03-24 12:33:00,30.3,28.8,29.54,NNE,20,0.0,0.0,94,0.00,,,0.00,167.00,VWS V14.01,2013-03-24 16:33:00,
2013-03-24 12:34:00,30.3,28.8,29.53,NE,42,0.0,0.0,94,0.00,,,0.00,215.00,VWS V14.01,2013-03-24 16:34:00,
2013-03-24 12:35:00,30.3,28.8,29.53,NE,35,0.0,0.0,94,0.00,,,0.00,229.00,VWS V14.01,2013-03-24 16:35:00,
2013-03-24 12:36:00,30.3,28.8,29.53,NNE,30,0.0,0.0,94,0.00,,,0.00,208.00,VWS V14.01,2013-03-24 16:36:00,
2013-03-24 12:37:00,30.3,28.8,29.53,NNE,31,0.0,0.0,94,0.00,,,0.00,204.00,VWS V14.01,2013-03-24 16:37:00,
2013-03-24 12:38:00,30.3,28.8,29.53,NE,41,0.0,0.0,94,0.00,,,0.00,201.00,VWS V14.01,2013-03-24 16:38:00,
2013-03-24 12:39:00,30.3,28.8,29.53,North,7,0.0,0.0,94,0.00,,,0.00,181.00,VWS V14.01,2013-03-24 16:39:00,
2013-03-24 12:40:00,30.3,28.8,29.53,NE,35,0.0,0.0,94,0.00,,,0.00,190.00,VWS V14.01,2013-03-24 16:40:00,
2013-03-24 12:41:00,30.3,28.8,29.53,NNE,21,0.0,0.0,94,0.00,,,0.00,172.00,VWS V14.01,2013-03-24 16:41:00,
2013-03-24 12:42:00,30.3,28.8,29.53,North,6,0.0,0.0,94,0.00,,,0.00,167.00,VWS V14.01,2013-03-24 16:42:00,
2013-03-24 12:43:00,30.3,28.8,29.53,NE,45,0.0,0.0,94,0.00,,,0.00,195.00,VWS V14.01,2013-03-24 16:43:00,
2013-03-24 12:44:00,30.4,28.9,29.53,NNE,25,0.0,0.0,94,0.00,,,0.00,146.00,VWS V14.01,2013-03-24 16:44:00,
2013-03-24 12:45:00,30.4,28.9,29.52,NNE,20,0.0,0.0,94,0.00,,,0.00,146.00,VWS V14.01,2013-03-24 16:45:00,
2013-03-24 12:46:00,30.3,28.8,29.52,NE,44,0.0,0.0,94,0.00,,,0.00,121.00,VWS V14.01,2013-03-24 16:46:00,
2013-03-24 12:47:00,30.3,28.8,29.52,North,0,0.0,0.0,94,0.00,,,0.00,125.00,VWS V14.01,2013-03-24 16:47:00,
2013-03-24 12:48:00,30.3,28.8,29.53,North,0,0.0,0.0,94,0.00,,,0.00,160.00,VWS V14.01,2013-03-24 16:48:00,
2013-03-24 12:49:00,30.1,28.6,29.52,NNW,346,0.0,0.0,94,0.00,,,0.00,128.00,VWS V14.01,2013-03-24 16:49:00,
2013-03-24 12:50:00,30.1,28.6,29.52,NE,37,0.0,0.0,94,0.00,,,0.00,125.00,VWS V14.01,2013-03-24 16:50:00,
2013-03-24 12:51:00,30.1,28.6,29.52,North,0,0.0,0.0,94,0.00,,,0.00,125.00,VWS V14.01,2013-03-24 16:51:00,
2013-03-24 12:52:00,30.1,28.6,29.52,NNE,16,0.0,0.0,94,0.00,,,0.00,134.00,VWS V14.01,2013-03-24 16:52:00,
2013-03-24 12:53:00,30.1,28.6,29.52,NNE,13,0.0,0.0,94,0.00,,,0.00,139.00,VWS V14.01,2013-03-24 16:53:00,
2013-03-24 12:54:00,30.1,28.6,29.52,NNW,346,0.0,0.0,94,0.00,,,0.00,128.00,VWS V14.01,2013-03-24 16:54:00,
2013-03-24 12:55:00,30.3,28.8,29.52,NE,45,0.0,0.0,94,0.00,,,0.00,157.00,VWS V14.01,2013-03-24 16:55:00,
2013-03-24 12:56:00,30.3,28.8,29.52,North,6,0.0,0.0,94,0.00,,,0.00,157.00,VWS V14.01,2013-03-24 16:56:00,
2013-03-24 12:57:00,30.3,28.8,29.52,North,0,0.0,0.0,94,0.00,,,0.00,151.00,VWS V14.01,2013-03-24 16:57:00,
2013-03-24 12:58:00,30.3,28.8,29.52,NNE,28,0.0,0.0,94,0.00,,,0.00,150.00,VWS V14.01,2013-03-24 16:58:00,
2013-03-24 12:59:00,30.3,28.8,29.52,NNE,20,0.0,0.0,94,0.00,,,0.00,141.00,VWS V14.01,2013-03-24 16:59:00,
2013-03-24 13:00:00,30.3,28.8,29.52,NE,45,0.0,0.0,94,0.00,,,0.00,157.00,VWS V14.01,2013-03-24 17:00:00,
2013-03-24 13:01:00,30.3,28.8,29.52,NNE,14,0.0,0.0,94,0.00,,,0.00,153.00,VWS V14.01,2013-03-24 17:01:00,
2013-03-24 13:02:00,30.3,28.8,29.52,NE,38,0.0,0.0,94,0.00,,,0.00,171.00,VWS V14.01,2013-03-24 17:02:00,
2013-03-24 13:03:00,30.3,28.8,29.52,NNE,17,0.0,0.0,94,0.00,,,0.00,185.00,VWS V14.01,2013-03-24 17:03:00,
2013-03-24 13:04:00,30.3,28.8,29.52,NNE,13,0.0,0.0,94,0.00,,,0.00,188.00,VWS V14.01,2013-03-24 17:04:00,
2013-03-24 13:05:00,30.3,28.8,29.52,North,359,0.0,0.0,94,0.00,,,0.00,143.00,VWS V14.01,2013-03-24 17:05:00,
2013-03-24 13:06:00,30.3,28.8,29.52,NNE,30,0.0,0.0,94,0.00,,,0.00,202.00,VWS V14.01,2013-03-24 17:06:00,
2013-03-24 13:07:00,30.3,28.8,29.52,NNE,31,0.0,0.0,94,0.00,,,0.00,201.00,VWS V14.01,2013-03-24 17:07:00,
2013-03-24 13:08:00,30.3,28.8,29.52,NNE,28,0.0,0.0,94,0.00,,,0.00,188.00,VWS V14.01,2013-03-24 17:08:00,
2013-03-24 13:09:00,30.3,28.8,29.52,NNE,18,0.0,0.0,94,0.00,,,0.00,185.00,VWS V14.01,2013-03-24 17:09:00,
2013-03-24 13:10:00,30.3,28.8,29.52,NE,37,0.0,0.0,94,0.00,,,0.00,199.00,VWS V14.01,2013-03-24 17:10:00,
2013-03-24 13:11:00,30.3,28.8,29.52,NNE,30,0.0,0.0,94,0.00,,,0.00,202.00,VWS V14.01,2013-03-24 17:11:00,
2013-03-24 13:12:00,30.3,28.8,29.52,NNE,28,0.0,0.0,94,0.00,,,0.00,208.00,VWS V14.01,2013-03-24 17:12:00,
2013-03-24 13:13:00,30.3,28.8,29.52,NNE,18,0.0,0.0,94,0.00,,,0.00,190.00,VWS V14.01,2013-03-24 17:13:00,
2013-03-24 13:14:00,30.3,28.8,29.52,NNE,31,0.0,0.0,94,0.00,,,0.00,181.00,VWS V14.01,2013-03-24 17:14:00,
2013-03-24 13:15:00,30.3,28.8,29.53,NE,47,0.0,0.0,94,0.00,,,0.00,171.00,VWS V14.01,2013-03-24 17:15:00,
2013-03-24 13:16:00,30.3,28.8,29.52,NE,56,0.0,0.0,94,0.00,,,0.00,215.00,VWS V14.01,2013-03-24 17:16:00,
2013-03-24 13:17:00,30.3,28.8,29.53,NNE,32,0.0,0.0,94,0.00,,,0.00,155.00,VWS V14.01,2013-03-24 17:17:00,
2013-03-24 13:18:00,30.4,29.1,29.53,NE,45,0.0,0.0,95,0.00,,,0.00,143.00,VWS V14.01,2013-03-24 17:18:00,
2013-03-24 13:19:00,30.3,29.0,29.53,North,6,0.0,0.0,95,0.00,,,0.00,146.00,VWS V14.01,2013-03-24 17:19:00,
2013-03-24 13:20:00,30.3,29.0,29.53,NNE,27,0.0,0.0,95,0.00,,,0.00,148.00,VWS V14.01,2013-03-24 17:20:00,
2013-03-24 13:21:00,30.3,29.0,29.53,NNE,14,0.0,0.0,95,0.00,,,0.00,153.00,VWS V14.01,2013-03-24 17:21:00,
2013-03-24 13:22:00,30.3,28.8,29.53,NNE,32,0.0,0.0,94,0.00,,,0.00,155.00,VWS V14.01,2013-03-24 17:22:00,
2013-03-24 13:23:00,30.4,29.1,29.53,North,10,0.0,0.0,95,0.00,,,0.00,164.00,VWS V14.01,2013-03-24 17:23:00,
2013-03-24 13:24:00,30.4,29.1,29.53,North,3,0.0,0.0,95,0.00,,,0.00,160.00,VWS V14.01,2013-03-24 17:24:00,
2013-03-24 13:25:00,30.3,29.0,29.53,North,0,0.0,0.0,95,0.00,,,0.00,155.00,VWS V14.01,2013-03-24 17:25:00,
2013-03-24 13:26:00,30.3,29.0,29.53,North,0,0.0,0.0,95,0.00,,,0.00,148.00,VWS V14.01,2013-03-24 17:26:00,
2013-03-24 13:27:00,30.3,29.0,29.53,North,0,0.0,0.0,95,0.00,,,0.00,143.00,VWS V14.01,2013-03-24 17:27:00,
2013-03-24 13:28:00,30.4,29.1,29.53,North,10,0.0,0.0,95,0.00,,,0.00,164.00,VWS V14.01,2013-03-24 17:28:00,
2013-03-24 13:29:00,30.3,29.0,29.53,North,11,0.0,0.0,95,0.00,,,0.00,155.00,VWS V14.01,2013-03-24 17:29:00,
2013-03-24 13:30:00,30.3,29.0,29.50,NE,35,0.0,0.0,95,0.00,,,0.00,158.00,VWS V14.01,2013-03-24 17:30:00,
2013-03-24 13:31:00,30.3,29.0,29.50,NE,34,0.0,0.0,95,0.00,,,0.00,164.00,VWS V14.01,2013-03-24 17:31:00,
2013-03-24 13:32:00,30.3,29.0,29.50,North,0,0.0,0.0,95,0.00,,,0.00,171.00,VWS V14.01,2013-03-24 17:32:00,
2013-03-24 13:33:00,30.3,29.0,29.53,North,0,0.0,0.0,95,0.00,,,0.00,148.00,VWS V14.01,2013-03-24 17:33:00,
2013-03-24 13:34:00,30.3,29.0,29.50,North,0,0.0,0.0,95,0.00,,,0.00,192.00,VWS V14.01,2013-03-24 17:34:00,
2013-03-24 13:35:00,30.3,29.0,29.50,NNE,17,0.0,0.0,95,0.00,,,0.00,199.00,VWS V14.01,2013-03-24 17:35:00,
2013-03-24 13:36:00,30.3,29.0,29.50,North,0,0.0,0.0,95,0.00,,,0.00,218.00,VWS V14.01,2013-03-24 17:36:00,
2013-03-24 13:37:00,30.3,29.0,29.50,NNE,16,0.0,0.0,95,0.00,,,0.00,238.00,VWS V14.01,2013-03-24 17:37:00,
2013-03-24 13:38:00,30.3,29.0,29.50,NE,41,0.0,0.0,95,0.01,,,0.01,248.00,VWS V14.01,2013-03-24 17:38:00,
2013-03-24 13:39:00,30.3,29.0,29.50,North,0,0.0,0.0,95,0.00,,,0.00,192.00,VWS V14.01,2013-03-24 17:39:00,
2013-03-24 13:40:00,30.4,29.1,29.50,North,0,0.0,0.0,95,0.01,,,0.01,252.00,VWS V14.01,2013-03-24 17:40:00,
2013-03-24 13:41:00,30.4,29.1,29.50,North,10,0.0,0.0,95,0.01,,,0.01,259.00,VWS V14.01,2013-03-24 17:41:00,
2013-03-24 13:42:00,30.4,29.1,29.50,NE,37,0.0,0.0,95,0.01,,,0.01,257.00,VWS V14.01,2013-03-24 17:42:00,
2013-03-24 13:43:00,30.4,29.1,29.50,NNE,21,0.0,0.0,95,0.01,,,0.01,252.00,VWS V14.01,2013-03-24 17:43:00,
2013-03-24 13:44:00,30.3,29.0,29.50,North,6,0.0,0.0,95,0.01,,,0.01,255.00,VWS V14.01,2013-03-24 17:44:00,
2013-03-24 13:45:00,30.4,29.1,29.50,NE,40,0.0,0.0,95,0.01,,,0.01,215.00,VWS V14.01,2013-03-24 17:45:00,
2013-03-24 13:46:00,30.4,29.1,29.50,NNE,27,0.0,0.0,95,0.01,,,0.01,209.00,VWS V14.01,2013-03-24 17:46:00,
2013-03-24 13:47:00,30.4,29.1,29.50,NNE,27,0.0,0.0,95,0.01,,,0.01,209.00,VWS V14.01,2013-03-24 17:47:00,
2013-03-24 13:48:00,30.4,29.1,29.50,North,8,0.0,0.0,95,0.01,,,0.01,202.00,VWS V14.01,2013-03-24 17:48:00,
2013-03-24 13:49:00,30.4,29.1,29.50,NE,54,0.0,0.0,95,0.01,,,0.01,234.00,VWS V14.01,2013-03-24 17:49:00,
2013-03-24 13:50:00,30.4,29.1,29.50,NNE,28,0.0,0.0,95,0.01,,,0.01,213.00,VWS V14.01,2013-03-24 17:50:00,
2013-03-24 13:51:00,30.4,29.1,29.50,NE,47,0.0,0.0,95,0.01,,,0.01,215.00,VWS V14.01,2013-03-24 17:51:00,
2013-03-24 13:52:00,30.4,29.1,29.50,North,4,0.0,0.0,95,0.01,,,0.01,225.00,VWS V14.01,2013-03-24 17:52:00,
2013-03-24 13:53:00,30.4,29.1,29.50,NNE,24,0.0,0.0,95,0.01,,,0.01,241.00,VWS V14.01,2013-03-24 17:53:00,
2013-03-24 13:54:00,30.4,29.1,29.50,NE,45,0.0,0.0,95,0.01,,,0.01,208.00,VWS V14.01,2013-03-24 17:54:00,
2013-03-24 13:55:00,30.4,29.1,29.50,North,3,0.0,0.0,95,0.01,,,0.01,255.00,VWS V14.01,2013-03-24 17:55:00,
2013-03-24 13:56:00,30.3,29.0,29.50,North,0,0.0,0.0,95,0.01,,,0.01,243.00,VWS V14.01,2013-03-24 17:56:00,
2013-03-24 13:57:00,30.3,29.0,29.50,North,7,0.0,0.0,95,0.01,,,0.01,216.00,VWS V14.01,2013-03-24 17:57:00,
2013-03-24 13:58:00,30.3,29.0,29.50,NE,40,0.0,0.0,95,0.01,,,0.01,216.00,VWS V14.01,2013-03-24 17:58:00,
2013-03-24 13:59:00,30.3,29.0,29.50,North,3,0.0,0.0,95,0.01,,,0.01,216.00,VWS V14.01,2013-03-24 17:59:00,
2013-03-24 14:00:00,30.4,29.1,29.50,North,3,0.0,0.0,95,0.01,,,0.01,255.00,VWS V14.01,2013-03-24 18:00:00,
2013-03-24 14:01:00,30.4,29.1,29.49,NNE,28,0.0,0.0,95,0.01,,,0.01,292.00,VWS V14.01,2013-03-24 18:01:00,
2013-03-24 14:02:00,30.4,29.1,29.49,NNE,20,0.0,0.0,95,0.01,,,0.01,299.00,VWS V14.01,2013-03-24 18:02:00,
2013-03-24 14:03:00,30.6,29.3,29.49,North,0,0.0,0.0,95,0.01,,,0.01,296.00,VWS V14.01,2013-03-24 18:03:00,
2013-03-24 14:04:00,30.6,29.3,29.49,NNE,21,0.0,0.0,95,0.02,,,0.02,292.00,VWS V14.01,2013-03-24 18:04:00,
2013-03-24 14:05:00,30.7,29.4,29.49,North,1,0.0,0.0,95,0.02,,,0.02,287.00,VWS V14.01,2013-03-24 18:05:00,
2013-03-24 14:06:00,30.4,29.1,29.49,NNE,28,0.0,0.0,95,0.01,,,0.01,292.00,VWS V14.01,2013-03-24 18:06:00,
2013-03-24 14:07:00,30.7,29.4,29.49,NNE,24,0.0,0.0,95,0.02,,,0.02,239.00,VWS V14.01,2013-03-24 18:07:00,
2013-03-24 14:08:00,30.7,29.4,29.49,NE,44,0.0,0.0,95,0.02,,,0.02,225.00,VWS V14.01,2013-03-24 18:08:00,
2013-03-24 14:09:00,30.7,29.4,29.49,NNE,24,0.0,0.0,95,0.02,,,0.02,215.00,VWS V14.01,2013-03-24 18:09:00,
2013-03-24 14:10:00,30.7,29.4,29.49,NNE,24,0.0,0.0,95,0.02,,,0.02,204.00,VWS V14.01,2013-03-24 18:10:00,
2013-03-24 14:11:00,30.7,29.4,29.49,NE,45,0.0,0.0,95,0.02,,,0.02,183.00,VWS V14.01,2013-03-24 18:11:00,
2013-03-24 14:12:00,30.7,29.4,29.49,NNE,24,0.0,0.0,95,0.02,,,0.02,239.00,VWS V14.01,2013-03-24 18:12:00,
2013-03-24 14:13:00,30.6,29.3,29.49,NNE,13,0.0,0.0,95,0.02,,,0.02,179.00,VWS V14.01,2013-03-24 18:13:00,
2013-03-24 14:14:00,30.6,29.3,29.49,North,6,0.0,0.0,95,0.02,,,0.02,176.00,VWS V14.01,2013-03-24 18:14:00,
2013-03-24 14:15:00,30.6,29.3,29.48,North,3,0.0,0.0,95,0.02,,,0.02,188.00,VWS V14.01,2013-03-24 18:15:00,
2013-03-24 14:16:00,30.6,29.3,29.48,NNE,27,0.0,0.0,95,0.02,,,0.02,190.00,VWS V14.01,2013-03-24 18:16:00,
2013-03-24 14:17:00,30.6,29.3,29.49,NE,48,0.0,0.0,95,0.02,,,0.02,181.00,VWS V14.01,2013-03-24 18:17:00,
2013-03-24 14:18:00,30.6,29.3,29.48,North,0,0.0,0.0,95,0.02,,,0.02,178.00,VWS V14.01,2013-03-24 18:18:00,
2013-03-24 14:19:00,30.6,29.3,29.48,North,11,0.0,0.0,95,0.02,,,0.02,162.00,VWS V14.01,2013-03-24 18:19:00,
2013-03-24 14:20:00,30.6,29.3,29.48,ENE,75,0.0,0.0,95,0.02,,,0.02,144.00,VWS V14.01,2013-03-24 18:20:00,
2013-03-24 14:21:00,30.6,29.3,29.48,NE,55,0.0,0.0,95,0.02,,,0.02,144.00,VWS V14.01,2013-03-24 18:21:00,
2013-03-24 14:22:00,30.4,29.1,29.48,NNE,28,0.0,0.0,95,0.02,,,0.02,121.00,VWS V14.01,2013-03-24 18:22:00,
2013-03-24 14:23:00,30.6,29.3,29.48,North,0,0.0,0.0,95,0.02,,,0.02,178.00,VWS V14.01,2013-03-24 18:23:00,
2013-03-24 14:24:00,30.4,29.1,29.48,North,11,0.0,0.0,95,0.02,,,0.02,109.00,VWS V14.01,2013-03-24 18:24:00,
2013-03-24 14:25:00,30.4,29.1,29.48,North,0,0.0,0.0,95,0.02,,,0.02,113.00,VWS V14.01,2013-03-24 18:25:00,
2013-03-24 14:26:00,30.6,29.3,29.48,North,0,0.0,0.0,95,0.03,,,0.03,118.00,VWS V14.01,2013-03-24 18:26:00,
2013-03-24 14:27:00,30.6,29.3,29.48,North,4,0.0,0.0,95,0.03,,,0.03,118.00,VWS V14.01,2013-03-24 18:27:00,
2013-03-24 14:28:00,30.4,29.1,29.48,NNE,30,0.0,0.0,95,0.02,,,0.02,111.00,VWS V14.01,2013-03-24 18:28:00,
2013-03-24 14:29:00,30.6,29.3,29.48,NNE,25,0.0,0.0,95,0.03,,,0.03,164.00,VWS V14.01,2013-03-24 18:29:00,
2013-03-24 14:30:00,30.6,29.3,29.48,NE,34,0.0,0.0,95,0.03,,,0.03,164.00,VWS V14.01,2013-03-24 18:30:00,
2013-03-24 14:31:00,30.4,29.1,29.48,NNE,30,0.0,0.0,95,0.03,,,0.03,157.00,VWS V14.01,2013-03-24 18:31:00,
2013-03-24 14:32:00,30.4,29.1,29.48,North,0,0.0,0.0,95,0.03,,,0.03,141.00,VWS V14.01,2013-03-24 18:32:00,
2013-03-24 14:33:00,30.6,29.3,29.48,North,0,0.0,0.0,95,0.03,,,0.03,155.00,VWS V14.01,2013-03-24 18:33:00,
2013-03-24 14:34:00,30.6,29.3,29.48,NNE,25,0.0,0.0,95,0.03,,,0.03,128.00,VWS V14.01,2013-03-24 18:34:00,
2013-03-24 14:35:00,30.6,29.3,29.48,North,7,0.0,0.0,95,0.03,,,0.03,123.00,VWS V14.01,2013-03-24 18:35:00,
2013-03-24 14:36:00,30.6,29.3,29.48,North,0,0.0,0.0,95,0.03,,,0.03,120.00,VWS V14.01,2013-03-24 18:36:00,
2013-03-24 14:37:00,30.6,29.3,29.48,North,0,0.0,0.0,95,0.03,,,0.03,118.00,VWS V14.01,2013-03-24 18:37:00,
2013-03-24 14:38:00,30.6,29.3,29.48,North,0,0.0,0.0,95,0.03,,,0.03,111.00,VWS V14.01,2013-03-24 18:38:00,
2013-03-24 14:39:00,30.6,29.3,29.48,NNE,25,0.0,0.0,95,0.03,,,0.03,128.00,VWS V14.01,2013-03-24 18:39:00,
2013-03-24 14:40:00,30.4,29.1,29.48,North,4,0.0,0.0,95,0.02,,,0.03,100.00,VWS V14.01,2013-03-24 18:40:00,
2013-03-24 14:41:00,30.4,29.1,29.48,NNE,20,0.0,0.0,95,0.02,,,0.03,95.00,VWS V14.01,2013-03-24 18:41:00,
2013-03-24 14:42:00,30.4,29.1,29.48,North,11,0.0,0.0,95,0.02,,,0.03,88.00,VWS V14.01,2013-03-24 18:42:00,
2013-03-24 14:43:00,30.4,29.1,29.48,North,7,0.0,0.0,95,0.02,,,0.03,86.00,VWS V14.01,2013-03-24 18:43:00,
2013-03-24 14:44:00,30.6,29.3,29.48,North,3,0.0,0.0,95,0.02,,,0.03,106.00,VWS V14.01,2013-03-24 18:44:00,
2013-03-24 14:45:00,30.4,29.1,29.49,North,0,0.0,0.0,95,0.02,,,0.03,79.00,VWS V14.01,2013-03-24 18:45:00,
2013-03-24 14:46:00,30.4,29.1,29.49,North,0,0.0,0.0,95,0.02,,,0.03,76.00,VWS V14.01,2013-03-24 18:46:00,
2013-03-24 14:47:00,30.4,29.1,29.49,North,1,0.0,0.0,95,0.03,,,0.04,72.00,VWS V14.01,2013-03-24 18:47:00,
2013-03-24 14:48:00,30.4,29.1,29.49,NNE,14,0.0,0.0,95,0.03,,,0.04,65.00,VWS V14.01,2013-03-24 18:48:00,
2013-03-24 14:49:00,30.3,29.0,29.49,North,4,0.0,0.0,95,0.03,,,0.04,62.00,VWS V14.01,2013-03-24 18:49:00,
2013-03-24 14:50:00,30.4,29.1,29.49,North,0,0.0,0.0,95,0.02,,,0.03,79.00,VWS V14.01,2013-03-24 18:50:00,
2013-03-24 14:51:00,30.4,29.1,29.49,NE,34,0.0,0.0,95,0.03,,,0.04,58.00,VWS V14.01,2013-03-24 18:51:00,
2013-03-24 14:52:00,30.4,29.1,29.49,NNE,32,0.0,0.0,95,0.03,,,0.04,58.00,VWS V14.01,2013-03-24 18:52:00,
2013-03-24 14:53:00,30.4,29.1,29.49,NNE,32,0.0,0.0,95,0.03,,,0.04,58.00,VWS V14.01,2013-03-24 18:53:00,
2013-03-24 14:54:00,30.4,29.1,29.49,NNE,30,0.0,0.0,95,0.03,,,0.04,56.00,VWS V14.01,2013-03-24 18:54:00,
2013-03-24 14:55:00,30.4,29.1,29.49,North,7,0.0,0.0,95,0.03,,,0.04,55.00,VWS V14.01,2013-03-24 18:55:00,
2013-03-24 14:56:00,30.4,29.1,29.49,NE,34,0.0,0.0,95,0.03,,,0.04,53.00,VWS V14.01,2013-03-24 18:56:00,
2013-03-24 14:57:00,30.4,29.1,29.49,NNE,32,0.0,0.0,95,0.03,,,0.04,58.00,VWS V14.01,2013-03-24 18:57:00,
2013-03-24 14:58:00,30.3,29.0,29.49,North,7,0.0,0.0,95,0.03,,,0.04,49.00,VWS V14.01,2013-03-24 18:58:00,
2013-03-24 14:59:00,30.3,29.0,29.49,North,7,0.0,0.0,95,0.03,,,0.04,48.00,VWS V14.01,2013-03-24 18:59:00,
2013-03-24 15:00:00,30.3,29.0,29.49,NE,49,0.0,0.0,95,0.03,,,0.04,48.00,VWS V14.01,2013-03-24 19:00:00,
2013-03-24 15:01:00,30.3,29.0,29.49,NE,47,0.0,0.0,95,0.03,,,0.04,48.00,VWS V14.01,2013-03-24 19:01:00,
2013-03-24 15:02:00,30.3,29.0,29.49,NE,38,0.0,0.0,95,0.03,,,0.04,51.00,VWS V14.01,2013-03-24 19:02:00,
2013-03-24 15:03:00,30.3,29.0,29.49,North,7,0.0,0.0,95,0.03,,,0.04,49.00,VWS V14.01,2013-03-24 19:03:00,
2013-03-24 15:04:00,30.3,29.0,29.49,NE,54,0.0,0.0,95,0.03,,,0.04,51.00,VWS V14.01,2013-03-24 19:04:00,
2013-03-24 15:05:00,30.3,29.0,29.49,NNE,31,0.0,0.0,95,0.02,,,0.04,49.00,VWS V14.01,2013-03-24 19:05:00,
2013-03-24 15:06:00,30.3,29.0,29.49,NNE,18,0.0,0.0,95,0.02,,,0.04,48.00,VWS V14.01,2013-03-24 19:06:00,
2013-03-24 15:07:00,30.3,29.0,29.49,NNE,18,0.0,0.0,95,0.02,,,0.04,46.00,VWS V14.01,2013-03-24 19:07:00,
2013-03-24 15:08:00,30.3,29.0,29.49,NNE,32,0.0,0.0,95,0.03,,,0.04,51.00,VWS V14.01,2013-03-24 19:08:00,
2013-03-24 15:09:00,30.3,29.0,29.49,NNE,28,0.0,0.0,95,0.02,,,0.04,46.00,VWS V14.01,2013-03-24 19:09:00,
2013-03-24 15:10:00,30.3,29.0,29.49,NNE,32,0.0,0.0,95,0.02,,,0.04,46.00,VWS V14.01,2013-03-24 19:10:00,
2013-03-24 15:11:00,30.3,29.0,29.49,NNE,31,0.0,0.0,95,0.02,,,0.04,35.00,VWS V14.01,2013-03-24 19:11:00,
2013-03-24 15:12:00,30.3,29.0,29.49,NE,47,0.0,0.0,95,0.02,,,0.04,35.00,VWS V14.01,2013-03-24 19:12:00,
2013-03-24 15:13:00,30.3,29.0,29.49,NE,41,0.0,0.0,95,0.02,,,0.04,35.00,VWS V14.01,2013-03-24 19:13:00,
2013-03-24 15:14:00,30.3,29.0,29.49,NNE,28,0.0,0.0,95,0.02,,,0.04,46.00,VWS V14.01,2013-03-24 19:14:00,
2013-03-24 15:15:00,30.3,29.0,29.49,NE,35,0.0,0.0,95,0.02,,,0.04,39.00,VWS V14.01,2013-03-24 19:15:00,
2013-03-24 15:16:00,30.3,29.0,29.49,NE,41,0.0,0.0,95,0.02,,,0.04,39.00,VWS V14.01,2013-03-24 19:16:00,
2013-03-24 15:17:00,30.3,29.0,29.49,NE,41,0.0,0.0,95,0.02,,,0.04,39.00,VWS V14.01,2013-03-24 19:17:00,
2013-03-24 15:18:00,30.3,29.0,29.49,ENE,62,0.0,0.0,95,0.02,,,0.04,39.00,VWS V14.01,2013-03-24 19:18:00,
2013-03-24 15:19:00,30.3,29.0,29.49,NE,41,0.0,0.0,95,0.02,,,0.04,35.00,VWS V14.01,2013-03-24 19:19:00,
2013-03-24 15:20:00,30.3,29.0,29.49,NNE,31,0.0,0.0,95,0.02,,,0.04,39.00,VWS V14.01,2013-03-24 19:20:00,
2013-03-24 15:21:00,30.3,29.0,29.49,NNE,31,0.0,0.0,95,0.02,,,0.04,39.00,VWS V14.01,2013-03-24 19:21:00,
2013-03-24 15:22:00,30.3,29.0,29.49,NE,55,0.0,0.0,95,0.02,,,0.04,39.00,VWS V14.01,2013-03-24 19:22:00,
2013-03-24 15:23:00,30.1,28.8,29.49,NNE,17,0.0,0.0,95,0.02,,,0.04,35.00,VWS V14.01,2013-03-24 19:23:00,
2013-03-24 15:24:00,30.1,28.8,29.49,NNE,14,0.0,0.0,95,0.02,,,0.04,35.00,VWS V14.01,2013-03-24 19:24:00,
2013-03-24 15:25:00,30.3,29.0,29.49,NNE,31,0.0,0.0,95,0.02,,,0.04,39.00,VWS V14.01,2013-03-24 19:25:00,
2013-03-24 15:26:00,30.1,28.8,29.49,NE,38,0.0,0.0,95,0.02,,,0.04,35.00,VWS V14.01,2013-03-24 19:26:00,
2013-03-24 15:27:00,30.1,28.8,29.49,NNE,21,0.0,0.0,95,0.01,,,0.04,35.00,VWS V14.01,2013-03-24 19:27:00,
2013-03-24 15:28:00,30.1,28.8,29.49,NNE,16,0.0,0.0,95,0.01,,,0.04,33.00,VWS V14.01,2013-03-24 19:28:00,
2013-03-24 15:29:00,30.1,28.8,29.49,North,11,0.0,0.0,95,0.01,,,0.04,33.00,VWS V14.01,2013-03-24 19:29:00,
2013-03-24 15:30:00,30.1,28.8,29.49,NNE,30,0.0,0.0,95,0.02,,,0.04,35.00,VWS V14.01,2013-03-24 19:30:00,
2013-03-24 15:31:00,30.1,28.8,29.46,NNE,25,0.0,0.0,95,0.01,,,0.04,33.00,VWS V14.01,2013-03-24 19:31:00,
2013-03-24 15:32:00,30.1,28.8,29.46,NE,34,0.0,0.0,95,0.01,,,0.04,37.00,VWS V14.01,2013-03-24 19:32:00,
2013-03-24 15:33:00,30.1,29.1,29.46,NNW,333,0.0,0.0,96,0.01,,,0.04,37.00,VWS V14.01,2013-03-24 19:33:00,
2013-03-24 15:34:00,30.1,29.1,29.46,NNW,342,0.0,0.0,96,0.01,,,0.04,37.00,VWS V14.01,2013-03-24 19:34:00,
2013-03-24 15:35:00,30.1,29.1,29.46,NNE,20,0.0,0.0,96,0.02,,,0.05,37.00,VWS V14.01,2013-03-24 19:35:00,
2013-03-24 15:36:00,30.1,28.8,29.46,NNE,25,0.0,0.0,95,0.01,,,0.04,33.00,VWS V14.01,2013-03-24 19:36:00,
2013-03-24 15:37:00,30.0,29.0,29.46,North,0,0.0,0.0,96,0.02,,,0.05,51.00,VWS V14.01,2013-03-24 19:37:00,
2013-03-24 15:38:00,30.0,29.0,29.46,North,0,0.0,0.0,96,0.02,,,0.05,51.00,VWS V14.01,2013-03-24 19:38:00,
2013-03-24 15:39:00,30.0,29.0,29.46,North,0,0.0,0.0,96,0.02,,,0.05,51.00,VWS V14.01,2013-03-24 19:39:00,
2013-03-24 15:40:00,29.8,28.8,29.46,NNE,24,0.0,0.0,96,0.02,,,0.05,63.00,VWS V14.01,2013-03-24 19:40:00,
2013-03-24 15:41:00,29.8,28.8,29.46,NNE,21,0.0,0.0,96,0.02,,,0.05,70.00,VWS V14.01,2013-03-24 19:41:00,
2013-03-24 15:42:00,30.0,29.0,29.46,North,0,0.0,0.0,96,0.02,,,0.05,51.00,VWS V14.01,2013-03-24 19:42:00,
2013-03-24 15:43:00,30.0,29.0,29.46,North,0,0.0,0.0,96,0.02,,,0.05,79.00,VWS V14.01,2013-03-24 19:43:00,
2013-03-24 15:44:00,30.0,29.0,29.46,North,6,0.0,0.0,96,0.02,,,0.05,83.00,VWS V14.01,2013-03-24 19:44:00,
2013-03-24 15:45:00,30.0,29.0,29.46,NNE,18,0.0,0.0,96,0.02,,,0.05,88.00,VWS V14.01,2013-03-24 19:45:00,
2013-03-24 15:46:00,30.0,29.0,29.46,North,10,0.0,0.0,96,0.02,,,0.05,95.00,VWS V14.01,2013-03-24 19:46:00,
2013-03-24 15:47:00,30.0,29.0,29.46,North,1,0.0,0.0,96,0.02,,,0.05,107.00,VWS V14.01,2013-03-24 19:47:00,
2013-03-24 15:48:00,30.0,29.0,29.46,North,0,0.0,0.0,96,0.02,,,0.05,79.00,VWS V14.01,2013-03-24 19:48:00,
2013-03-24 15:49:00,30.0,29.0,29.46,NNE,18,0.0,0.0,96,0.01,,,0.05,120.00,VWS V14.01,2013-03-24 19:49:00,
2013-03-24 15:50:00,30.0,29.0,29.46,North,0,0.0,0.0,96,0.01,,,0.05,128.00,VWS V14.01,2013-03-24 19:50:00,
2013-03-24 15:51:00,30.0,29.0,29.46,NNE,13,0.0,0.0,96,0.01,,,0.05,139.00,VWS V14.01,2013-03-24 19:51:00,
2013-03-24 15:52:00,30.0,29.0,29.46,NNE,23,0.0,0.0,96,0.01,,,0.05,150.00,VWS V14.01,2013-03-24 19:52:00,
2013-03-24 15:53:00,30.0,29.0,29.46,NE,40,0.0,0.0,96,0.01,,,0.05,148.00,VWS V14.01,2013-03-24 19:53:00,
2013-03-24 15:54:00,30.0,29.0,29.46,NNE,18,0.0,0.0,96,0.01,,,0.05,120.00,VWS V14.01,2013-03-24 19:54:00,
2013-03-24 15:55:00,30.0,29.0,29.46,NNE,13,0.0,0.0,96,0.01,,,0.05,135.00,VWS V14.01,2013-03-24 19:55:00,
2013-03-24 15:56:00,30.1,29.1,29.46,North,0,0.0,0.0,96,0.01,,,0.05,121.00,VWS V14.01,2013-03-24 19:56:00,
2013-03-24 15:57:00,30.1,29.1,29.46,North,7,0.0,0.0,96,0.01,,,0.05,111.00,VWS V14.01,2013-03-24 19:57:00,
2013-03-24 15:58:00,30.1,29.1,29.46,NNE,20,0.0,0.0,96,0.01,,,0.05,109.00,VWS V14.01,2013-03-24 19:58:00,
2013-03-24 15:59:00,30.0,29.0,29.46,NNE,13,0.0,0.0,96,0.01,,,0.05,143.00,VWS V14.01,2013-03-24 19:59:00,
2013-03-24 16:00:00,30.1,29.1,29.44,NNE,27,0.0,0.0,96,0.01,,,0.05,106.00,VWS V14.01,2013-03-24 20:00:00,
2013-03-24 16:01:00,30.1,29.1,29.44,North,8,0.0,0.0,96,0.01,,,0.05,99.00,VWS V14.01,2013-03-24 20:01:00,
2013-03-24 16:02:00,30.1,29.1,29.44,North,7,0.0,0.0,96,0.01,,,0.05,95.00,VWS V14.01,2013-03-24 20:02:00,
2013-03-24 16:03:00,30.1,29.1,29.44,North,0,0.0,0.0,96,0.01,,,0.05,93.00,VWS V14.01,2013-03-24 20:03:00,
2013-03-24 16:04:00,30.1,29.1,29.44,North,8,0.0,0.0,96,0.01,,,0.05,97.00,VWS V14.01,2013-03-24 20:04:00,
2013-03-24 16:05:00,30.1,29.1,29.44,NNE,27,0.0,0.0,96,0.01,,,0.05,106.00,VWS V14.01,2013-03-24 20:05:00,
2013-03-24 16:06:00,30.1,29.1,29.44,NNE,24,0.0,0.0,96,0.01,,,0.05,100.00,VWS V14.01,2013-03-24 20:06:00,
2013-03-24 16:07:00,30.1,29.1,29.44,North,0,0.0,0.0,96,0.01,,,0.05,99.00,VWS V14.01,2013-03-24 20:07:00,
2013-03-24 16:08:00,30.1,29.1,29.44,NNW,335,0.0,0.0,96,0.01,,,0.05,95.00,VWS V14.01,2013-03-24 20:08:00,
2013-03-24 16:09:00,30.1,29.1,29.44,North,0,0.0,0.0,96,0.01,,,0.05,95.00,VWS V14.01,2013-03-24 20:09:00,
2013-03-24 16:10:00,30.1,29.1,29.44,NNE,23,0.0,0.0,96,0.01,,,0.05,102.00,VWS V14.01,2013-03-24 20:10:00,
2013-03-24 16:11:00,30.1,29.1,29.44,NNE,21,0.0,0.0,96,0.01,,,0.05,93.00,VWS V14.01,2013-03-24 20:11:00,
2013-03-24 16:12:00,30.1,29.1,29.44,North,7,0.0,0.0,96,0.01,,,0.05,91.00,VWS V14.01,2013-03-24 20:12:00,
2013-03-24 16:13:00,30.1,29.1,29.44,North,0,0.0,0.0,96,0.01,,,0.05,91.00,VWS V14.01,2013-03-24 20:13:00,
2013-03-24 16:14:00,30.1,29.1,29.44,North,0,0.0,0.0,96,0.01,,,0.05,93.00,VWS V14.01,2013-03-24 20:14:00,
2013-03-24 16:15:00,30.1,29.1,29.44,North,4,0.0,0.0,96,0.01,,,0.05,93.00,VWS V14.01,2013-03-24 20:15:00,
2013-03-24 16:16:00,30.0,29.0,29.42,North,0,0.0,0.0,96,0.01,,,0.05,84.00,VWS V14.01,2013-03-24 20:16:00,
2013-03-24 16:17:00,30.0,29.0,29.42,North,0,0.0,0.0,96,0.01,,,0.05,83.00,VWS V14.01,2013-03-24 20:17:00,
2013-03-24 16:18:00,30.0,29.0,29.42,North,0,0.0,0.0,96,0.02,,,0.06,93.00,VWS V14.01,2013-03-24 20:18:00,
2013-03-24 16:19:00,30.0,29.0,29.42,North,0,0.0,0.0,96,0.02,,,0.06,95.00,VWS V14.01,2013-03-24 20:19:00,
2013-03-24 16:20:00,30.0,29.0,29.42,North,0,0.0,0.0,96,0.02,,,0.06,102.00,VWS V14.01,2013-03-24 20:20:00,
2013-03-24 16:21:00,30.0,29.0,29.42,North,0,0.0,0.0,96,0.02,,,0.06,114.00,VWS V14.01,2013-03-24 20:21:00,
2013-03-24 16:22:00,30.1,29.1,29.42,North,0,0.0,0.0,96,0.02,,,0.06,146.00,VWS V14.01,2013-03-24 20:22:00,
2013-03-24 16:23:00,30.1,29.1,29.42,North,0,0.0,0.0,96,0.02,,,0.06,185.00,VWS V14.01,2013-03-24 20:23:00,
2013-03-24 16:24:00,30.1,29.1,29.42,North,0,0.0,0.0,96,0.02,,,0.06,190.00,VWS V14.01,2013-03-24 20:24:00,
2013-03-24 16:25:00,30.1,29.1,29.42,North,0,0.0,0.0,96,0.02,,,0.06,190.00,VWS V14.01,2013-03-24 20:25:00,
2013-03-24 16:26:00,30.1,29.1,29.42,North,0,0.0,0.0,96,0.02,,,0.06,188.00,VWS V14.01,2013-03-24 20:26:00,
2013-03-24 16:27:00,30.1,29.1,29.42,North,0,0.0,0.0,96,0.02,,,0.06,197.00,VWS V14.01,2013-03-24 20:27:00,
2013-03-24 16:28:00,30.1,29.1,29.42,North,0,0.0,0.0,96,0.02,,,0.06,208.00,VWS V14.01,2013-03-24 20:28:00,
2013-03-24 16:29:00,30.1,29.1,29.42,North,0,0.0,0.0,96,0.02,,,0.06,204.00,VWS V14.01,2013-03-24 20:29:00,
2013-03-24 16:30:00,30.3,29.3,29.41,North,0,0.0,0.0,96,0.02,,,0.06,197.00,VWS V14.01,2013-03-24 20:30:00,
2013-03-24 16:31:00,30.1,29.1,29.41,North,0,0.0,0.0,96,0.02,,,0.06,190.00,VWS V14.01,2013-03-24 20:31:00,
2013-03-24 16:32:00,30.3,29.3,29.41,North,0,0.0,0.0,96,0.02,,,0.06,174.00,VWS V14.01,2013-03-24 20:32:00,
2013-03-24 16:33:00,30.3,29.3,29.41,North,0,0.0,0.0,96,0.02,,,0.06,164.00,VWS V14.01,2013-03-24 20:33:00,
2013-03-24 16:34:00,30.3,29.3,29.41,North,0,0.0,0.0,96,0.02,,,0.06,171.00,VWS V14.01,2013-03-24 20:34:00,
2013-03-24 16:35:00,30.3,29.3,29.41,North,0,0.0,0.0,96,0.02,,,0.06,171.00,VWS V14.01,2013-03-24 20:35:00,
2013-03-24 16:36:00,30.3,29.3,29.41,North,0,0.0,0.0,96,0.01,,,0.06,176.00,VWS V14.01,2013-03-24 20:36:00,
2013-03-24 16:37:00,30.4,29.4,29.41,North,0,0.0,0.0,96,0.01,,,0.06,192.00,VWS V14.01,2013-03-24 20:37:00,
2013-03-24 16:38:00,30.4,29.4,29.41,North,0,0.0,0.0,96,0.01,,,0.06,225.00,VWS V14.01,2013-03-24 20:38:00,
2013-03-24 16:42:00,30.4,29.4,29.41,North,0,0.0,0.0,96,0.01,,,0.06,225.00,VWS V14.01,2013-03-24 20:42:00,
2013-03-24 16:43:00,30.4,29.4,29.41,North,0,0.0,0.0,96,0.01,,,0.06,225.00,VWS V14.01,2013-03-24 20:43:00,
2013-03-24 16:44:00,30.6,29.6,29.41,North,0,0.0,0.0,96,0.01,,,0.06,225.00,VWS V14.01,2013-03-24 20:44:00,
2013-03-24 16:45:00,30.6,29.6,29.41,North,0,0.0,0.0,96,0.01,,,0.06,260.00,VWS V14.01,2013-03-24 20:45:00,
2013-03-24 16:46:00,30.6,29.6,29.41,North,0,0.0,0.0,96,0.01,,,0.06,241.00,VWS V14.01,2013-03-24 20:46:00,
2013-03-24 16:47:00,30.6,29.6,29.41,North,0,0.0,0.0,96,0.01,,,0.06,219.00,VWS V14.01,2013-03-24 20:47:00,
2013-03-24 16:48:00,30.6,29.6,29.41,North,0,0.0,0.0,96,0.01,,,0.06,206.00,VWS V14.01,2013-03-24 20:48:00,
2013-03-24 16:49:00,30.6,29.6,29.41,North,0,0.0,0.0,96,0.01,,,0.06,195.00,VWS V14.01,2013-03-24 20:49:00,
2013-03-24 16:50:00,30.7,29.7,29.41,North,0,0.0,0.0,96,0.01,,,0.06,187.00,VWS V14.01,2013-03-24 20:50:00,
2013-03-24 16:51:00,30.7,29.7,29.41,North,0,0.0,0.0,96,0.01,,,0.06,179.00,VWS V14.01,2013-03-24 20:51:00,
2013-03-24 16:52:00,30.7,29.7,29.41,North,0,0.0,0.0,96,0.01,,,0.06,175.00,VWS V14.01,2013-03-24 20:52:00,
2013-03-24 16:53:00,30.7,29.7,29.41,North,0,0.0,0.0,96,0.01,,,0.06,178.00,VWS V14.01,2013-03-24 20:53:00,
2013-03-24 16:54:00,30.7,29.7,29.41,North,0,0.0,0.0,96,0.01,,,0.06,176.00,VWS V14.01,2013-03-24 20:54:00,
2013-03-24 16:55:00,30.8,29.8,29.41,North,0,0.0,0.0,96,0.01,,,0.06,174.00,VWS V14.01,2013-03-24 20:55:00,
2013-03-24 16:56:00,30.9,29.9,29.41,North,0,0.0,0.0,96,0.01,,,0.06,169.00,VWS V14.01,2013-03-24 20:56:00,
2013-03-24 16:57:00,30.9,29.9,29.41,North,0,0.0,0.0,96,0.01,,,0.06,162.00,VWS V14.01,2013-03-24 20:57:00,
2013-03-24 16:58:00,30.8,29.8,29.41,North,0,0.0,0.0,96,0.02,,,0.07,148.00,VWS V14.01,2013-03-24 20:58:00,
2013-03-24 16:59:00,30.7,29.7,29.41,North,0,0.0,0.0,96,0.02,,,0.07,139.00,VWS V14.01,2013-03-24 20:59:00,
2013-03-24 17:00:00,30.7,29.7,29.40,North,0,0.0,0.0,96,0.02,,,0.07,139.00,VWS V14.01,2013-03-24 21:00:00,
2013-03-24 17:01:00,30.7,29.7,29.40,North,0,0.0,0.0,96,0.02,,,0.07,134.00,VWS V14.01,2013-03-24 21:01:00,
2013-03-24 17:02:00,30.7,29.7,29.40,North,0,0.0,0.0,96,0.02,,,0.07,128.00,VWS V14.01,2013-03-24 21:02:00,
2013-03-24 17:03:00,30.7,29.7,29.40,North,0,0.0,0.0,96,0.02,,,0.07,127.00,VWS V14.01,2013-03-24 21:03:00,
2013-03-24 17:04:00,30.7,29.7,29.40,North,0,0.0,0.0,96,0.02,,,0.07,127.00,VWS V14.01,2013-03-24 21:04:00,
2013-03-24 17:05:00,30.9,29.9,29.40,North,0,0.0,0.0,96,0.02,,,0.07,130.00,VWS V14.01,2013-03-24 21:05:00,
2013-03-24 17:06:00,30.9,29.9,29.40,North,0,0.0,0.0,96,0.02,,,0.07,134.00,VWS V14.01,2013-03-24 21:06:00,
2013-03-24 17:07:00,30.9,29.9,29.40,North,0,0.0,0.0,96,0.02,,,0.07,146.00,VWS V14.01,2013-03-24 21:07:00,
2013-03-24 17:08:00,30.9,29.9,29.40,North,0,0.0,0.0,96,0.02,,,0.07,157.00,VWS V14.01,2013-03-24 21:08:00,
2013-03-24 17:09:00,30.9,29.9,29.40,North,0,0.0,0.0,96,0.02,,,0.07,158.00,VWS V14.01,2013-03-24 21:09:00,
2013-03-24 17:10:00,30.9,29.6,29.40,North,0,0.0,0.0,95,0.02,,,0.07,162.00,VWS V14.01,2013-03-24 21:10:00,
2013-03-24 17:11:00,30.9,29.6,29.40,North,0,0.0,0.0,95,0.02,,,0.07,174.00,VWS V14.01,2013-03-24 21:11:00,
2013-03-24 17:12:00,30.9,29.6,29.40,North,0,0.0,0.0,95,0.02,,,0.07,204.00,VWS V14.01,2013-03-24 21:12:00,
2013-03-24 17:13:00,30.9,29.6,29.40,North,0,0.0,0.0,95,0.02,,,0.07,245.00,VWS V14.01,2013-03-24 21:13:00,
2013-03-24 17:14:00,30.9,29.6,29.40,North,0,0.0,0.0,95,0.02,,,0.07,253.00,VWS V14.01,2013-03-24 21:14:00,
2013-03-24 17:15:00,30.9,29.6,29.39,North,0,0.0,0.0,95,0.02,,,0.07,239.00,VWS V14.01,2013-03-24 21:15:00,
2013-03-24 17:16:00,31.0,29.7,29.39,North,0,0.0,0.0,95,0.02,,,0.07,220.00,VWS V14.01,2013-03-24 21:16:00,
2013-03-24 17:17:00,31.0,29.7,29.39,North,0,0.0,0.0,95,0.02,,,0.07,189.00,VWS V14.01,2013-03-24 21:17:00,
2013-03-24 17:18:00,31.0,29.7,29.39,North,0,0.0,0.0,95,0.02,,,0.07,158.00,VWS V14.01,2013-03-24 21:18:00,
2013-03-24 17:19:00,31.2,29.9,29.39,North,0,0.0,0.0,95,0.01,,,0.07,144.00,VWS V14.01,2013-03-24 21:19:00,
2013-03-24 17:20:00,31.0,29.7,29.39,North,0,0.0,0.0,95,0.01,,,0.07,139.00,VWS V14.01,2013-03-24 21:20:00,
2013-03-24 17:21:00,31.1,29.8,29.39,North,0,0.0,0.0,95,0.01,,,0.07,137.00,VWS V14.01,2013-03-24 21:21:00,
2013-03-24 17:22:00,31.0,29.7,29.39,North,0,0.0,0.0,95,0.02,,,0.08,132.00,VWS V14.01,2013-03-24 21:22:00,
2013-03-24 17:23:00,31.0,29.7,29.39,North,0,0.0,0.0,95,0.02,,,0.08,116.00,VWS V14.01,2013-03-24 21:23:00,
2013-03-24 17:24:00,31.0,29.7,29.39,North,0,0.0,0.0,95,0.02,,,0.08,118.00,VWS V14.01,2013-03-24 21:24:00,
2013-03-24 17:25:00,31.0,29.7,29.39,North,0,0.0,0.0,95,0.02,,,0.08,121.00,VWS V14.01,2013-03-24 21:25:00,
2013-03-24 17:26:00,31.0,29.7,29.39,North,0,0.0,0.0,95,0.02,,,0.08,121.00,VWS V14.01,2013-03-24 21:26:00,
2013-03-24 17:27:00,31.0,29.7,29.39,North,0,0.0,0.0,95,0.02,,,0.08,112.00,VWS V14.01,2013-03-24 21:27:00,
2013-03-24 17:28:00,31.0,29.7,29.39,North,0,0.0,0.0,95,0.02,,,0.08,106.00,VWS V14.01,2013-03-24 21:28:00,
2013-03-24 17:29:00,31.0,29.7,29.39,North,0,0.0,0.0,95,0.02,,,0.08,106.00,VWS V14.01,2013-03-24 21:29:00,
2013-03-24 17:30:00,31.1,29.8,29.39,North,0,0.0,0.0,95,0.02,,,0.08,106.00,VWS V14.01,2013-03-24 21:30:00,
2013-03-24 17:31:00,31.2,29.9,29.39,North,0,0.0,0.0,95,0.02,,,0.08,102.00,VWS V14.01,2013-03-24 21:31:00,
2013-03-24 17:32:00,31.2,29.9,29.39,North,0,0.0,0.0,95,0.02,,,0.08,95.00,VWS V14.01,2013-03-24 21:32:00,
2013-03-24 17:33:00,31.2,29.9,29.39,North,0,0.0,0.0,95,0.02,,,0.08,95.00,VWS V14.01,2013-03-24 21:33:00,
2013-03-24 17:34:00,31.2,29.7,29.39,North,0,0.0,0.0,94,0.02,,,0.08,100.00,VWS V14.01,2013-03-24 21:34:00,
2013-03-24 17:35:00,31.1,29.6,29.39,North,0,0.0,0.0,94,0.02,,,0.08,104.00,VWS V14.01,2013-03-24 21:35:00,
2013-03-24 17:36:00,31.0,29.5,29.39,North,0,0.0,0.0,94,0.02,,,0.08,107.00,VWS V14.01,2013-03-24 21:36:00,
2013-03-24 17:37:00,31.2,29.7,29.39,North,0,0.0,0.0,94,0.02,,,0.08,113.00,VWS V14.01,2013-03-24 21:37:00,
2013-03-24 17:38:00,31.2,29.7,29.39,North,0,0.0,0.0,94,0.02,,,0.08,104.00,VWS V14.01,2013-03-24 21:38:00,
2013-03-24 17:39:00,31.2,29.7,29.39,North,0,0.0,0.0,94,0.02,,,0.08,102.00,VWS V14.01,2013-03-24 21:39:00,
2013-03-24 17:40:00,31.2,29.7,29.39,North,0,0.0,0.0,94,0.02,,,0.08,93.00,VWS V14.01,2013-03-24 21:40:00,
2013-03-24 17:41:00,31.2,29.7,29.39,North,0,0.0,0.0,94,0.02,,,0.08,86.00,VWS V14.01,2013-03-24 21:41:00,
2013-03-24 17:42:00,31.2,29.7,29.39,North,0,0.0,0.0,94,0.02,,,0.08,81.00,VWS V14.01,2013-03-24 21:42:00,
2013-03-24 17:43:00,31.2,29.7,29.39,North,0,0.0,0.0,94,0.02,,,0.08,74.00,VWS V14.01,2013-03-24 21:43:00,
2013-03-24 17:44:00,31.2,29.7,29.39,North,0,0.0,0.0,94,0.02,,,0.08,76.00,VWS V14.01,2013-03-24 21:44:00,
2013-03-24 17:45:00,31.2,29.7,29.37,North,0,0.0,0.0,94,0.02,,,0.08,69.00,VWS V14.01,2013-03-24 21:45:00,
2013-03-24 17:46:00,31.2,29.7,29.37,North,0,0.0,0.0,94,0.02,,,0.08,65.00,VWS V14.01,2013-03-24 21:46:00,
2013-03-24 17:47:00,31.2,29.7,29.37,North,0,0.0,0.0,94,0.02,,,0.08,65.00,VWS V14.01,2013-03-24 21:47:00,
2013-03-24 17:48:00,31.2,29.7,29.37,North,0,0.0,0.0,94,0.02,,,0.08,70.00,VWS V14.01,2013-03-24 21:48:00,
2013-03-24 17:49:00,31.2,29.7,29.37,North,0,0.0,0.0,94,0.02,,,0.08,74.00,VWS V14.01,2013-03-24 21:49:00,
2013-03-24 17:50:00,31.2,29.7,29.37,North,0,0.0,0.0,94,0.02,,,0.08,74.00,VWS V14.01,2013-03-24 21:50:00,
2013-03-24 17:51:00,31.2,29.9,29.37,North,0,0.0,0.0,95,0.02,,,0.08,76.00,VWS V14.01,2013-03-24 21:51:00,
2013-03-24 17:52:00,31.3,30.0,29.37,North,0,0.0,0.0,95,0.02,,,0.08,70.00,VWS V14.01,2013-03-24 21:52:00,
2013-03-24 17:53:00,31.3,30.0,29.37,North,0,0.0,0.0,95,0.02,,,0.08,72.00,VWS V14.01,2013-03-24 21:53:00,
2013-03-24 17:54:00,31.3,30.0,29.37,North,0,0.0,0.0,95,0.02,,,0.08,76.00,VWS V14.01,2013-03-24 21:54:00,
2013-03-24 17:55:00,31.3,30.0,29.37,North,0,0.0,0.0,95,0.02,,,0.08,74.00,VWS V14.01,2013-03-24 21:55:00,
2013-03-24 17:56:00,31.3,30.0,29.37,North,0,0.0,0.0,95,0.02,,,0.08,74.00,VWS V14.01,2013-03-24 21:56:00,
2013-03-24 17:57:00,31.3,30.0,29.37,North,0,0.0,0.0,95,0.02,,,0.08,72.00,VWS V14.01,2013-03-24 21:57:00,
2013-03-24 17:58:00,31.3,30.0,29.37,North,0,0.0,0.0,95,0.03,,,0.09,74.00,VWS V14.01,2013-03-24 21:58:00,
2013-03-24 17:59:00,31.3,30.0,29.37,North,0,0.0,0.0,95,0.02,,,0.09,69.00,VWS V14.01,2013-03-24 21:59:00,
2013-03-24 18:00:00,31.3,30.0,29.37,North,0,0.0,0.0,95,0.02,,,0.09,65.00,VWS V14.01,2013-03-24 22:00:00,
2013-03-24 18:01:00,31.3,30.0,29.37,North,0,0.0,0.0,95,0.02,,,0.09,62.00,VWS V14.01,2013-03-24 22:01:00,
2013-03-24 18:02:00,31.3,30.0,29.37,North,0,0.0,0.0,95,0.02,,,0.09,58.00,VWS V14.01,2013-03-24 22:02:00,
2013-03-24 18:03:00,31.4,30.1,29.37,North,0,0.0,0.0,95,0.02,,,0.09,53.00,VWS V14.01,2013-03-24 22:03:00,
2013-03-24 18:04:00,31.5,30.2,29.37,North,0,0.0,0.0,95,0.02,,,0.09,51.00,VWS V14.01,2013-03-24 22:04:00,
2013-03-24 18:05:00,31.5,30.2,29.37,North,0,0.0,0.0,95,0.02,,,0.09,49.00,VWS V14.01,2013-03-24 22:05:00,
2013-03-24 18:06:00,31.4,30.1,29.37,North,0,0.0,0.0,95,0.02,,,0.09,51.00,VWS V14.01,2013-03-24 22:06:00,
2013-03-24 18:07:00,31.3,30.0,29.37,North,0,0.0,0.0,95,0.02,,,0.09,54.00,VWS V14.01,2013-03-24 22:07:00,
2013-03-24 18:08:00,31.3,30.0,29.37,North,0,0.0,0.0,95,0.02,,,0.09,56.00,VWS V14.01,2013-03-24 22:08:00,
2013-03-24 18:09:00,31.3,30.0,29.37,North,0,0.0,0.0,95,0.02,,,0.09,58.00,VWS V14.01,2013-03-24 22:09:00,
2013-03-24 18:10:00,31.3,30.0,29.37,North,0,0.0,0.0,95,0.02,,,0.09,55.00,VWS V14.01,2013-03-24 22:10:00,
2013-03-24 18:11:00,31.3,30.0,29.37,North,0,0.0,0.0,95,0.02,,,0.09,51.00,VWS V14.01,2013-03-24 22:11:00,
2013-03-24 18:12:00,31.3,30.0,29.37,North,0,0.0,0.0,95,0.02,,,0.09,50.00,VWS V14.01,2013-03-24 22:12:00,
2013-03-24 18:13:00,31.3,30.0,29.37,North,0,0.0,0.0,95,0.02,,,0.09,49.00,VWS V14.01,2013-03-24 22:13:00,
2013-03-24 18:14:00,31.3,30.0,29.37,North,0,0.0,0.0,95,0.02,,,0.09,51.00,VWS V14.01,2013-03-24 22:14:00,
2013-03-24 18:15:00,31.4,30.1,29.36,North,0,0.0,0.0,95,0.02,,,0.09,46.00,VWS V14.01,2013-03-24 22:15:00,
2013-03-24 18:16:00,31.5,30.2,29.36,North,0,0.0,0.0,95,0.02,,,0.09,42.00,VWS V14.01,2013-03-24 22:16:00,
2013-03-24 18:17:00,31.5,30.2,29.36,North,0,0.0,0.0,95,0.02,,,0.09,40.00,VWS V14.01,2013-03-24 22:17:00,
2013-03-24 18:18:00,31.4,30.1,29.36,North,0,0.0,0.0,95,0.02,,,0.09,32.00,VWS V14.01,2013-03-24 22:18:00,
2013-03-24 18:19:00,31.3,30.0,29.36,North,0,0.0,0.0,95,0.02,,,0.09,28.00,VWS V14.01,2013-03-24 22:19:00,
2013-03-24 18:20:00,31.3,30.0,29.36,North,0,0.0,0.0,95,0.02,,,0.09,32.00,VWS V14.01,2013-03-24 22:20:00,
2013-03-24 18:21:00,31.3,30.0,29.36,North,0,0.0,0.0,95,0.02,,,0.09,35.00,VWS V14.01,2013-03-24 22:21:00,
2013-03-24 18:22:00,31.5,30.2,29.36,North,0,0.0,0.0,95,0.02,,,0.09,33.00,VWS V14.01,2013-03-24 22:22:00,
2013-03-24 18:23:00,31.5,30.2,29.36,North,0,0.0,0.0,95,0.01,,,0.09,33.00,VWS V14.01,2013-03-24 22:23:00,
2013-03-24 18:24:00,31.5,30.2,29.36,North,0,0.0,0.0,95,0.01,,,0.09,33.00,VWS V14.01,2013-03-24 22:24:00,
2013-03-24 18:25:00,31.5,30.2,29.36,North,0,0.0,0.0,95,0.01,,,0.09,33.00,VWS V14.01,2013-03-24 22:25:00,
2013-03-24 18:26:00,31.5,30.2,29.36,North,0,0.0,0.0,95,0.01,,,0.09,21.00,VWS V14.01,2013-03-24 22:26:00,
2013-03-24 18:27:00,31.5,30.2,29.36,North,0,0.0,0.0,95,0.01,,,0.09,21.00,VWS V14.01,2013-03-24 22:27:00,
2013-03-24 18:28:00,31.5,30.2,29.36,North,0,0.0,0.0,95,0.01,,,0.09,21.00,VWS V14.01,2013-03-24 22:28:00,
2013-03-24 18:29:00,31.5,30.2,29.36,North,0,0.0,0.0,95,0.01,,,0.09,21.00,VWS V14.01,2013-03-24 22:29:00,
2013-03-24 18:30:00,31.5,30.2,29.37,North,0,0.0,0.0,95,0.01,,,0.09,18.00,VWS V14.01,2013-03-24 22:30:00,
2013-03-24 18:31:00,31.5,30.2,29.37,North,0,0.0,0.0,95,0.01,,,0.09,18.00,VWS V14.01,2013-03-24 22:31:00,
2013-03-24 18:32:00,31.4,30.1,29.37,North,0,0.0,0.0,95,0.01,,,0.09,18.00,VWS V14.01,2013-03-24 22:32:00,
2013-03-24 18:35:00,31.3,30.0,29.37,North,0,0.0,0.0,95,0.01,,,0.09,23.00,VWS V14.01,2013-03-24 22:35:00,
2013-03-24 18:36:00,31.3,30.0,29.37,North,0,0.0,0.0,95,0.01,,,0.09,23.00,VWS V14.01,2013-03-24 22:36:00,
2013-03-24 18:37:00,31.3,30.0,29.37,North,0,0.0,0.0,95,0.02,,,0.10,23.00,VWS V14.01,2013-03-24 22:37:00,
2013-03-24 18:38:00,31.3,30.0,29.37,North,0,0.0,0.0,95,0.02,,,0.10,16.00,VWS V14.01,2013-03-24 22:38:00,
2013-03-24 18:39:00,31.3,30.0,29.37,North,0,0.0,0.0,95,0.02,,,0.10,16.00,VWS V14.01,2013-03-24 22:39:00,
2013-03-24 18:40:00,31.3,30.0,29.37,North,0,0.0,0.0,95,0.02,,,0.10,16.00,VWS V14.01,2013-03-24 22:40:00,
2013-03-24 18:41:00,31.3,30.0,29.37,North,0,0.0,0.0,95,0.02,,,0.10,16.00,VWS V14.01,2013-03-24 22:41:00,
2013-03-24 18:42:00,31.3,30.0,29.37,North,0,0.0,0.0,95,0.02,,,0.10,14.00,VWS V14.01,2013-03-24 22:42:00,
2013-03-24 18:43:00,31.3,30.0,29.37,North,0,0.0,0.0,95,0.02,,,0.10,11.00,VWS V14.01,2013-03-24 22:43:00,
2013-03-24 18:44:00,31.3,30.0,29.37,North,0,0.0,0.0,95,0.02,,,0.10,11.00,VWS V14.01,2013-03-24 22:44:00,
2013-03-24 18:45:00,31.3,30.0,29.35,North,0,0.0,0.0,95,0.02,,,0.10,11.00,VWS V14.01,2013-03-24 22:45:00,
2013-03-24 18:46:00,31.2,29.9,29.35,North,0,0.0,0.0,95,0.02,,,0.10,11.00,VWS V14.01,2013-03-24 22:46:00,
2013-03-24 18:47:00,31.2,29.9,29.35,North,0,0.0,0.0,95,0.02,,,0.10,11.00,VWS V14.01,2013-03-24 22:47:00,
2013-03-24 18:48:00,31.2,29.9,29.35,North,0,0.0,0.0,95,0.02,,,0.10,11.00,VWS V14.01,2013-03-24 22:48:00,
2013-03-24 18:49:00,31.2,29.9,29.35,North,0,0.0,0.0,95,0.02,,,0.10,11.00,VWS V14.01,2013-03-24 22:49:00,
2013-03-24 18:50:00,31.2,29.9,29.35,North,0,0.0,0.0,95,0.02,,,0.10,11.00,VWS V14.01,2013-03-24 22:50:00,
2013-03-24 18:51:00,31.2,29.9,29.35,North,0,0.0,0.0,95,0.02,,,0.10,7.00,VWS V14.01,2013-03-24 22:51:00,
2013-03-24 18:52:00,31.0,29.7,29.35,North,0,0.0,0.0,95,0.02,,,0.10,7.00,VWS V14.01,2013-03-24 22:52:00,
2013-03-24 18:53:00,31.0,29.7,29.35,North,0,0.0,0.0,95,0.02,,,0.10,7.00,VWS V14.01,2013-03-24 22:53:00,
2013-03-24 18:54:00,31.0,29.7,29.35,North,0,0.0,0.0,95,0.02,,,0.10,7.00,VWS V14.01,2013-03-24 22:54:00,
2013-03-24 18:55:00,31.0,29.7,29.35,North,0,0.0,0.0,95,0.02,,,0.10,5.00,VWS V14.01,2013-03-24 22:55:00,
2013-03-24 18:56:00,31.0,29.7,29.35,North,0,0.0,0.0,95,0.02,,,0.10,5.00,VWS V14.01,2013-03-24 22:56:00,
2013-03-24 18:57:00,31.0,29.7,29.35,North,0,0.0,0.0,95,0.02,,,0.10,5.00,VWS V14.01,2013-03-24 22:57:00,
2013-03-24 18:58:00,30.9,29.6,29.35,North,0,0.0,0.0,95,0.02,,,0.10,5.00,VWS V14.01,2013-03-24 22:58:00,
2013-03-24 18:59:00,30.9,29.6,29.35,North,0,0.0,0.0,95,0.01,,,0.10,0.00,VWS V14.01,2013-03-24 22:59:00,
2013-03-24 19:00:00,30.9,29.6,29.35,North,0,0.0,0.0,95,0.01,,,0.10,0.00,VWS V14.01,2013-03-24 23:00:00,
2013-03-24 19:01:00,30.9,29.6,29.35,North,0,0.0,0.0,95,0.01,,,0.10,0.00,VWS V14.01,2013-03-24 23:01:00,
2013-03-24 19:02:00,30.9,29.6,29.35,North,0,0.0,0.0,95,0.01,,,0.10,0.00,VWS V14.01,2013-03-24 23:02:00,
2013-03-24 19:03:00,30.8,29.5,29.35,North,0,0.0,0.0,95,0.01,,,0.10,0.00,VWS V14.01,2013-03-24 23:03:00,
2013-03-24 19:04:00,30.7,29.4,29.35,North,0,0.0,0.0,95,0.01,,,0.10,0.00,VWS V14.01,2013-03-24 23:04:00,
2013-03-24 19:05:00,30.7,29.4,29.35,North,0,0.0,0.0,95,0.01,,,0.10,0.00,VWS V14.01,2013-03-24 23:05:00,
2013-03-24 19:06:00,30.7,29.4,29.35,North,0,0.0,0.0,95,0.01,,,0.10,0.00,VWS V14.01,2013-03-24 23:06:00,
2013-03-24 19:07:00,30.7,29.4,29.35,North,0,0.0,0.0,95,0.01,,,0.10,0.00,VWS V14.01,2013-03-24 23:07:00,
2013-03-24 19:08:00,30.7,29.4,29.35,North,0,0.0,0.0,95,0.01,,,0.10,0.00,VWS V14.01,2013-03-24 23:08:00,
2013-03-24 19:09:00,30.7,29.4,29.35,North,0,0.0,0.0,95,0.01,,,0.10,0.00,VWS V14.01,2013-03-24 23:09:00,
2013-03-24 19:10:00,30.7,29.4,29.35,North,0,0.0,0.0,95,0.01,,,0.10,0.00,VWS V14.01,2013-03-24 23:10:00,
2013-03-24 19:11:00,30.7,29.4,29.35,North,0,0.0,0.0,95,0.01,,,0.10,0.00,VWS V14.01,2013-03-24 23:11:00,
2013-03-24 19:12:00,30.7,29.4,29.35,North,0,0.0,0.0,95,0.01,,,0.10,0.00,VWS V14.01,2013-03-24 23:12:00,
2013-03-24 19:13:00,30.7,29.4,29.35,North,0,0.0,0.0,95,0.01,,,0.10,0.00,VWS V14.01,2013-03-24 23:13:00,
2013-03-24 19:14:00,30.7,29.4,29.35,North,0,0.0,0.0,95,0.01,,,0.10,0.00,VWS V14.01,2013-03-24 23:14:00,
2013-03-24 19:15:00,30.7,29.4,29.39,North,0,0.0,0.0,95,0.01,,,0.10,0.00,VWS V14.01,2013-03-24 23:15:00,
2013-03-24 19:16:00,30.7,29.4,29.39,North,0,0.0,0.0,95,0.01,,,0.10,0.00,VWS V14.01,2013-03-24 23:16:00,
2013-03-24 19:17:00,30.6,29.3,29.39,North,0,0.0,0.0,95,0.01,,,0.10,0.00,VWS V14.01,2013-03-24 23:17:00,
2013-03-24 19:18:00,30.6,29.3,29.39,North,0,0.0,0.0,95,0.01,,,0.10,0.00,VWS V14.01,2013-03-24 23:18:00,
2013-03-24 19:19:00,30.6,29.3,29.39,North,0,0.0,0.0,95,0.01,,,0.10,0.00,VWS V14.01,2013-03-24 23:19:00,
2013-03-24 19:20:00,30.6,29.3,29.39,North,0,0.0,0.0,95,0.01,,,0.10,0.00,VWS V14.01,2013-03-24 23:20:00,
2013-03-24 19:21:00,30.6,29.3,29.39,North,0,0.0,0.0,95,0.01,,,0.10,0.00,VWS V14.01,2013-03-24 23:21:00,
2013-03-24 19:22:00,30.6,29.3,29.39,North,0,0.0,0.0,95,0.01,,,0.10,0.00,VWS V14.01,2013-03-24 23:22:00,
2013-03-24 19:23:00,30.6,29.3,29.39,North,0,0.0,0.0,95,0.01,,,0.10,0.00,VWS V14.01,2013-03-24 23:23:00,
2013-03-24 19:24:00,30.4,29.1,29.39,North,0,0.0,0.0,95,0.01,,,0.10,0.00,VWS V14.01,2013-03-24 23:24:00,
2013-03-24 19:25:00,30.4,29.1,29.39,North,0,0.0,0.0,95,0.01,,,0.10,0.00,VWS V14.01,2013-03-24 23:25:00,
2013-03-24 19:26:00,30.4,29.4,29.39,North,0,0.0,0.0,96,0.01,,,0.10,0.00,VWS V14.01,2013-03-24 23:26:00,
2013-03-24 19:27:00,30.4,29.4,29.39,North,0,0.0,0.0,96,0.01,,,0.10,0.00,VWS V14.01,2013-03-24 23:27:00,
2013-03-24 19:28:00,30.4,29.4,29.39,North,0,0.0,0.0,96,0.01,,,0.10,0.00,VWS V14.01,2013-03-24 23:28:00,
2013-03-24 19:29:00,30.4,29.4,29.39,North,0,0.0,0.0,96,0.01,,,0.10,0.00,VWS V14.01,2013-03-24 23:29:00,
2013-03-24 19:30:00,30.3,29.3,29.40,North,0,0.0,0.0,96,0.01,,,0.10,0.00,VWS V14.01,2013-03-24 23:30:00,
2013-03-24 19:31:00,30.3,29.3,29.40,North,0,0.0,0.0,96,0.01,,,0.10,0.00,VWS V14.01,2013-03-24 23:31:00,
2013-03-24 19:32:00,30.3,29.3,29.40,North,0,0.0,0.0,96,0.01,,,0.10,0.00,VWS V14.01,2013-03-24 23:32:00,
2013-03-24 19:33:00,30.3,29.3,29.40,North,0,0.0,0.0,96,0.01,,,0.10,0.00,VWS V14.01,2013-03-24 23:33:00,
2013-03-24 19:34:00,30.3,29.3,29.40,North,0,0.0,0.0,96,0.01,,,0.10,0.00,VWS V14.01,2013-03-24 23:34:00,
2013-03-24 19:35:00,30.3,29.3,29.40,North,0,0.0,0.0,96,0.01,,,0.10,0.00,VWS V14.01,2013-03-24 23:35:00,
2013-03-24 19:36:00,30.3,29.3,29.40,North,0,0.0,0.0,96,0.01,,,0.10,0.00,VWS V14.01,2013-03-24 23:36:00,
2013-03-24 19:37:00,30.3,29.3,29.40,North,0,0.0,0.0,96,0.01,,,0.10,0.00,VWS V14.01,2013-03-24 23:37:00,
2013-03-24 19:38:00,30.2,29.2,29.40,North,0,0.0,0.0,96,0.00,,,0.10,0.00,VWS V14.01,2013-03-24 23:38:00,
2013-03-24 19:39:00,30.1,29.1,29.40,North,0,0.0,0.0,96,0.00,,,0.10,0.00,VWS V14.01,2013-03-24 23:39:00,
2013-03-24 19:41:00,30.1,29.1,29.40,North,0,0.0,0.0,96,0.00,,,0.10,0.00,VWS V14.01,2013-03-24 23:41:00,
2013-03-24 19:42:00,30.1,29.1,29.40,North,0,0.0,0.0,96,0.00,,,0.10,0.00,VWS V14.01,2013-03-24 23:42:00,
2013-03-24 19:43:00,30.1,29.1,29.40,North,0,0.0,0.0,96,0.00,,,0.10,0.00,VWS V14.01,2013-03-24 23:43:00,
2013-03-24 19:44:00,30.1,29.1,29.40,North,0,0.0,0.0,96,0.00,,,0.10,0.00,VWS V14.01,2013-03-24 23:44:00,
2013-03-24 19:45:00,30.1,29.1,29.40,North,0,0.0,0.0,96,0.00,,,0.10,0.00,VWS V14.01,2013-03-24 23:45:00,
2013-03-24 19:46:00,30.1,29.1,29.40,North,0,0.0,0.0,96,0.00,,,0.10,0.00,VWS V14.01,2013-03-24 23:46:00,
2013-03-24 19:47:00,30.1,29.1,29.40,North,0,0.0,0.0,96,0.00,,,0.10,0.00,VWS V14.01,2013-03-24 23:47:00,
2013-03-24 19:48:00,30.1,29.1,29.40,North,0,0.0,0.0,96,0.00,,,0.10,0.00,VWS V14.01,2013-03-24 23:48:00,
2013-03-24 19:49:00,30.1,29.1,29.40,North,0,0.0,0.0,96,0.00,,,0.10,0.00,VWS V14.01,2013-03-24 23:49:00,
2013-03-24 19:50:00,30.1,29.1,29.40,North,0,0.0,0.0,96,0.00,,,0.10,0.00,VWS V14.01,2013-03-24 23:50:00,
2013-03-24 19:51:00,30.1,29.1,29.40,North,0,0.0,0.0,96,0.00,,,0.10,0.00,VWS V14.01,2013-03-24 23:51:00,
2013-03-24 19:52:00,30.1,29.1,29.40,North,0,0.0,0.0,96,0.00,,,0.10,0.00,VWS V14.01,2013-03-24 23:52:00,
2013-03-24 19:53:00,30.1,29.1,29.40,North,0,0.0,0.0,96,0.00,,,0.10,0.00,VWS V14.01,2013-03-24 23:53:00,
2013-03-24 19:54:00,30.1,29.1,29.40,North,0,0.0,0.0,96,0.00,,,0.10,0.00,VWS V14.01,2013-03-24 23:54:00,
2013-03-24 19:55:00,30.1,29.1,29.40,North,0,0.0,0.0,96,0.00,,,0.10,0.00,VWS V14.01,2013-03-24 23:55:00,
2013-03-24 19:56:00,30.1,29.1,29.40,North,0,0.0,0.0,96,0.00,,,0.10,0.00,VWS V14.01,2013-03-24 23:56:00,
2013-03-24 19:57:00,30.0,29.0,29.40,North,0,0.0,0.0,96,0.00,,,0.10,0.00,VWS V14.01,2013-03-24 23:57:00,
2013-03-24 19:58:00,30.0,29.0,29.40,North,0,0.0,0.0,96,0.00,,,0.10,0.00,VWS V14.01,2013-03-24 23:58:00,
2013-03-24 19:59:00,30.0,29.0,29.40,North,0,0.0,0.0,96,0.00,,,0.10,0.00,VWS V14.01,2013-03-24 23:59:00,
2013-03-24 20:00:00,30.0,29.0,29.41,North,0,0.0,0.0,96,0.00,,,0.10,0.00,VWS V14.01,2013-03-25 00:00:00,
2013-03-24 20:01:00,30.0,29.0,29.41,North,0,0.0,0.0,96,0.00,,,0.10,0.00,VWS V14.01,2013-03-25 00:01:00,
2013-03-24 20:02:00,30.0,29.0,29.41,North,0,0.0,0.0,96,0.00,,,0.10,0.00,VWS V14.01,2013-03-25 00:02:00,
2013-03-24 20:03:00,30.0,29.0,29.41,North,0,0.0,0.0,96,0.00,,,0.10,0.00,VWS V14.01,2013-03-25 00:03:00,
2013-03-24 20:04:00,30.0,29.0,29.41,North,0,0.0,0.0,96,0.00,,,0.10,0.00,VWS V14.01,2013-03-25 00:04:00,
2013-03-24 20:05:00,30.0,29.0,29.41,North,0,0.0,0.0,96,0.00,,,0.10,0.00,VWS V14.01,2013-03-25 00:05:00,
2013-03-24 20:06:00,30.0,29.0,29.41,North,0,0.0,0.0,96,0.00,,,0.10,0.00,VWS V14.01,2013-03-25 00:06:00,
2013-03-24 20:07:00,30.0,29.0,29.41,North,0,0.0,0.0,96,0.00,,,0.10,0.00,VWS V14.01,2013-03-25 00:07:00,
2013-03-24 20:08:00,30.0,29.0,29.41,North,0,0.0,0.0,96,0.00,,,0.10,0.00,VWS V14.01,2013-03-25 00:08:00,
2013-03-24 20:09:00,30.0,29.0,29.41,North,0,0.0,0.0,96,0.00,,,0.10,0.00,VWS V14.01,2013-03-25 00:09:00,
2013-03-24 20:10:00,30.0,29.0,29.41,North,0,0.0,0.0,96,0.00,,,0.10,0.00,VWS V14.01,2013-03-25 00:10:00,
2013-03-24 20:11:00,30.0,29.0,29.41,North,0,0.0,0.0,96,0.00,,,0.10,0.00,VWS V14.01,2013-03-25 00:11:00,
2013-03-24 20:12:00,30.0,29.0,29.41,North,0,0.0,0.0,96,0.00,,,0.10,0.00,VWS V14.01,2013-03-25 00:12:00,
2013-03-24 20:13:00,30.0,29.0,29.41,North,0,0.0,0.0,96,0.00,,,0.10,0.00,VWS V14.01,2013-03-25 00:13:00,
2013-03-24 20:14:00,29.9,28.9,29.41,North,0,0.0,0.0,96,0.00,,,0.10,0.00,VWS V14.01,2013-03-25 00:14:00,
2013-03-24 20:15:00,29.8,28.8,29.42,North,0,0.0,0.0,96,0.00,,,0.10,0.00,VWS V14.01,2013-03-25 00:15:00,
2013-03-24 20:16:00,29.8,28.8,29.42,North,0,0.0,0.0,96,0.00,,,0.10,0.00,VWS V14.01,2013-03-25 00:16:00,
2013-03-24 20:17:00,29.8,28.8,29.42,North,0,0.0,0.0,96,0.00,,,0.10,0.00,VWS V14.01,2013-03-25 00:17:00,
2013-03-24 20:18:00,29.8,28.8,29.42,North,0,0.0,0.0,96,0.00,,,0.10,0.00,VWS V14.01,2013-03-25 00:18:00,
2013-03-24 20:19:00,29.8,28.8,29.42,North,0,0.0,0.0,96,0.00,,,0.10,0.00,VWS V14.01,2013-03-25 00:19:00,
2013-03-24 20:20:00,29.8,28.8,29.42,North,0,0.0,0.0,96,0.00,,,0.10,0.00,VWS V14.01,2013-03-25 00:20:00,
2013-03-24 20:21:00,29.8,28.8,29.42,North,0,0.0,0.0,96,0.00,,,0.10,0.00,VWS V14.01,2013-03-25 00:21:00,
2013-03-24 20:22:00,29.8,28.8,29.42,North,0,0.0,0.0,96,0.00,,,0.10,0.00,VWS V14.01,2013-03-25 00:22:00,
2013-03-24 20:23:00,29.8,28.8,29.42,North,0,0.0,0.0,96,0.00,,,0.10,0.00,VWS V14.01,2013-03-25 00:23:00,
2013-03-24 20:24:00,29.8,28.8,29.42,North,0,0.0,0.0,96,0.00,,,0.10,0.00,VWS V14.01,2013-03-25 00:24:00,
2013-03-24 20:25:00,29.8,28.8,29.42,North,0,0.0,0.0,96,0.00,,,0.10,0.00,VWS V14.01,2013-03-25 00:25:00,
2013-03-24 20:26:00,29.8,28.8,29.42,North,0,0.0,0.0,96,0.00,,,0.10,0.00,VWS V14.01,2013-03-25 00:26:00,
2013-03-24 20:27:00,29.7,28.7,29.42,North,0,0.0,0.0,96,0.00,,,0.10,0.00,VWS V14.01,2013-03-25 00:27:00,
2013-03-24 20:28:00,29.7,28.7,29.42,North,0,0.0,0.0,96,0.00,,,0.10,0.00,VWS V14.01,2013-03-25 00:28:00,
2013-03-24 20:29:00,29.7,28.7,29.42,North,0,0.0,0.0,96,0.00,,,0.10,0.00,VWS V14.01,2013-03-25 00:29:00,
2013-03-24 20:30:00,29.7,28.7,29.42,North,0,0.0,0.0,96,0.00,,,0.10,0.00,VWS V14.01,2013-03-25 00:30:00,
2013-03-24 20:31:00,29.7,28.7,29.42,North,0,0.0,0.0,96,0.00,,,0.10,0.00,VWS V14.01,2013-03-25 00:31:00,
2013-03-24 20:32:00,29.7,28.7,29.42,North,0,0.0,0.0,96,0.00,,,0.10,0.00,VWS V14.01,2013-03-25 00:32:00,
2013-03-24 20:33:00,29.7,28.7,29.42,North,0,0.0,0.0,96,0.00,,,0.10,0.00,VWS V14.01,2013-03-25 00:33:00,
2013-03-24 20:34:00,29.7,28.7,29.42,North,0,0.0,0.0,96,0.00,,,0.10,0.00,VWS V14.01,2013-03-25 00:34:00,
2013-03-24 20:35:00,29.7,28.7,29.42,North,0,0.0,0.0,96,0.00,,,0.10,0.00,VWS V14.01,2013-03-25 00:35:00,
2013-03-24 20:36:00,29.7,28.7,29.42,North,0,0.0,0.0,96,0.00,,,0.10,0.00,VWS V14.01,2013-03-25 00:36:00,
2013-03-24 20:37:00,29.7,28.7,29.42,North,0,0.0,0.0,96,0.00,,,0.10,0.00,VWS V14.01,2013-03-25 00:37:00,
2013-03-24 20:38:00,29.7,28.7,29.42,North,0,0.0,0.0,96,0.00,,,0.10,0.00,VWS V14.01,2013-03-25 00:38:00,
2013-03-24 20:39:00,29.7,28.7,29.42,North,0,0.0,0.0,96,0.00,,,0.10,0.00,VWS V14.01,2013-03-25 00:39:00,
2013-03-24 20:40:00,29.7,28.7,29.42,North,0,0.0,0.0,96,0.00,,,0.10,0.00,VWS V14.01,2013-03-25 00:40:00,
2013-03-24 20:41:00,29.7,29.0,29.42,North,0,0.0,0.0,97,0.00,,,0.10,0.00,VWS V14.01,2013-03-25 00:41:00,
2013-03-24 20:42:00,29.7,29.0,29.42,North,0,0.0,0.0,97,0.00,,,0.10,0.00,VWS V14.01,2013-03-25 00:42:00,
2013-03-24 20:43:00,29.7,29.0,29.42,North,0,0.0,0.0,97,0.00,,,0.10,0.00,VWS V14.01,2013-03-25 00:43:00,
2013-03-24 20:44:00,29.7,29.0,29.42,North,0,0.0,0.0,97,0.00,,,0.10,0.00,VWS V14.01,2013-03-25 00:44:00,
2013-03-24 20:45:00,29.7,29.0,29.42,North,0,0.0,0.0,97,0.00,,,0.10,0.00,VWS V14.01,2013-03-25 00:45:00,
2013-03-24 20:46:00,29.7,29.0,29.42,North,0,0.0,0.0,97,0.00,,,0.10,0.00,VWS V14.01,2013-03-25 00:46:00,
2013-03-24 20:47:00,29.7,29.0,29.42,North,0,0.0,0.0,97,0.00,,,0.10,0.00,VWS V14.01,2013-03-25 00:47:00,
2013-03-24 20:48:00,29.7,29.0,29.42,North,0,0.0,0.0,97,0.00,,,0.10,0.00,VWS V14.01,2013-03-25 00:48:00,
2013-03-24 20:49:00,29.7,29.0,29.42,North,0,0.0,0.0,97,0.00,,,0.10,0.00,VWS V14.01,2013-03-25 00:49:00,
2013-03-24 20:50:00,29.7,29.0,29.42,North,0,0.0,0.0,97,0.00,,,0.10,0.00,VWS V14.01,2013-03-25 00:50:00,
2013-03-24 20:51:00,29.7,29.0,29.42,North,0,0.0,0.0,97,0.00,,,0.10,0.00,VWS V14.01,2013-03-25 00:51:00,
2013-03-24 20:52:00,29.7,29.0,29.42,North,0,0.0,0.0,97,0.00,,,0.10,0.00,VWS V14.01,2013-03-25 00:52:00,
2013-03-24 20:53:00,29.7,29.0,29.42,North,0,0.0,0.0,97,0.00,,,0.10,0.00,VWS V14.01,2013-03-25 00:53:00,
2013-03-24 20:54:00,29.7,29.0,29.42,North,0,0.0,0.0,97,0.00,,,0.10,0.00,VWS V14.01,2013-03-25 00:54:00,
2013-03-24 20:55:00,29.7,29.0,29.42,North,0,0.0,0.0,97,0.00,,,0.10,0.00,VWS V14.01,2013-03-25 00:55:00,
2013-03-24 20:56:00,29.7,29.0,29.42,North,0,0.0,0.0,97,0.00,,,0.10,0.00,VWS V14.01,2013-03-25 00:56:00,
2013-03-24 20:57:00,29.7,29.0,29.42,North,0,0.0,0.0,97,0.00,,,0.10,0.00,VWS V14.01,2013-03-25 00:57:00,
2013-03-24 20:58:00,29.7,29.0,29.42,North,0,0.0,0.0,97,0.00,,,0.10,0.00,VWS V14.01,2013-03-25 00:58:00,
2013-03-24 20:59:00,29.7,29.0,29.42,North,0,0.0,0.0,97,0.00,,,0.10,0.00,VWS V14.01,2013-03-25 00:59:00,
2013-03-24 21:00:00,29.7,29.0,29.43,North,0,0.0,0.0,97,0.00,,,0.10,0.00,VWS V14.01,2013-03-25 01:00:00,
2013-03-24 21:01:00,29.7,29.0,29.43,North,0,0.0,0.0,97,0.00,,,0.10,0.00,VWS V14.01,2013-03-25 01:01:00,
2013-03-24 21:02:00,29.7,29.0,29.43,North,0,0.0,0.0,97,0.00,,,0.10,0.00,VWS V14.01,2013-03-25 01:02:00,
2013-03-24 21:03:00,29.7,29.0,29.43,North,0,0.0,0.0,97,0.00,,,0.10,0.00,VWS V14.01,2013-03-25 01:03:00,
2013-03-24 21:04:00,29.7,29.0,29.43,North,0,0.0,0.0,97,0.00,,,0.10,0.00,VWS V14.01,2013-03-25 01:04:00,
2013-03-24 21:05:00,29.7,29.0,29.43,North,0,0.0,0.0,97,0.00,,,0.10,0.00,VWS V14.01,2013-03-25 01:05:00,
2013-03-24 21:06:00,29.7,29.0,29.43,North,0,0.0,0.0,97,0.00,,,0.10,0.00,VWS V14.01,2013-03-25 01:06:00,
2013-03-24 21:07:00,29.7,29.0,29.43,North,0,0.0,0.0,97,0.00,,,0.10,0.00,VWS V14.01,2013-03-25 01:07:00,
2013-03-24 21:08:00,29.7,29.0,29.43,North,0,0.0,0.0,97,0.00,,,0.10,0.00,VWS V14.01,2013-03-25 01:08:00,
2013-03-24 21:09:00,29.7,29.0,29.43,North,0,0.0,0.0,97,0.00,,,0.10,0.00,VWS V14.01,2013-03-25 01:09:00,
2013-03-24 21:10:00,29.7,29.0,29.43,North,0,0.0,0.0,97,0.00,,,0.10,0.00,VWS V14.01,2013-03-25 01:10:00,
2013-03-24 21:11:00,29.8,29.0,29.43,North,0,0.0,0.0,97,0.00,,,0.10,0.00,VWS V14.01,2013-03-25 01:11:00,
2013-03-24 21:12:00,29.7,29.0,29.43,North,0,0.0,0.0,97,0.00,,,0.10,0.00,VWS V14.01,2013-03-25 01:12:00,
2013-03-24 21:13:00,29.7,29.0,29.43,North,0,0.0,0.0,97,0.00,,,0.10,0.00,VWS V14.01,2013-03-25 01:13:00,
2013-03-24 21:14:00,29.7,29.0,29.43,North,0,0.0,0.0,97,0.00,,,0.10,0.00,VWS V14.01,2013-03-25 01:14:00,
2013-03-24 21:15:00,29.7,29.0,29.41,North,0,0.0,0.0,97,0.00,,,0.10,0.00,VWS V14.01,2013-03-25 01:15:00,
2013-03-24 21:16:00,29.7,29.0,29.41,North,0,0.0,0.0,97,0.00,,,0.10,0.00,VWS V14.01,2013-03-25 01:16:00,
2013-03-24 21:17:00,29.7,29.0,29.41,North,0,0.0,0.0,97,0.00,,,0.10,0.00,VWS V14.01,2013-03-25 01:17:00,
2013-03-24 21:18:00,29.7,29.0,29.41,North,0,0.0,0.0,97,0.00,,,0.10,0.00,VWS V14.01,2013-03-25 01:18:00,
2013-03-24 21:19:00,29.7,29.0,29.41,North,0,0.0,0.0,97,0.00,,,0.10,0.00,VWS V14.01,2013-03-25 01:19:00,
2013-03-24 21:20:00,29.7,29.0,29.41,North,0,0.0,0.0,97,0.00,,,0.10,0.00,VWS V14.01,2013-03-25 01:20:00,
2013-03-24 21:21:00,29.7,29.0,29.41,North,0,0.0,0.0,97,0.00,,,0.10,0.00,VWS V14.01,2013-03-25 01:21:00,
2013-03-24 21:22:00,29.7,29.0,29.41,North,0,0.0,0.0,97,0.00,,,0.10,0.00,VWS V14.01,2013-03-25 01:22:00,
2013-03-24 21:23:00,29.7,29.0,29.41,North,0,0.0,0.0,97,0.00,,,0.10,0.00,VWS V14.01,2013-03-25 01:23:00,
2013-03-24 21:24:00,29.7,29.0,29.41,North,0,0.0,0.0,97,0.00,,,0.10,0.00,VWS V14.01,2013-03-25 01:24:00,
2013-03-24 21:25:00,29.7,29.0,29.41,North,0,0.0,0.0,97,0.00,,,0.10,0.00,VWS V14.01,2013-03-25 01:25:00,
2013-03-24 21:26:00,29.8,29.0,29.41,North,0,0.0,0.0,97,0.00,,,0.10,0.00,VWS V14.01,2013-03-25 01:26:00,
2013-03-24 21:27:00,29.8,29.0,29.41,North,0,0.0,0.0,97,0.00,,,0.10,0.00,VWS V14.01,2013-03-25 01:27:00,
2013-03-24 21:28:00,29.8,29.0,29.41,North,0,0.0,0.0,97,0.00,,,0.10,0.00,VWS V14.01,2013-03-25 01:28:00,
2013-03-24 21:29:00,29.8,29.0,29.41,North,0,0.0,0.0,97,0.00,,,0.10,0.00,VWS V14.01,2013-03-25 01:29:00,
2013-03-24 21:30:00,29.8,29.0,29.42,North,0,0.0,0.0,97,0.00,,,0.10,0.00,VWS V14.01,2013-03-25 01:30:00,
2013-03-24 21:31:00,29.8,29.0,29.42,North,0,0.0,0.0,97,0.00,,,0.10,0.00,VWS V14.01,2013-03-25 01:31:00,
2013-03-24 21:32:00,29.8,29.0,29.42,North,0,0.0,0.0,97,0.00,,,0.10,0.00,VWS V14.01,2013-03-25 01:32:00,
2013-03-24 21:33:00,29.8,29.0,29.42,North,0,0.0,0.0,97,0.00,,,0.10,0.00,VWS V14.01,2013-03-25 01:33:00,
2013-03-24 21:34:00,29.8,29.0,29.42,North,0,0.0,0.0,97,0.00,,,0.10,0.00,VWS V14.01,2013-03-25 01:34:00,
2013-03-24 21:35:00,29.8,29.0,29.42,North,0,0.0,0.0,97,0.00,,,0.10,0.00,VWS V14.01,2013-03-25 01:35:00,
2013-03-24 21:36:00,29.7,29.0,29.42,North,0,0.0,0.0,97,0.00,,,0.10,0.00,VWS V14.01,2013-03-25 01:36:00,
2013-03-24 21:37:00,29.7,29.0,29.42,North,0,0.0,0.0,97,0.00,,,0.10,0.00,VWS V14.01,2013-03-25 01:37:00,
2013-03-24 21:38:00,29.7,29.0,29.42,North,0,0.0,0.0,97,0.00,,,0.10,0.00,VWS V14.01,2013-03-25 01:38:00,
2013-03-24 21:39:00,29.7,29.0,29.42,North,0,0.0,0.0,97,0.00,,,0.10,0.00,VWS V14.01,2013-03-25 01:39:00,
2013-03-24 21:40:00,29.7,29.0,29.42,North,0,0.0,0.0,97,0.00,,,0.10,0.00,VWS V14.01,2013-03-25 01:40:00,
2013-03-24 21:41:00,29.5,28.8,29.42,North,0,0.0,0.0,97,0.00,,,0.10,0.00,VWS V14.01,2013-03-25 01:41:00,
2013-03-24 21:42:00,29.5,28.8,29.42,North,0,0.0,0.0,97,0.00,,,0.10,0.00,VWS V14.01,2013-03-25 01:42:00,
2013-03-24 21:43:00,29.5,28.8,29.42,North,0,0.0,0.0,97,0.00,,,0.10,0.00,VWS V14.01,2013-03-25 01:43:00,
2013-03-24 21:44:00,29.5,28.8,29.42,North,0,0.0,0.0,97,0.00,,,0.10,0.00,VWS V14.01,2013-03-25 01:44:00,
2013-03-24 21:45:00,29.5,28.8,29.40,North,0,0.0,0.0,97,0.00,,,0.10,0.00,VWS V14.01,2013-03-25 01:45:00,
2013-03-24 21:46:00,29.5,28.8,29.40,North,0,0.0,0.0,97,0.01,,,0.11,0.00,VWS V14.01,2013-03-25 01:46:00,
2013-03-24 21:47:00,29.5,28.8,29.40,North,0,0.0,0.0,97,0.01,,,0.11,0.00,VWS V14.01,2013-03-25 01:47:00,
2013-03-24 21:48:00,29.5,28.8,29.40,North,0,0.0,0.0,97,0.01,,,0.11,0.00,VWS V14.01,2013-03-25 01:48:00,
2013-03-24 21:49:00,29.5,28.8,29.40,North,0,0.0,0.0,97,0.01,,,0.11,0.00,VWS V14.01,2013-03-25 01:49:00,
2013-03-24 21:50:00,29.5,28.8,29.40,North,0,0.0,0.0,97,0.01,,,0.11,0.00,VWS V14.01,2013-03-25 01:50:00,
2013-03-24 21:51:00,29.5,28.8,29.40,North,0,0.0,0.0,97,0.01,,,0.11,0.00,VWS V14.01,2013-03-25 01:51:00,
2013-03-24 21:52:00,29.5,28.8,29.40,North,0,0.0,0.0,97,0.01,,,0.11,0.00,VWS V14.01,2013-03-25 01:52:00,
2013-03-24 21:53:00,29.5,28.8,29.40,North,0,0.0,0.0,97,0.01,,,0.11,0.00,VWS V14.01,2013-03-25 01:53:00,
2013-03-24 21:54:00,29.5,28.8,29.40,North,0,0.0,0.0,97,0.01,,,0.11,0.00,VWS V14.01,2013-03-25 01:54:00,
2013-03-24 21:55:00,29.5,28.8,29.40,North,0,0.0,0.0,97,0.01,,,0.11,0.00,VWS V14.01,2013-03-25 01:55:00,
2013-03-24 21:56:00,29.5,28.8,29.40,North,0,0.0,0.0,97,0.01,,,0.11,0.00,VWS V14.01,2013-03-25 01:56:00,
2013-03-24 21:57:00,29.5,28.8,29.40,North,0,0.0,0.0,97,0.01,,,0.11,0.00,VWS V14.01,2013-03-25 01:57:00,
2013-03-24 21:58:00,29.5,28.8,29.40,North,0,0.0,0.0,97,0.01,,,0.11,0.00,VWS V14.01,2013-03-25 01:58:00,
2013-03-24 21:59:00,29.5,28.8,29.40,North,0,0.0,0.0,97,0.01,,,0.11,0.00,VWS V14.01,2013-03-25 01:59:00,
2013-03-24 22:00:00,29.5,28.8,29.39,North,0,0.0,0.0,97,0.01,,,0.11,0.00,VWS V14.01,2013-03-25 02:00:00,
2013-03-24 22:01:00,29.4,28.7,29.39,North,0,0.0,0.0,97,0.01,,,0.11,0.00,VWS V14.01,2013-03-25 02:01:00,
2013-03-24 22:02:00,29.4,28.7,29.39,North,0,0.0,0.0,97,0.01,,,0.11,0.00,VWS V14.01,2013-03-25 02:02:00,
2013-03-24 22:03:00,29.4,28.7,29.39,North,0,0.0,0.0,97,0.01,,,0.11,0.00,VWS V14.01,2013-03-25 02:03:00,
2013-03-24 22:04:00,29.4,28.7,29.39,North,0,0.0,0.0,97,0.01,,,0.11,0.00,VWS V14.01,2013-03-25 02:04:00,
2013-03-24 22:05:00,29.4,28.7,29.39,North,0,0.0,0.0,97,0.01,,,0.11,0.00,VWS V14.01,2013-03-25 02:05:00,
2013-03-24 22:06:00,29.4,28.7,29.39,North,0,0.0,0.0,97,0.01,,,0.11,0.00,VWS V14.01,2013-03-25 02:06:00,
2013-03-24 22:07:00,29.4,28.7,29.39,North,0,0.0,0.0,97,0.01,,,0.11,0.00,VWS V14.01,2013-03-25 02:07:00,
2013-03-24 22:08:00,29.4,28.7,29.39,North,0,0.0,0.0,97,0.01,,,0.11,0.00,VWS V14.01,2013-03-25 02:08:00,
2013-03-24 22:09:00,29.4,28.7,29.39,North,0,0.0,0.0,97,0.01,,,0.11,0.00,VWS V14.01,2013-03-25 02:09:00,
2013-03-24 22:10:00,29.3,28.6,29.39,North,0,0.0,0.0,97,0.01,,,0.11,0.00,VWS V14.01,2013-03-25 02:10:00,
2013-03-24 22:11:00,29.3,28.6,29.39,North,0,0.0,0.0,97,0.01,,,0.11,0.00,VWS V14.01,2013-03-25 02:11:00,
2013-03-24 22:12:00,29.2,28.5,29.39,North,0,0.0,0.0,97,0.01,,,0.11,0.00,VWS V14.01,2013-03-25 02:12:00,
2013-03-24 22:13:00,29.1,28.4,29.39,North,0,0.0,0.0,97,0.01,,,0.11,0.00,VWS V14.01,2013-03-25 02:13:00,
2013-03-24 22:14:00,29.1,28.4,29.39,North,0,0.0,0.0,97,0.01,,,0.11,0.00,VWS V14.01,2013-03-25 02:14:00,
2013-03-24 22:15:00,29.1,28.4,29.38,North,0,0.0,0.0,97,0.01,,,0.11,0.00,VWS V14.01,2013-03-25 02:15:00,
2013-03-24 22:16:00,29.1,28.4,29.38,North,0,0.0,0.0,97,0.01,,,0.11,0.00,VWS V14.01,2013-03-25 02:16:00,
2013-03-24 22:17:00,29.1,28.4,29.38,North,0,0.0,0.0,97,0.01,,,0.11,0.00,VWS V14.01,2013-03-25 02:17:00,
2013-03-24 22:18:00,29.0,28.3,29.38,North,0,0.0,0.0,97,0.01,,,0.11,0.00,VWS V14.01,2013-03-25 02:18:00,
2013-03-24 22:19:00,29.0,28.3,29.38,North,0,0.0,0.0,97,0.01,,,0.11,0.00,VWS V14.01,2013-03-25 02:19:00,
2013-03-24 22:20:00,29.0,28.3,29.38,North,0,0.0,0.0,97,0.01,,,0.11,0.00,VWS V14.01,2013-03-25 02:20:00,
2013-03-24 22:21:00,29.0,28.3,29.38,North,0,0.0,0.0,97,0.01,,,0.11,0.00,VWS V14.01,2013-03-25 02:21:00,
2013-03-24 22:22:00,28.9,28.2,29.38,North,0,0.0,0.0,97,0.01,,,0.11,0.00,VWS V14.01,2013-03-25 02:22:00,
2013-03-24 22:24:00,28.8,28.1,29.38,North,0,0.0,0.0,97,0.01,,,0.11,0.00,VWS V14.01,2013-03-25 02:24:00,
2013-03-24 22:25:00,28.8,28.1,29.38,North,0,0.0,0.0,97,0.01,,,0.11,0.00,VWS V14.01,2013-03-25 02:25:00,
2013-03-24 22:26:00,28.8,28.1,29.38,North,0,0.0,0.0,97,0.01,,,0.11,0.00,VWS V14.01,2013-03-25 02:26:00,
2013-03-24 22:27:00,28.8,28.1,29.38,North,0,0.0,0.0,97,0.01,,,0.11,0.00,VWS V14.01,2013-03-25 02:27:00,
2013-03-24 22:28:00,28.7,28.0,29.38,North,0,0.0,0.0,97,0.01,,,0.11,0.00,VWS V14.01,2013-03-25 02:28:00,
2013-03-24 22:29:00,28.7,28.0,29.38,North,0,0.0,0.0,97,0.01,,,0.11,0.00,VWS V14.01,2013-03-25 02:29:00,
2013-03-24 22:30:00,28.7,28.0,29.38,North,0,0.0,0.0,97,0.01,,,0.11,0.00,VWS V14.01,2013-03-25 02:30:00,
2013-03-24 22:31:00,28.7,28.0,29.38,North,0,0.0,0.0,97,0.01,,,0.11,0.00,VWS V14.01,2013-03-25 02:31:00,
2013-03-24 22:32:00,28.7,28.0,29.38,North,0,0.0,0.0,97,0.01,,,0.11,0.00,VWS V14.01,2013-03-25 02:32:00,
2013-03-24 22:33:00,28.7,28.0,29.38,North,0,0.0,0.0,97,0.01,,,0.11,0.00,VWS V14.01,2013-03-25 02:33:00,
2013-03-24 22:34:00,28.7,28.0,29.38,North,0,0.0,0.0,97,0.01,,,0.11,0.00,VWS V14.01,2013-03-25 02:34:00,
2013-03-24 22:35:00,28.7,28.0,29.38,North,0,0.0,0.0,97,0.01,,,0.11,0.00,VWS V14.01,2013-03-25 02:35:00,
2013-03-24 22:36:00,28.7,28.0,29.38,North,0,0.0,0.0,97,0.01,,,0.11,0.00,VWS V14.01,2013-03-25 02:36:00,
2013-03-24 22:37:00,28.7,28.0,29.38,North,0,0.0,0.0,97,0.01,,,0.11,0.00,VWS V14.01,2013-03-25 02:37:00,
2013-03-24 22:38:00,28.7,28.0,29.38,North,0,0.0,0.0,97,0.01,,,0.11,0.00,VWS V14.01,2013-03-25 02:38:00,
2013-03-24 22:39:00,28.7,28.0,29.38,North,0,0.0,0.0,97,0.01,,,0.11,0.00,VWS V14.01,2013-03-25 02:39:00,
2013-03-24 22:40:00,28.6,27.9,29.38,North,0,0.0,0.0,97,0.01,,,0.11,0.00,VWS V14.01,2013-03-25 02:40:00,
2013-03-24 22:41:00,28.5,27.8,29.38,North,0,0.0,0.0,97,0.01,,,0.11,0.00,VWS V14.01,2013-03-25 02:41:00,
2013-03-24 22:42:00,28.5,27.8,29.38,North,0,0.0,0.0,97,0.01,,,0.11,0.00,VWS V14.01,2013-03-25 02:42:00,
2013-03-24 22:43:00,28.5,27.8,29.38,North,0,0.0,0.0,97,0.01,,,0.11,0.00,VWS V14.01,2013-03-25 02:43:00,
2013-03-24 22:44:00,28.5,27.8,29.38,North,0,0.0,0.0,97,0.01,,,0.11,0.00,VWS V14.01,2013-03-25 02:44:00,
2013-03-24 22:45:00,28.5,27.8,29.39,North,0,0.0,0.0,97,0.01,,,0.11,0.00,VWS V14.01,2013-03-25 02:45:00,
2013-03-24 22:46:00,28.5,27.8,29.39,North,0,0.0,0.0,97,0.01,,,0.11,0.00,VWS V14.01,2013-03-25 02:46:00,
2013-03-24 22:47:00,28.5,27.8,29.39,North,0,0.0,0.0,97,0.00,,,0.11,0.00,VWS V14.01,2013-03-25 02:47:00,
2013-03-24 22:49:00,28.5,27.8,29.39,North,0,0.0,0.0,97,0.00,,,0.11,0.00,VWS V14.01,2013-03-25 02:49:00,
2013-03-24 22:50:00,28.5,27.8,29.39,North,0,0.0,0.0,97,0.00,,,0.11,0.00,VWS V14.01,2013-03-25 02:50:00,
2013-03-24 22:51:00,28.6,27.9,29.39,North,0,0.0,0.0,97,0.00,,,0.11,0.00,VWS V14.01,2013-03-25 02:51:00,
2013-03-24 22:52:00,28.7,28.0,29.39,North,0,0.0,0.0,97,0.00,,,0.11,0.00,VWS V14.01,2013-03-25 02:52:00,
2013-03-24 22:53:00,28.6,27.9,29.39,North,0,0.0,0.0,97,0.00,,,0.11,0.00,VWS V14.01,2013-03-25 02:53:00,
2013-03-24 22:54:00,28.5,27.8,29.39,North,0,0.0,0.0,97,0.00,,,0.11,0.00,VWS V14.01,2013-03-25 02:54:00,
2013-03-24 22:55:00,28.5,27.8,29.39,North,0,0.0,0.0,97,0.00,,,0.11,0.00,VWS V14.01,2013-03-25 02:55:00,
2013-03-24 22:56:00,28.5,27.8,29.39,North,0,0.0,0.0,97,0.00,,,0.11,0.00,VWS V14.01,2013-03-25 02:56:00,
2013-03-24 22:57:00,28.5,27.8,29.39,North,0,0.0,0.0,97,0.00,,,0.11,0.00,VWS V14.01,2013-03-25 02:57:00,
2013-03-24 22:58:00,28.5,27.8,29.39,North,0,0.0,0.0,97,0.00,,,0.11,0.00,VWS V14.01,2013-03-25 02:58:00,
2013-03-24 22:59:00,28.5,27.8,29.39,North,0,0.0,0.0,97,0.00,,,0.11,0.00,VWS V14.01,2013-03-25 02:59:00,
2013-03-24 23:00:00,28.5,27.8,29.38,North,0,0.0,0.0,97,0.00,,,0.11,0.00,VWS V14.01,2013-03-25 03:00:00,
2013-03-24 23:01:00,28.5,27.8,29.38,North,0,0.0,0.0,97,0.00,,,0.11,0.00,VWS V14.01,2013-03-25 03:01:00,
2013-03-24 23:02:00,28.5,27.8,29.38,North,0,0.0,0.0,97,0.00,,,0.11,0.00,VWS V14.01,2013-03-25 03:02:00,
2013-03-24 23:03:00,28.4,27.7,29.38,North,0,0.0,0.0,97,0.00,,,0.11,0.00,VWS V14.01,2013-03-25 03:03:00,
2013-03-24 23:04:00,28.4,27.7,29.38,North,0,0.0,0.0,97,0.00,,,0.11,0.00,VWS V14.01,2013-03-25 03:04:00,
2013-03-24 23:05:00,28.4,27.7,29.38,North,0,0.0,0.0,97,0.00,,,0.11,0.00,VWS V14.01,2013-03-25 03:05:00,
2013-03-24 23:06:00,28.4,27.7,29.38,North,0,0.0,0.0,97,0.00,,,0.11,0.00,VWS V14.01,2013-03-25 03:06:00,
2013-03-24 23:07:00,28.4,27.7,29.38,North,0,0.0,0.0,97,0.00,,,0.11,0.00,VWS V14.01,2013-03-25 03:07:00,
2013-03-24 23:08:00,28.4,27.7,29.38,North,0,0.0,0.0,97,0.00,,,0.11,0.00,VWS V14.01,2013-03-25 03:08:00,
2013-03-24 23:09:00,28.4,27.7,29.38,North,0,0.0,0.0,97,0.00,,,0.11,0.00,VWS V14.01,2013-03-25 03:09:00,
2013-03-24 23:10:00,28.4,27.7,29.38,North,0,0.0,0.0,97,0.00,,,0.11,0.00,VWS V14.01,2013-03-25 03:10:00,
2013-03-24 23:11:00,28.4,27.7,29.38,North,0,0.0,0.0,97,0.00,,,0.11,0.00,VWS V14.01,2013-03-25 03:11:00,
2013-03-24 23:12:00,28.4,27.7,29.38,North,0,0.0,0.0,97,0.00,,,0.11,0.00,VWS V14.01,2013-03-25 03:12:00,
2013-03-24 23:13:00,28.4,27.7,29.38,North,0,0.0,0.0,97,0.00,,,0.11,0.00,VWS V14.01,2013-03-25 03:13:00,
2013-03-24 23:14:00,28.4,27.7,29.38,North,0,0.0,0.0,97,0.00,,,0.11,0.00,VWS V14.01,2013-03-25 03:14:00,
2013-03-24 23:15:00,28.4,27.7,29.39,North,0,0.0,0.0,97,0.00,,,0.11,0.00,VWS V14.01,2013-03-25 03:15:00,
2013-03-24 23:16:00,28.4,27.7,29.39,North,0,0.0,0.0,97,0.00,,,0.11,0.00,VWS V14.01,2013-03-25 03:16:00,
2013-03-24 23:17:00,28.3,27.6,29.39,North,0,0.0,0.0,97,0.00,,,0.11,0.00,VWS V14.01,2013-03-25 03:17:00,
2013-03-24 23:18:00,28.2,27.5,29.39,North,0,0.0,0.0,97,0.00,,,0.11,0.00,VWS V14.01,2013-03-25 03:18:00,
2013-03-24 23:19:00,28.3,27.6,29.39,North,0,0.0,0.0,97,0.00,,,0.11,0.00,VWS V14.01,2013-03-25 03:19:00,
2013-03-24 23:20:00,28.4,27.7,29.39,North,0,0.0,0.0,97,0.00,,,0.11,0.00,VWS V14.01,2013-03-25 03:20:00,
2013-03-24 23:21:00,28.2,27.5,29.39,North,0,0.0,0.0,97,0.00,,,0.11,0.00,VWS V14.01,2013-03-25 03:21:00,
2013-03-24 23:22:00,28.2,27.5,29.39,North,0,0.0,0.0,97,0.00,,,0.11,0.00,VWS V14.01,2013-03-25 03:22:00,
2013-03-24 23:23:00,28.2,27.5,29.39,North,0,0.0,0.0,97,0.00,,,0.11,0.00,VWS V14.01,2013-03-25 03:23:00,
2013-03-24 23:24:00,28.2,27.5,29.39,North,0,0.0,0.0,97,0.00,,,0.11,0.00,VWS V14.01,2013-03-25 03:24:00,
2013-03-24 23:25:00,28.2,27.5,29.39,North,0,0.0,0.0,97,0.00,,,0.11,0.00,VWS V14.01,2013-03-25 03:25:00,
2013-03-24 23:26:00,28.2,27.5,29.39,North,0,0.0,0.0,97,0.00,,,0.11,0.00,VWS V14.01,2013-03-25 03:26:00,
2013-03-24 23:27:00,28.2,27.5,29.39,North,0,0.0,0.0,97,0.00,,,0.11,0.00,VWS V14.01,2013-03-25 03:27:00,
2013-03-24 23:28:00,28.2,27.5,29.39,North,0,0.0,0.0,97,0.00,,,0.11,0.00,VWS V14.01,2013-03-25 03:28:00,
2013-03-24 23:29:00,28.2,27.5,29.39,North,0,0.0,0.0,97,0.00,,,0.11,0.00,VWS V14.01,2013-03-25 03:29:00,
2013-03-24 23:31:00,28.1,27.4,29.39,North,0,0.0,0.0,97,0.00,,,0.11,0.00,VWS V14.01,2013-03-25 03:31:00,
2013-03-24 23:32:00,28.1,27.4,29.39,North,0,0.0,0.0,97,0.00,,,0.11,0.00,VWS V14.01,2013-03-25 03:32:00,
2013-03-24 23:33:00,28.1,27.4,29.39,North,0,0.0,0.0,97,0.00,,,0.11,0.00,VWS V14.01,2013-03-25 03:33:00,
2013-03-24 23:34:00,28.1,27.4,29.39,North,0,0.0,0.0,97,0.00,,,0.11,0.00,VWS V14.01,2013-03-25 03:34:00,
2013-03-24 23:35:00,28.1,27.4,29.39,North,0,0.0,0.0,97,0.00,,,0.11,0.00,VWS V14.01,2013-03-25 03:35:00,
2013-03-24 23:36:00,28.1,27.4,29.39,North,0,0.0,0.0,97,0.00,,,0.11,0.00,VWS V14.01,2013-03-25 03:36:00,
2013-03-24 23:37:00,28.1,27.4,29.39,North,0,0.0,0.0,97,0.00,,,0.11,0.00,VWS V14.01,2013-03-25 03:37:00,
2013-03-24 23:38:00,28.1,27.4,29.39,North,0,0.0,0.0,97,0.00,,,0.11,0.00,VWS V14.01,2013-03-25 03:38:00,
2013-03-24 23:39:00,28.1,27.4,29.39,North,0,0.0,0.0,97,0.00,,,0.11,0.00,VWS V14.01,2013-03-25 03:39:00,
2013-03-24 23:40:00,28.1,27.4,29.39,North,0,0.0,0.0,97,0.00,,,0.11,0.00,VWS V14.01,2013-03-25 03:40:00,
2013-03-24 23:41:00,28.1,27.4,29.39,North,0,0.0,0.0,97,0.00,,,0.11,0.00,VWS V14.01,2013-03-25 03:41:00,
2013-03-24 23:42:00,28.1,27.4,29.39,North,0,0.0,0.0,97,0.00,,,0.11,0.00,VWS V14.01,2013-03-25 03:42:00,
2013-03-24 23:43:00,28.1,27.4,29.39,North,0,0.0,0.0,97,0.00,,,0.11,0.00,VWS V14.01,2013-03-25 03:43:00,
2013-03-24 23:44:00,28.1,27.4,29.39,North,0,0.0,0.0,97,0.00,,,0.11,0.00,VWS V14.01,2013-03-25 03:44:00,
2013-03-24 23:45:00,28.1,27.4,29.40,North,0,0.0,0.0,97,0.00,,,0.11,0.00,VWS V14.01,2013-03-25 03:45:00,
2013-03-24 23:46:00,28.1,27.4,29.40,North,0,0.0,0.0,97,0.00,,,0.11,0.00,VWS V14.01,2013-03-25 03:46:00,
2013-03-24 23:47:00,28.1,27.4,29.40,North,0,0.0,0.0,97,0.00,,,0.11,0.00,VWS V14.01,2013-03-25 03:47:00,
2013-03-24 23:48:00,28.1,27.4,29.40,North,0,0.0,0.0,97,0.00,,,0.11,0.00,VWS V14.01,2013-03-25 03:48:00,
2013-03-24 23:49:00,28.1,27.4,29.40,North,0,0.0,0.0,97,0.00,,,0.11,0.00,VWS V14.01,2013-03-25 03:49:00,
2013-03-24 23:50:00,28.1,27.4,29.40,North,0,0.0,0.0,97,0.00,,,0.11,0.00,VWS V14.01,2013-03-25 03:50:00,
2013-03-24 23:51:00,28.1,27.4,29.40,North,0,0.0,0.0,97,0.00,,,0.11,0.00,VWS V14.01,2013-03-25 03:51:00,
2013-03-24 23:52:00,28.1,27.4,29.40,North,0,0.0,0.0,97,0.00,,,0.11,0.00,VWS V14.01,2013-03-25 03:52:00,
2013-03-24 23:53:00,28.1,27.4,29.40,North,0,0.0,0.0,97,0.00,,,0.11,0.00,VWS V14.01,2013-03-25 03:53:00,
2013-03-24 23:54:00,28.1,27.4,29.40,North,0,0.0,0.0,97,0.00,,,0.11,0.00,VWS V14.01,2013-03-25 03:54:00,
2013-03-24 23:55:00,28.1,27.4,29.40,North,0,0.0,0.0,97,0.00,,,0.11,0.00,VWS V14.01,2013-03-25 03:55:00,
2013-03-24 23:56:00,28.1,27.4,29.40,North,0,0.0,0.0,97,0.00,,,0.11,0.00,VWS V14.01,2013-03-25 03:56:00,
2013-03-24 23:57:00,28.1,27.4,29.40,North,0,0.0,0.0,97,0.00,,,0.11,0.00,VWS V14.01,2013-03-25 03:57:00,
2013-03-24 23:58:00,28.0,27.3,29.40,North,0,0.0,0.0,97,0.00,,,0.11,0.00,VWS V14.01,2013-03-25 03:58:00,
2013-03-24 23:59:00,28.0,27.3,29.40,North,0,0.0,0.0,97,0.00,,,0.11,0.00,VWS V14.01,2013-03-25 03:59:00,